GEFSNE_prec_meanprecacc_006.txt.gz
Total_Precipitation_Accumulation
0.00 0.00 0.00 0.00 0.00 0.00 0.01 0.05 0.08 0.05 0.02 0.01 0.02 0.03 0.04 0.04 0.03 0.05 0.04 0.04 0.05 0.06 0.07 0.07 0.07 0.07 0.07 0.06 0.08 0.12 0.17 0.20 0.21 0.21 0.20 0.18 0.14 0.13
0.00 0.00 0.00 0.00 0.00 0.00 0.00 0.02 0.06 0.07 0.04 0.01 0.01 0.03 0.06 0.06 0.05 0.06 0.07 0.09 0.11 0.11 0.11 0.10 0.11 0.14 0.15 0.14 0.11 0.10 0.13 0.16 0.17 0.15 0.14 0.14 0.12 0.11
0.00 0.00 0.00 0.00 0.00 0.00 0.00 0.01 0.01 0.04 0.04 0.00 0.00 0.01 0.04 0.05 0.05 0.06 0.06 0.06 0.06 0.08 0.10 0.10 0.12 0.15 0.16 0.17 0.16 0.13 0.13 0.14 0.14 0.13 0.12 0.12 0.12 0.10
0.00 0.00 0.00 0.00 0.00 0.00 0.00 0.00 0.00 0.01 0.03 0.01 0.00 0.00 0.01 0.03 0.04 0.04 0.05 0.06 0.05 0.06 0.09 0.10 0.12 0.15 0.17 0.17 0.17 0.16 0.16 0.15 0.15 0.13 0.12 0.11 0.12 0.11
0.00 0.00 0.00 0.00 0.00 0.00 0.00 0.00 0.00 0.00 0.01 0.02 0.01 0.00 0.01 0.02 0.03 0.03 0.04 0.05 0.05 0.07 0.08 0.10 0.13 0.15 0.16 0.17 0.16 0.15 0.15 0.16 0.18 0.18 0.18 0.19 0.18 0.17
0.00 0.00 0.00 0.00 0.00 0.00 0.00 0.00 0.00 0.00 0.01 0.02 0.02 0.01 0.02 0.02 0.03 0.04 0.04 0.04 0.04 0.04 0.04 0.05 0.07 0.08 0.09 0.11 0.13 0.14 0.16 0.19 0.24 0.29 0.31 0.31 0.28 0.23
0.00 0.00 0.00 0.00 0.00 0.00 0.00 0.00 0.00 0.00 0.01 0.01 0.01 0.02 0.02 0.04 0.04 0.05 0.05 0.03 0.02 0.01 0.01 0.01 0.02 0.03 0.04 0.07 0.12 0.17 0.20 0.26 0.32 0.41 0.50 0.54 0.50 0.42
0.00 0.00 0.00 0.00 0.00 0.00 0.00 0.00 0.00 0.01 0.01 0.01 0.01 0.01 0.01 0.02 0.03 0.04 0.04 0.04 0.02 0.01 0.01 0.01 0.01 0.03 0.06 0.11 0.17 0.21 0.24 0.29 0.36 0.43 0.50 0.50 0.48 0.45
0.00 0.00 0.00 0.00 0.00 0.00 0.00 0.00 0.00 0.00 0.01 0.02 0.02 0.02 0.03 0.03 0.04 0.05 0.05 0.04 0.02 0.01 0.01 0.01 0.01 0.03 0.06 0.11 0.20 0.23 0.28 0.35 0.40 0.44 0.46 0.44 0.38 0.32
0.00 0.00 0.00 0.00 0.00 0.00 0.01 0.01 0.00 0.00 0.00 0.01 0.03 0.05 0.06 0.04 0.03 0.03 0.04 0.04 0.03 0.01 0.01 0.02 0.03 0.05 0.06 0.10 0.19 0.20 0.22 0.26 0.31 0.34 0.33 0.30 0.25 0.20
0.00 0.00 0.00 0.00 0.01 0.02 0.02 0.01 0.01 0.00 0.01 0.03 0.05 0.05 0.04 0.03 0.04 0.07 0.09 0.08 0.06 0.03 0.02 0.02 0.03 0.06 0.11 0.15 0.20 0.20 0.17 0.20 0.25 0.26 0.22 0.17 0.14 0.10
0.01 0.00 0.00 0.01 0.02 0.02 0.02 0.02 0.03 0.03 0.02 0.02 0.01 0.01 0.01 0.02 0.05 0.08 0.12 0.14 0.12 0.09 0.06 0.06 0.08 0.11 0.17 0.18 0.19 0.19 0.17 0.19 0.20 0.19 0.15 0.12 0.09 0.06
0.02 0.01 0.00 0.02 0.02 0.02 0.02 0.03 0.04 0.04 0.02 0.01 0.01 0.00 0.00 0.01 0.01 0.03 0.06 0.12 0.15 0.12 0.08 0.11 0.13 0.15 0.17 0.20 0.22 0.23 0.20 0.17 0.15 0.14 0.12 0.09 0.07 0.04
0.02 0.01 0.02 0.02 0.02 0.01 0.01 0.02 0.02 0.03 0.02 0.02 0.02 0.01 0.01 0.01 0.01 0.01 0.03 0.06 0.13 0.13 0.10 0.12 0.13 0.15 0.18 0.23 0.28 0.30 0.23 0.16 0.12 0.11 0.08 0.07 0.06 0.04
0.02 0.03 0.03 0.01 0.01 0.00 0.00 0.01 0.01 0.01 0.03 0.05 0.04 0.02 0.01 0.01 0.02 0.03 0.05 0.08 0.14 0.16 0.16 0.16 0.18 0.21 0.24 0.26 0.26 0.27 0.23 0.17 0.11 0.08 0.06 0.05 0.03 0.02
0.05 0.04 0.01 0.00 0.00 0.00 0.00 0.00 0.00 0.01 0.04 0.07 0.06 0.03 0.01 0.02 0.03 0.07 0.11 0.14 0.17 0.18 0.19 0.22 0.23 0.21 0.22 0.22 0.20 0.20 0.17 0.14 0.10 0.06 0.03 0.02 0.01 0.00
0.05 0.02 0.00 0.00 0.00 0.00 0.00 0.00 0.00 0.00 0.01 0.03 0.05 0.04 0.03 0.03 0.06 0.11 0.17 0.20 0.20 0.20 0.21 0.20 0.16 0.12 0.11 0.12 0.13 0.12 0.10 0.07 0.04 0.02 0.01 0.00 0.00 0.00
0.01 0.00 0.00 0.00 0.00 0.01 0.01 0.01 0.00 0.00 0.02 0.05 0.06 0.06 0.06 0.07 0.09 0.13 0.19 0.22 0.22 0.22 0.22 0.17 0.12 0.08 0.06 0.05 0.05 0.05 0.03 0.02 0.01 0.00 0.00 0.00 0.00 0.00
0.00 0.01 0.01 0.01 0.01 0.01 0.01 0.01 0.01 0.01 0.03 0.07 0.09 0.09 0.09 0.09 0.11 0.15 0.20 0.22 0.22 0.20 0.14 0.08 0.05 0.04 0.03 0.02 0.01 0.00 0.01 0.00 0.00 0.00 0.00 0.00 0.00 0.00
0.01 0.02 0.01 0.00 0.01 0.01 0.01 0.01 0.01 0.02 0.05 0.09 0.11 0.11 0.11 0.12 0.14 0.17 0.21 0.21 0.16 0.09 0.04 0.02 0.01 0.01 0.00 0.00 0.00 0.00 0.00 0.00 0.00 0.00 0.00 0.00 0.00 0.00
0.02 0.01 0.00 0.00 0.01 0.01 0.01 0.01 0.03 0.05 0.08 0.12 0.14 0.16 0.16 0.17 0.18 0.20 0.20 0.14 0.06 0.02 0.01 0.00 0.01 0.00 0.00 0.00 0.00 0.00 0.00 0.00 0.00 0.00 0.00 0.01 0.01 0.01
0.01 0.01 0.00 0.00 0.01 0.01 0.01 0.02 0.04 0.07 0.10 0.14 0.18 0.21 0.22 0.21 0.19 0.15 0.08 0.03 0.01 0.01 0.00 0.00 0.00 0.00 0.00 0.00 0.00 0.00 0.00 0.00 0.00 0.00 0.01 0.01 0.01 0.01
0.01 0.01 0.01 0.01 0.01 0.01 0.02 0.04 0.06 0.10 0.14 0.18 0.21 0.22 0.19 0.13 0.07 0.03 0.02 0.01 0.00 0.00 0.00 0.00 0.00 0.00 0.00 0.00 0.00 0.00 0.00 0.00 0.01 0.01 0.02 0.02 0.01 0.01

GEFSNE_prec_meanprecacc_012.txt.gz
Total_Precipitation_Accumulation
0.00 0.00 0.00 0.00 0.00 0.00 0.02 0.06 0.10 0.06 0.02 0.01 0.02 0.03 0.04 0.04 0.03 0.05 0.04 0.04 0.05 0.06 0.07 0.08 0.08 0.09 0.10 0.11 0.15 0.21 0.28 0.32 0.36 0.39 0.43 0.44 0.43 0.41
0.00 0.00 0.00 0.00 0.00 0.00 0.01 0.02 0.06 0.08 0.04 0.01 0.01 0.03 0.06 0.06 0.05 0.06 0.07 0.09 0.11 0.11 0.11 0.11 0.12 0.15 0.16 0.16 0.15 0.18 0.24 0.29 0.31 0.31 0.32 0.34 0.35 0.36
0.00 0.00 0.00 0.00 0.00 0.00 0.00 0.01 0.01 0.04 0.05 0.01 0.00 0.01 0.04 0.05 0.05 0.06 0.06 0.06 0.06 0.08 0.10 0.11 0.12 0.15 0.18 0.19 0.19 0.19 0.22 0.27 0.30 0.31 0.33 0.35 0.35 0.34
0.00 0.00 0.00 0.00 0.00 0.00 0.00 0.00 0.00 0.02 0.04 0.03 0.00 0.00 0.01 0.03 0.04 0.04 0.05 0.06 0.05 0.06 0.09 0.11 0.13 0.16 0.19 0.20 0.19 0.20 0.21 0.23 0.25 0.27 0.30 0.32 0.34 0.37
0.00 0.00 0.00 0.00 0.00 0.00 0.00 0.00 0.01 0.01 0.02 0.04 0.02 0.01 0.01 0.02 0.03 0.03 0.04 0.05 0.05 0.07 0.08 0.10 0.14 0.17 0.18 0.19 0.18 0.18 0.18 0.19 0.22 0.25 0.29 0.34 0.38 0.40
0.00 0.00 0.00 0.00 0.00 0.00 0.00 0.01 0.01 0.02 0.02 0.04 0.04 0.03 0.02 0.02 0.04 0.04 0.04 0.04 0.05 0.05 0.05 0.06 0.07 0.09 0.10 0.12 0.16 0.17 0.19 0.22 0.27 0.32 0.37 0.40 0.42 0.43
0.00 0.00 0.00 0.00 0.00 0.00 0.01 0.01 0.02 0.03 0.04 0.05 0.04 0.04 0.03 0.04 0.05 0.06 0.07 0.06 0.04 0.03 0.03 0.02 0.03 0.04 0.05 0.09 0.14 0.19 0.23 0.29 0.35 0.44 0.52 0.58 0.59 0.57
0.00 0.00 0.00 0.00 0.00 0.01 0.01 0.02 0.03 0.05 0.07 0.06 0.04 0.04 0.03 0.03 0.05 0.08 0.10 0.11 0.08 0.03 0.04 0.03 0.02 0.04 0.07 0.11 0.18 0.21 0.25 0.30 0.36 0.44 0.51 0.54 0.56 0.61
0.00 0.00 0.00 0.00 0.01 0.01 0.01 0.02 0.04 0.04 0.04 0.04 0.05 0.05 0.06 0.08 0.12 0.15 0.14 0.11 0.06 0.03 0.03 0.04 0.03 0.04 0.07 0.13 0.22 0.25 0.29 0.36 0.41 0.45 0.48 0.50 0.50 0.52
0.00 0.00 0.00 0.01 0.01 0.02 0.04 0.05 0.03 0.01 0.01 0.02 0.05 0.09 0.10 0.10 0.10 0.11 0.10 0.08 0.05 0.03 0.04 0.07 0.06 0.07 0.08 0.12 0.22 0.22 0.23 0.27 0.32 0.36 0.36 0.36 0.36 0.39
0.00 0.00 0.02 0.02 0.02 0.06 0.09 0.06 0.02 0.01 0.01 0.04 0.07 0.07 0.06 0.05 0.06 0.13 0.19 0.20 0.13 0.05 0.04 0.07 0.06 0.09 0.13 0.16 0.21 0.22 0.18 0.21 0.27 0.30 0.28 0.25 0.25 0.28
0.01 0.01 0.01 0.02 0.05 0.10 0.08 0.05 0.04 0.03 0.03 0.03 0.02 0.01 0.01 0.02 0.06 0.15 0.30 0.36 0.24 0.13 0.08 0.11 0.12 0.15 0.21 0.19 0.19 0.20 0.20 0.24 0.26 0.26 0.24 0.23 0.22 0.19
0.04 0.02 0.01 0.05 0.08 0.07 0.04 0.04 0.05 0.06 0.04 0.02 0.01 0.01 0.01 0.02 0.03 0.06 0.16 0.34 0.36 0.22 0.11 0.17 0.18 0.18 0.21 0.22 0.23 0.24 0.25 0.28 0.30 0.30 0.28 0.25 0.20 0.14
0.04 0.02 0.03 0.07 0.05 0.02 0.02 0.02 0.04 0.04 0.02 0.02 0.02 0.02 0.02 0.02 0.02 0.04 0.06 0.14 0.25 0.25 0.15 0.19 0.21 0.18 0.23 0.27 0.30 0.32 0.30 0.32 0.35 0.34 0.30 0.28 0.24 0.19
0.04 0.06 0.06 0.03 0.01 0.01 0.01 0.01 0.02 0.02 0.04 0.07 0.06 0.03 0.02 0.03 0.03 0.04 0.06 0.11 0.17 0.21 0.21 0.21 0.24 0.26 0.31 0.32 0.30 0.32 0.35 0.38 0.39 0.37 0.28 0.21 0.17 0.15
0.08 0.07 0.02 0.00 0.00 0.00 0.00 0.00 0.01 0.01 0.05 0.11 0.09 0.05 0.02 0.03 0.05 0.09 0.15 0.19 0.22 0.23 0.25 0.28 0.29 0.30 0.30 0.30 0.29 0.29 0.33 0.39 0.39 0.35 0.26 0.18 0.13 0.09
0.07 0.02 0.00 0.00 0.00 0.00 0.00 0.00 0.00 0.01 0.02 0.05 0.08 0.07 0.05 0.05 0.08 0.15 0.24 0.29 0.30 0.29 0.30 0.28 0.24 0.22 0.24 0.24 0.25 0.26 0.27 0.32 0.32 0.28 0.22 0.18 0.16 0.10
0.02 0.00 0.01 0.01 0.01 0.01 0.01 0.01 0.01 0.01 0.04 0.08 0.10 0.10 0.11 0.12 0.14 0.19 0.29 0.34 0.34 0.34 0.32 0.28 0.22 0.19 0.18 0.18 0.21 0.23 0.23 0.26 0.27 0.22 0.14 0.11 0.13 0.11
0.01 0.02 0.02 0.02 0.01 0.01 0.02 0.02 0.02 0.02 0.06 0.13 0.16 0.16 0.16 0.17 0.21 0.26 0.32 0.35 0.34 0.31 0.23 0.15 0.11 0.11 0.13 0.12 0.13 0.15 0.15 0.17 0.15 0.13 0.10 0.06 0.06 0.07
0.02 0.03 0.02 0.01 0.01 0.02 0.03 0.03 0.04 0.06 0.10 0.16 0.19 0.20 0.22 0.24 0.26 0.30 0.33 0.32 0.26 0.16 0.08 0.03 0.03 0.03 0.04 0.05 0.05 0.06 0.07 0.07 0.05 0.04 0.04 0.03 0.03 0.02
0.03 0.02 0.01 0.01 0.02 0.02 0.03 0.05 0.07 0.12 0.16 0.22 0.24 0.26 0.28 0.29 0.29 0.29 0.27 0.20 0.10 0.04 0.02 0.01 0.01 0.01 0.01 0.01 0.01 0.01 0.01 0.01 0.01 0.01 0.01 0.02 0.02 0.02
0.02 0.02 0.01 0.01 0.02 0.03 0.05 0.07 0.11 0.14 0.19 0.23 0.27 0.30 0.31 0.29 0.24 0.18 0.11 0.05 0.02 0.01 0.01 0.00 0.00 0.00 0.00 0.00 0.00 0.00 0.00 0.00 0.00 0.00 0.01 0.01 0.01 0.01
0.02 0.02 0.02 0.02 0.02 0.04 0.07 0.09 0.14 0.18 0.23 0.27 0.29 0.27 0.23 0.15 0.08 0.04 0.02 0.01 0.01 0.01 0.01 0.01 0.01 0.01 0.01 0.01 0.01 0.01 0.01 0.01 0.01 0.02 0.03 0.02 0.02 0.02

GEFSNE_prec_meanprecacc_018.txt.gz
Total_Precipitation_Accumulation
0.00 0.00 0.00 0.00 0.00 0.00 0.02 0.06 0.10 0.06 0.02 0.01 0.02 0.03 0.04 0.04 0.03 0.05 0.04 0.04 0.05 0.06 0.07 0.08 0.08 0.09 0.10 0.11 0.15 0.22 0.29 0.33 0.37 0.42 0.47 0.51 0.54 0.61
0.00 0.00 0.00 0.00 0.00 0.00 0.01 0.02 0.06 0.08 0.04 0.01 0.01 0.03 0.06 0.06 0.05 0.06 0.07 0.09 0.11 0.11 0.11 0.11 0.12 0.15 0.16 0.16 0.16 0.18 0.24 0.30 0.32 0.33 0.36 0.39 0.43 0.48
0.00 0.00 0.00 0.00 0.00 0.00 0.00 0.01 0.01 0.04 0.05 0.01 0.00 0.01 0.04 0.05 0.05 0.06 0.06 0.06 0.06 0.08 0.10 0.11 0.12 0.16 0.18 0.20 0.20 0.20 0.23 0.28 0.32 0.34 0.37 0.40 0.42 0.42
0.00 0.00 0.00 0.00 0.00 0.00 0.00 0.00 0.00 0.02 0.05 0.04 0.01 0.00 0.01 0.03 0.04 0.04 0.05 0.06 0.05 0.06 0.09 0.11 0.13 0.17 0.20 0.21 0.21 0.21 0.22 0.25 0.27 0.29 0.32 0.35 0.38 0.43
0.00 0.00 0.00 0.00 0.00 0.00 0.00 0.00 0.01 0.02 0.04 0.06 0.03 0.01 0.01 0.02 0.03 0.03 0.04 0.05 0.05 0.07 0.08 0.11 0.15 0.18 0.20 0.21 0.21 0.20 0.20 0.22 0.24 0.27 0.31 0.36 0.40 0.43
0.00 0.00 0.00 0.00 0.00 0.00 0.00 0.01 0.02 0.04 0.05 0.07 0.07 0.05 0.04 0.03 0.04 0.04 0.04 0.04 0.05 0.05 0.05 0.06 0.09 0.11 0.12 0.15 0.18 0.19 0.20 0.24 0.29 0.34 0.38 0.42 0.44 0.45
0.00 0.00 0.00 0.00 0.00 0.01 0.02 0.03 0.04 0.06 0.08 0.09 0.08 0.08 0.06 0.06 0.06 0.06 0.07 0.06 0.04 0.04 0.04 0.03 0.04 0.05 0.06 0.09 0.14 0.19 0.24 0.30 0.37 0.46 0.55 0.60 0.61 0.58
0.00 0.00 0.00 0.00 0.00 0.01 0.02 0.04 0.06 0.09 0.11 0.13 0.12 0.10 0.05 0.04 0.06 0.09 0.12 0.13 0.09 0.04 0.05 0.03 0.03 0.04 0.07 0.11 0.19 0.24 0.28 0.34 0.40 0.47 0.54 0.56 0.58 0.62
0.00 0.00 0.00 0.00 0.01 0.01 0.02 0.04 0.06 0.08 0.09 0.10 0.09 0.07 0.07 0.09 0.13 0.18 0.16 0.14 0.09 0.04 0.05 0.06 0.04 0.06 0.08 0.14 0.24 0.28 0.33 0.40 0.44 0.48 0.51 0.52 0.52 0.53
0.00 0.00 0.00 0.01 0.01 0.03 0.06 0.08 0.05 0.03 0.02 0.03 0.06 0.10 0.12 0.11 0.12 0.14 0.13 0.12 0.07 0.04 0.07 0.13 0.09 0.10 0.09 0.13 0.23 0.25 0.27 0.33 0.39 0.42 0.41 0.39 0.38 0.41
0.00 0.01 0.02 0.02 0.03 0.09 0.13 0.09 0.04 0.01 0.01 0.04 0.08 0.09 0.07 0.06 0.07 0.16 0.24 0.26 0.17 0.06 0.06 0.11 0.09 0.11 0.15 0.17 0.22 0.26 0.26 0.29 0.33 0.35 0.32 0.28 0.27 0.29
0.02 0.02 0.02 0.03 0.08 0.14 0.11 0.08 0.06 0.04 0.04 0.03 0.02 0.01 0.01 0.02 0.07 0.17 0.37 0.48 0.33 0.17 0.09 0.16 0.17 0.20 0.26 0.20 0.21 0.23 0.23 0.27 0.29 0.29 0.26 0.25 0.24 0.20
0.05 0.02 0.02 0.06 0.11 0.10 0.07 0.05 0.06 0.08 0.06 0.03 0.01 0.01 0.01 0.02 0.04 0.07 0.19 0.44 0.50 0.30 0.12 0.23 0.28 0.23 0.28 0.25 0.24 0.25 0.27 0.33 0.37 0.38 0.35 0.30 0.24 0.17
0.05 0.03 0.05 0.10 0.07 0.04 0.02 0.03 0.06 0.06 0.03 0.03 0.03 0.03 0.03 0.03 0.03 0.04 0.07 0.15 0.30 0.32 0.19 0.28 0.37 0.29 0.31 0.31 0.31 0.32 0.32 0.40 0.52 0.57 0.54 0.47 0.38 0.32
0.06 0.09 0.09 0.05 0.02 0.01 0.01 0.02 0.03 0.02 0.05 0.09 0.08 0.04 0.03 0.03 0.04 0.06 0.08 0.12 0.19 0.23 0.25 0.30 0.35 0.34 0.37 0.37 0.32 0.34 0.40 0.49 0.64 0.74 0.64 0.49 0.39 0.35
0.10 0.09 0.04 0.01 0.00 0.00 0.01 0.00 0.01 0.02 0.07 0.14 0.12 0.06 0.03 0.04 0.06 0.12 0.20 0.23 0.28 0.27 0.29 0.33 0.35 0.36 0.35 0.33 0.32 0.33 0.41 0.55 0.69 0.80 0.66 0.48 0.38 0.33
0.10 0.03 0.00 0.00 0.01 0.01 0.00 0.00 0.01 0.01 0.04 0.08 0.11 0.10 0.07 0.08 0.10 0.18 0.31 0.38 0.41 0.38 0.36 0.32 0.28 0.27 0.30 0.31 0.32 0.33 0.37 0.49 0.62 0.70 0.56 0.43 0.40 0.34
0.04 0.01 0.01 0.02 0.02 0.02 0.02 0.02 0.01 0.03 0.07 0.12 0.14 0.15 0.16 0.17 0.19 0.24 0.37 0.45 0.45 0.42 0.39 0.34 0.27 0.24 0.26 0.28 0.32 0.36 0.37 0.47 0.56 0.55 0.35 0.24 0.30 0.30
0.01 0.02 0.03 0.02 0.02 0.02 0.03 0.04 0.04 0.04 0.10 0.18 0.22 0.22 0.23 0.23 0.28 0.33 0.40 0.42 0.41 0.36 0.28 0.21 0.18 0.20 0.22 0.23 0.25 0.32 0.35 0.38 0.36 0.35 0.26 0.15 0.19 0.23
0.03 0.04 0.03 0.02 0.02 0.04 0.05 0.07 0.08 0.09 0.13 0.20 0.24 0.25 0.28 0.31 0.33 0.36 0.39 0.38 0.30 0.20 0.11 0.06 0.07 0.12 0.16 0.19 0.22 0.31 0.32 0.26 0.19 0.18 0.18 0.15 0.17 0.17
0.04 0.03 0.02 0.02 0.03 0.05 0.07 0.09 0.12 0.16 0.21 0.27 0.29 0.30 0.32 0.34 0.34 0.34 0.31 0.24 0.14 0.07 0.05 0.03 0.03 0.05 0.09 0.10 0.13 0.20 0.27 0.25 0.14 0.12 0.11 0.09 0.10 0.11
0.03 0.03 0.02 0.02 0.04 0.07 0.10 0.12 0.15 0.18 0.22 0.27 0.31 0.33 0.34 0.34 0.29 0.22 0.14 0.08 0.05 0.05 0.04 0.03 0.02 0.01 0.03 0.04 0.07 0.10 0.13 0.15 0.12 0.07 0.04 0.03 0.04 0.06
0.03 0.03 0.03 0.04 0.06 0.09 0.12 0.14 0.18 0.21 0.26 0.30 0.32 0.31 0.27 0.20 0.12 0.07 0.05 0.04 0.05 0.05 0.04 0.03 0.02 0.02 0.02 0.02 0.03 0.05 0.06 0.06 0.06 0.05 0.06 0.04 0.04 0.04

GEFSNE_prec_meanprecacc_024.txt.gz
Total_Precipitation_Accumulation
0.00 0.00 0.00 0.00 0.00 0.00 0.02 0.06 0.10 0.06 0.02 0.01 0.02 0.03 0.04 0.04 0.03 0.05 0.04 0.04 0.05 0.06 0.08 0.09 0.09 0.10 0.12 0.13 0.18 0.24 0.31 0.36 0.40 0.45 0.50 0.54 0.57 0.64
0.00 0.00 0.00 0.00 0.00 0.00 0.01 0.02 0.06 0.08 0.04 0.01 0.01 0.03 0.06 0.06 0.05 0.06 0.07 0.09 0.11 0.11 0.11 0.12 0.14 0.17 0.19 0.18 0.18 0.21 0.27 0.34 0.37 0.39 0.42 0.45 0.49 0.54
0.00 0.00 0.00 0.00 0.00 0.00 0.00 0.01 0.01 0.04 0.05 0.01 0.00 0.01 0.04 0.05 0.05 0.06 0.06 0.06 0.06 0.08 0.11 0.13 0.14 0.18 0.20 0.22 0.22 0.23 0.27 0.32 0.37 0.40 0.44 0.47 0.49 0.49
0.00 0.00 0.00 0.00 0.00 0.00 0.00 0.00 0.00 0.02 0.05 0.04 0.01 0.00 0.01 0.03 0.04 0.04 0.05 0.06 0.06 0.06 0.10 0.13 0.15 0.18 0.21 0.22 0.23 0.24 0.25 0.28 0.32 0.34 0.37 0.41 0.45 0.50
0.00 0.00 0.00 0.00 0.00 0.00 0.00 0.00 0.01 0.02 0.04 0.08 0.04 0.02 0.02 0.02 0.03 0.03 0.04 0.05 0.06 0.07 0.08 0.11 0.15 0.19 0.21 0.23 0.23 0.23 0.23 0.25 0.28 0.32 0.35 0.40 0.45 0.48
0.00 0.00 0.00 0.00 0.00 0.00 0.00 0.01 0.03 0.04 0.05 0.08 0.09 0.07 0.05 0.03 0.05 0.06 0.05 0.05 0.05 0.05 0.05 0.06 0.09 0.11 0.13 0.15 0.19 0.20 0.22 0.25 0.31 0.37 0.42 0.46 0.48 0.49
0.00 0.00 0.00 0.00 0.00 0.01 0.02 0.04 0.05 0.07 0.11 0.14 0.13 0.10 0.07 0.07 0.07 0.07 0.08 0.06 0.04 0.04 0.04 0.03 0.04 0.05 0.06 0.09 0.15 0.19 0.25 0.33 0.42 0.52 0.62 0.67 0.67 0.64
0.00 0.00 0.00 0.00 0.00 0.02 0.03 0.05 0.09 0.14 0.19 0.20 0.17 0.12 0.06 0.04 0.06 0.10 0.14 0.16 0.11 0.04 0.06 0.04 0.03 0.04 0.07 0.12 0.19 0.25 0.31 0.38 0.45 0.52 0.59 0.61 0.63 0.67
0.00 0.00 0.00 0.00 0.01 0.01 0.02 0.06 0.09 0.13 0.14 0.14 0.12 0.08 0.08 0.10 0.16 0.22 0.20 0.18 0.11 0.04 0.06 0.06 0.04 0.06 0.08 0.14 0.25 0.29 0.35 0.42 0.47 0.51 0.54 0.55 0.54 0.56
0.00 0.00 0.00 0.01 0.02 0.04 0.08 0.10 0.07 0.05 0.04 0.05 0.07 0.11 0.13 0.13 0.15 0.19 0.17 0.14 0.08 0.04 0.07 0.14 0.10 0.10 0.09 0.13 0.23 0.25 0.29 0.36 0.43 0.47 0.46 0.43 0.42 0.44
0.00 0.01 0.03 0.03 0.04 0.12 0.17 0.15 0.07 0.02 0.02 0.06 0.10 0.10 0.08 0.07 0.09 0.19 0.29 0.31 0.20 0.06 0.06 0.12 0.10 0.11 0.15 0.17 0.22 0.26 0.27 0.31 0.37 0.39 0.36 0.32 0.31 0.33
0.02 0.02 0.03 0.04 0.10 0.18 0.16 0.13 0.08 0.04 0.06 0.05 0.03 0.01 0.01 0.02 0.07 0.20 0.45 0.60 0.40 0.20 0.09 0.17 0.19 0.23 0.30 0.21 0.21 0.23 0.24 0.29 0.32 0.32 0.30 0.27 0.26 0.23
0.06 0.03 0.02 0.08 0.15 0.15 0.10 0.06 0.07 0.11 0.08 0.03 0.01 0.01 0.01 0.02 0.04 0.08 0.23 0.57 0.66 0.39 0.14 0.30 0.37 0.28 0.34 0.27 0.24 0.25 0.29 0.37 0.43 0.44 0.41 0.34 0.26 0.19
0.06 0.04 0.06 0.13 0.11 0.06 0.03 0.04 0.08 0.07 0.03 0.03 0.03 0.03 0.03 0.03 0.03 0.05 0.08 0.19 0.39 0.44 0.26 0.39 0.51 0.37 0.39 0.35 0.32 0.33 0.36 0.50 0.70 0.74 0.69 0.57 0.44 0.36
0.07 0.10 0.12 0.07 0.03 0.01 0.01 0.03 0.03 0.02 0.06 0.11 0.09 0.05 0.03 0.04 0.05 0.07 0.08 0.12 0.20 0.24 0.28 0.36 0.46 0.43 0.44 0.42 0.37 0.38 0.48 0.60 0.88 1.03 0.92 0.72 0.53 0.42
0.11 0.12 0.05 0.01 0.00 0.00 0.01 0.00 0.01 0.02 0.10 0.17 0.15 0.08 0.04 0.05 0.08 0.15 0.23 0.26 0.30 0.28 0.29 0.35 0.40 0.42 0.40 0.36 0.39 0.43 0.56 0.77 0.97 1.15 1.01 0.76 0.58 0.47
0.12 0.04 0.00 0.00 0.01 0.01 0.00 0.00 0.01 0.02 0.05 0.10 0.14 0.13 0.09 0.09 0.11 0.20 0.35 0.43 0.46 0.41 0.38 0.33 0.29 0.28 0.32 0.35 0.40 0.46 0.57 0.77 0.95 1.06 0.86 0.69 0.68 0.60
0.04 0.01 0.01 0.02 0.02 0.02 0.02 0.02 0.02 0.04 0.08 0.15 0.17 0.18 0.19 0.20 0.21 0.26 0.40 0.50 0.50 0.46 0.43 0.37 0.29 0.25 0.27 0.31 0.44 0.57 0.61 0.76 0.86 0.80 0.52 0.41 0.56 0.57
0.01 0.03 0.03 0.03 0.03 0.03 0.04 0.06 0.06 0.06 0.12 0.21 0.25 0.26 0.26 0.26 0.30 0.36 0.43 0.46 0.44 0.40 0.32 0.25 0.22 0.24 0.26 0.27 0.30 0.50 0.61 0.62 0.56 0.51 0.39 0.29 0.42 0.49
0.03 0.05 0.04 0.03 0.03 0.05 0.07 0.09 0.10 0.10 0.15 0.22 0.27 0.28 0.31 0.34 0.36 0.39 0.43 0.42 0.35 0.23 0.13 0.08 0.10 0.17 0.25 0.28 0.31 0.48 0.52 0.45 0.32 0.31 0.31 0.29 0.37 0.39
0.04 0.03 0.03 0.03 0.05 0.07 0.09 0.11 0.14 0.18 0.23 0.30 0.31 0.33 0.35 0.38 0.37 0.37 0.35 0.27 0.17 0.10 0.07 0.05 0.07 0.11 0.15 0.14 0.18 0.31 0.43 0.40 0.25 0.22 0.21 0.18 0.21 0.23
0.03 0.03 0.03 0.03 0.06 0.09 0.12 0.14 0.17 0.20 0.24 0.29 0.33 0.36 0.37 0.37 0.34 0.27 0.18 0.11 0.08 0.08 0.06 0.04 0.04 0.04 0.06 0.08 0.13 0.18 0.24 0.25 0.20 0.13 0.10 0.08 0.10 0.19
0.04 0.04 0.04 0.05 0.08 0.11 0.14 0.16 0.19 0.23 0.28 0.33 0.35 0.33 0.30 0.25 0.17 0.12 0.09 0.08 0.07 0.07 0.05 0.04 0.03 0.03 0.04 0.05 0.07 0.10 0.12 0.12 0.09 0.11 0.17 0.13 0.11 0.13

GEFSNE_prec_meanprecacc_030.txt.gz
Total_Precipitation_Accumulation
0.00 0.00 0.00 0.00 0.00 0.00 0.02 0.06 0.10 0.06 0.02 0.01 0.02 0.03 0.04 0.04 0.03 0.05 0.04 0.04 0.05 0.07 0.09 0.10 0.10 0.12 0.13 0.16 0.21 0.28 0.35 0.41 0.46 0.51 0.56 0.60 0.63 0.70
0.00 0.00 0.00 0.00 0.00 0.00 0.01 0.02 0.06 0.08 0.04 0.01 0.01 0.03 0.06 0.06 0.05 0.06 0.07 0.09 0.11 0.11 0.12 0.13 0.16 0.19 0.21 0.22 0.22 0.25 0.33 0.40 0.43 0.46 0.50 0.54 0.58 0.64
0.00 0.00 0.00 0.00 0.00 0.00 0.00 0.01 0.01 0.04 0.05 0.01 0.00 0.01 0.04 0.05 0.05 0.06 0.06 0.06 0.07 0.09 0.12 0.14 0.16 0.20 0.23 0.26 0.26 0.27 0.32 0.38 0.42 0.46 0.51 0.56 0.58 0.59
0.00 0.00 0.00 0.00 0.00 0.00 0.00 0.00 0.00 0.02 0.05 0.05 0.01 0.00 0.01 0.03 0.04 0.04 0.05 0.07 0.06 0.07 0.11 0.13 0.16 0.20 0.24 0.25 0.26 0.28 0.30 0.33 0.37 0.40 0.43 0.47 0.52 0.57
0.00 0.00 0.00 0.00 0.00 0.00 0.00 0.00 0.01 0.02 0.05 0.09 0.04 0.02 0.02 0.02 0.03 0.03 0.04 0.05 0.06 0.07 0.09 0.11 0.16 0.20 0.24 0.25 0.26 0.26 0.26 0.28 0.32 0.36 0.40 0.45 0.50 0.54
0.00 0.00 0.00 0.00 0.00 0.00 0.00 0.01 0.03 0.05 0.06 0.09 0.10 0.08 0.05 0.03 0.05 0.06 0.05 0.05 0.05 0.05 0.06 0.07 0.09 0.12 0.14 0.16 0.20 0.21 0.23 0.27 0.33 0.40 0.45 0.49 0.51 0.52
0.00 0.00 0.00 0.00 0.00 0.01 0.03 0.04 0.05 0.08 0.14 0.17 0.15 0.12 0.08 0.07 0.07 0.07 0.08 0.07 0.04 0.04 0.04 0.03 0.04 0.05 0.06 0.09 0.15 0.20 0.25 0.34 0.44 0.55 0.66 0.72 0.72 0.69
0.00 0.00 0.00 0.00 0.00 0.02 0.04 0.06 0.11 0.18 0.24 0.25 0.20 0.14 0.07 0.05 0.07 0.11 0.15 0.18 0.12 0.04 0.06 0.04 0.03 0.04 0.07 0.12 0.19 0.26 0.32 0.40 0.47 0.56 0.63 0.66 0.68 0.72
0.00 0.00 0.00 0.00 0.01 0.01 0.02 0.07 0.12 0.16 0.18 0.17 0.14 0.09 0.09 0.11 0.19 0.26 0.23 0.21 0.13 0.04 0.06 0.06 0.04 0.06 0.08 0.14 0.25 0.29 0.36 0.44 0.50 0.54 0.58 0.59 0.59 0.60
0.00 0.00 0.00 0.01 0.02 0.05 0.10 0.14 0.09 0.06 0.05 0.05 0.08 0.12 0.14 0.14 0.18 0.23 0.21 0.17 0.09 0.04 0.07 0.14 0.10 0.10 0.09 0.13 0.23 0.25 0.29 0.38 0.46 0.50 0.50 0.48 0.47 0.49
0.00 0.01 0.03 0.03 0.04 0.15 0.21 0.18 0.08 0.02 0.02 0.06 0.11 0.11 0.09 0.07 0.09 0.24 0.34 0.34 0.21 0.06 0.06 0.12 0.10 0.11 0.15 0.17 0.22 0.26 0.27 0.32 0.39 0.42 0.40 0.37 0.37 0.40
0.02 0.02 0.03 0.04 0.12 0.21 0.19 0.14 0.08 0.05 0.08 0.05 0.03 0.01 0.01 0.02 0.08 0.22 0.52 0.69 0.45 0.22 0.09 0.19 0.21 0.25 0.34 0.21 0.21 0.24 0.25 0.30 0.34 0.36 0.35 0.33 0.33 0.30
0.06 0.03 0.02 0.09 0.17 0.17 0.11 0.06 0.08 0.13 0.09 0.03 0.01 0.01 0.01 0.02 0.04 0.08 0.28 0.68 0.79 0.45 0.15 0.37 0.43 0.31 0.39 0.29 0.24 0.26 0.34 0.45 0.50 0.50 0.47 0.41 0.35 0.30
0.06 0.04 0.06 0.14 0.12 0.06 0.03 0.04 0.09 0.08 0.03 0.03 0.03 0.03 0.03 0.03 0.03 0.05 0.09 0.22 0.47 0.55 0.32 0.47 0.62 0.44 0.46 0.39 0.33 0.34 0.39 0.60 0.85 0.88 0.80 0.68 0.54 0.44
0.08 0.11 0.12 0.07 0.03 0.01 0.01 0.03 0.03 0.02 0.06 0.12 0.10 0.06 0.04 0.04 0.05 0.07 0.08 0.12 0.20 0.26 0.31 0.40 0.55 0.52 0.53 0.53 0.45 0.43 0.54 0.66 1.00 1.24 1.11 0.87 0.64 0.50
0.12 0.12 0.05 0.01 0.00 0.00 0.01 0.00 0.01 0.02 0.11 0.19 0.16 0.08 0.04 0.06 0.08 0.16 0.24 0.26 0.31 0.28 0.29 0.36 0.45 0.52 0.49 0.46 0.54 0.56 0.69 0.97 1.20 1.39 1.23 0.94 0.72 0.56
0.12 0.04 0.00 0.00 0.01 0.01 0.00 0.00 0.01 0.02 0.05 0.10 0.15 0.14 0.10 0.09 0.12 0.21 0.36 0.44 0.48 0.43 0.38 0.33 0.29 0.32 0.39 0.45 0.51 0.56 0.73 0.99 1.21 1.31 1.05 0.86 0.85 0.74
0.04 0.01 0.01 0.02 0.02 0.02 0.02 0.03 0.02 0.04 0.09 0.16 0.19 0.19 0.21 0.21 0.22 0.26 0.41 0.52 0.52 0.48 0.45 0.38 0.30 0.26 0.28 0.33 0.52 0.73 0.78 0.96 1.07 1.00 0.67 0.54 0.72 0.71
0.01 0.03 0.04 0.03 0.03 0.03 0.05 0.06 0.06 0.06 0.13 0.22 0.27 0.28 0.29 0.28 0.31 0.37 0.44 0.47 0.46 0.41 0.33 0.27 0.25 0.28 0.29 0.30 0.33 0.60 0.80 0.80 0.71 0.65 0.52 0.44 0.61 0.66
0.03 0.05 0.04 0.03 0.04 0.06 0.08 0.10 0.11 0.11 0.16 0.23 0.28 0.31 0.34 0.36 0.38 0.41 0.45 0.45 0.38 0.24 0.14 0.08 0.12 0.22 0.34 0.39 0.40 0.58 0.64 0.59 0.46 0.48 0.49 0.46 0.55 0.53
0.04 0.03 0.03 0.04 0.06 0.08 0.10 0.12 0.16 0.20 0.24 0.32 0.34 0.36 0.38 0.41 0.40 0.39 0.37 0.29 0.19 0.12 0.08 0.06 0.10 0.17 0.23 0.19 0.23 0.39 0.53 0.53 0.40 0.39 0.35 0.29 0.31 0.32
0.04 0.03 0.03 0.04 0.07 0.11 0.13 0.16 0.19 0.22 0.26 0.31 0.35 0.38 0.40 0.41 0.38 0.29 0.20 0.14 0.11 0.10 0.08 0.06 0.05 0.06 0.08 0.10 0.17 0.25 0.32 0.31 0.27 0.21 0.22 0.20 0.22 0.42
0.04 0.05 0.05 0.06 0.10 0.13 0.15 0.17 0.20 0.24 0.30 0.36 0.38 0.36 0.34 0.27 0.20 0.15 0.13 0.11 0.10 0.08 0.06 0.04 0.04 0.04 0.07 0.08 0.11 0.14 0.16 0.16 0.13 0.16 0.31 0.30 0.29 0.36

GEFSNE_prec_meanprecacc_036.txt.gz
Total_Precipitation_Accumulation
0.00 0.00 0.00 0.00 0.00 0.00 0.02 0.06 0.10 0.06 0.02 0.01 0.02 0.03 0.04 0.04 0.03 0.05 0.04 0.04 0.05 0.08 0.10 0.11 0.11 0.13 0.16 0.19 0.24 0.32 0.40 0.46 0.51 0.56 0.62 0.66 0.69 0.76
0.00 0.00 0.00 0.00 0.00 0.00 0.01 0.02 0.06 0.08 0.04 0.01 0.01 0.03 0.06 0.06 0.05 0.06 0.07 0.09 0.11 0.12 0.13 0.14 0.17 0.21 0.23 0.24 0.25 0.29 0.37 0.45 0.49 0.53 0.57 0.63 0.67 0.73
0.00 0.00 0.00 0.00 0.00 0.00 0.00 0.01 0.01 0.04 0.05 0.01 0.00 0.01 0.04 0.05 0.05 0.06 0.06 0.06 0.07 0.09 0.13 0.15 0.17 0.22 0.26 0.28 0.29 0.31 0.36 0.43 0.48 0.53 0.59 0.64 0.68 0.69
0.00 0.00 0.00 0.00 0.00 0.00 0.00 0.00 0.00 0.02 0.06 0.06 0.01 0.00 0.01 0.03 0.04 0.04 0.05 0.07 0.06 0.07 0.11 0.14 0.17 0.21 0.25 0.27 0.29 0.31 0.34 0.38 0.42 0.46 0.49 0.54 0.59 0.65
0.00 0.00 0.00 0.00 0.00 0.00 0.00 0.00 0.01 0.02 0.05 0.09 0.05 0.02 0.02 0.02 0.04 0.03 0.04 0.05 0.06 0.07 0.09 0.11 0.16 0.21 0.25 0.27 0.28 0.28 0.29 0.31 0.35 0.39 0.43 0.49 0.54 0.59
0.00 0.00 0.00 0.00 0.00 0.00 0.00 0.02 0.04 0.05 0.06 0.10 0.11 0.09 0.06 0.03 0.05 0.06 0.05 0.05 0.05 0.05 0.06 0.07 0.09 0.12 0.14 0.17 0.20 0.22 0.23 0.28 0.34 0.42 0.47 0.52 0.54 0.55
0.00 0.00 0.00 0.00 0.00 0.01 0.03 0.05 0.06 0.09 0.16 0.21 0.18 0.13 0.08 0.07 0.07 0.07 0.09 0.07 0.04 0.04 0.04 0.03 0.04 0.05 0.06 0.09 0.15 0.20 0.25 0.34 0.45 0.57 0.68 0.75 0.75 0.73
0.00 0.00 0.00 0.00 0.00 0.02 0.04 0.06 0.12 0.20 0.27 0.28 0.22 0.15 0.07 0.05 0.07 0.12 0.17 0.19 0.13 0.04 0.06 0.04 0.03 0.04 0.07 0.12 0.19 0.26 0.33 0.41 0.49 0.58 0.66 0.69 0.72 0.76
0.00 0.00 0.00 0.00 0.01 0.01 0.02 0.08 0.13 0.18 0.20 0.19 0.15 0.09 0.09 0.12 0.21 0.29 0.25 0.23 0.14 0.04 0.06 0.06 0.04 0.06 0.08 0.14 0.25 0.29 0.36 0.44 0.51 0.56 0.60 0.62 0.62 0.64
0.00 0.00 0.00 0.01 0.02 0.05 0.11 0.16 0.10 0.06 0.05 0.05 0.08 0.12 0.15 0.15 0.20 0.26 0.23 0.18 0.09 0.04 0.07 0.14 0.10 0.10 0.09 0.13 0.23 0.25 0.29 0.38 0.47 0.52 0.52 0.51 0.50 0.52
0.00 0.01 0.03 0.03 0.05 0.16 0.24 0.20 0.09 0.02 0.02 0.06 0.12 0.11 0.09 0.07 0.10 0.26 0.36 0.36 0.22 0.06 0.06 0.12 0.10 0.11 0.15 0.17 0.22 0.26 0.27 0.33 0.41 0.45 0.43 0.41 0.41 0.45
0.02 0.02 0.03 0.05 0.12 0.23 0.21 0.16 0.08 0.05 0.09 0.06 0.03 0.01 0.01 0.02 0.08 0.23 0.56 0.75 0.48 0.23 0.09 0.20 0.22 0.27 0.37 0.21 0.21 0.24 0.25 0.30 0.35 0.37 0.38 0.38 0.38 0.39
0.06 0.03 0.02 0.09 0.19 0.19 0.12 0.06 0.08 0.15 0.11 0.03 0.01 0.01 0.01 0.02 0.04 0.08 0.29 0.75 0.87 0.49 0.16 0.41 0.48 0.33 0.43 0.31 0.24 0.26 0.34 0.46 0.51 0.50 0.48 0.44 0.40 0.40
0.07 0.04 0.06 0.15 0.13 0.07 0.03 0.04 0.10 0.09 0.03 0.03 0.03 0.03 0.03 0.03 0.04 0.05 0.09 0.23 0.50 0.60 0.35 0.53 0.70 0.49 0.52 0.43 0.34 0.34 0.39 0.61 0.86 0.90 0.84 0.72 0.58 0.50
0.08 0.12 0.13 0.08 0.03 0.01 0.01 0.03 0.03 0.02 0.06 0.12 0.10 0.06 0.04 0.04 0.06 0.08 0.09 0.13 0.20 0.26 0.31 0.42 0.61 0.58 0.61 0.61 0.51 0.45 0.55 0.67 1.01 1.28 1.18 0.94 0.71 0.56
0.12 0.13 0.05 0.01 0.00 0.00 0.01 0.00 0.01 0.02 0.11 0.20 0.16 0.09 0.05 0.06 0.09 0.16 0.25 0.27 0.32 0.28 0.29 0.36 0.48 0.60 0.57 0.50 0.61 0.61 0.74 1.05 1.26 1.46 1.30 1.02 0.79 0.63
0.13 0.04 0.00 0.00 0.01 0.01 0.00 0.00 0.01 0.02 0.06 0.11 0.16 0.15 0.10 0.10 0.12 0.21 0.37 0.46 0.49 0.43 0.39 0.33 0.30 0.34 0.42 0.47 0.52 0.58 0.77 1.03 1.27 1.39 1.14 0.94 0.91 0.81
0.05 0.01 0.01 0.02 0.02 0.02 0.02 0.03 0.02 0.04 0.09 0.17 0.20 0.21 0.22 0.22 0.23 0.27 0.42 0.53 0.53 0.48 0.45 0.38 0.31 0.27 0.28 0.33 0.53 0.76 0.83 1.01 1.13 1.06 0.74 0.64 0.81 0.78
0.01 0.03 0.04 0.03 0.03 0.03 0.05 0.07 0.07 0.06 0.14 0.24 0.29 0.30 0.31 0.29 0.33 0.38 0.45 0.48 0.46 0.42 0.34 0.27 0.27 0.31 0.32 0.30 0.33 0.62 0.88 0.88 0.77 0.71 0.60 0.57 0.78 0.78
0.03 0.05 0.04 0.03 0.04 0.06 0.08 0.11 0.12 0.11 0.16 0.25 0.30 0.33 0.36 0.39 0.40 0.42 0.46 0.47 0.40 0.26 0.14 0.09 0.14 0.27 0.42 0.47 0.46 0.61 0.68 0.69 0.57 0.60 0.58 0.52 0.62 0.61
0.04 0.04 0.03 0.04 0.06 0.09 0.11 0.13 0.17 0.21 0.26 0.34 0.36 0.38 0.41 0.44 0.42 0.40 0.38 0.30 0.21 0.14 0.09 0.07 0.11 0.20 0.27 0.23 0.26 0.41 0.54 0.57 0.51 0.54 0.46 0.34 0.34 0.36
0.04 0.04 0.03 0.04 0.08 0.12 0.14 0.17 0.20 0.23 0.28 0.33 0.37 0.41 0.43 0.45 0.41 0.32 0.23 0.17 0.13 0.12 0.10 0.06 0.05 0.06 0.08 0.12 0.18 0.27 0.34 0.33 0.29 0.25 0.29 0.33 0.39 0.65
0.04 0.05 0.05 0.07 0.11 0.14 0.17 0.18 0.22 0.26 0.33 0.39 0.41 0.39 0.37 0.31 0.23 0.18 0.15 0.14 0.13 0.10 0.07 0.05 0.04 0.05 0.07 0.09 0.13 0.16 0.18 0.17 0.14 0.17 0.34 0.37 0.43 0.58

GEFSNE_prec_meanprecacc_042.txt.gz
Total_Precipitation_Accumulation
0.00 0.00 0.00 0.00 0.00 0.00 0.02 0.06 0.10 0.06 0.02 0.01 0.02 0.03 0.04 0.04 0.03 0.05 0.04 0.04 0.05 0.08 0.10 0.11 0.12 0.14 0.17 0.20 0.26 0.34 0.43 0.49 0.55 0.60 0.66 0.71 0.74 0.81
0.00 0.00 0.00 0.00 0.00 0.00 0.01 0.02 0.06 0.08 0.04 0.01 0.01 0.03 0.06 0.06 0.05 0.06 0.07 0.09 0.11 0.12 0.13 0.14 0.17 0.21 0.24 0.26 0.27 0.32 0.40 0.48 0.53 0.57 0.63 0.69 0.74 0.80
0.00 0.00 0.00 0.00 0.00 0.00 0.00 0.01 0.01 0.04 0.05 0.01 0.00 0.01 0.04 0.05 0.05 0.06 0.06 0.06 0.07 0.09 0.13 0.15 0.17 0.22 0.26 0.29 0.31 0.33 0.38 0.45 0.51 0.57 0.63 0.70 0.74 0.75
0.00 0.00 0.00 0.00 0.00 0.00 0.00 0.00 0.00 0.02 0.06 0.06 0.01 0.00 0.01 0.03 0.04 0.04 0.05 0.07 0.06 0.07 0.11 0.14 0.17 0.22 0.26 0.28 0.30 0.32 0.36 0.40 0.45 0.48 0.53 0.57 0.63 0.70
0.00 0.00 0.00 0.00 0.00 0.00 0.00 0.00 0.01 0.02 0.06 0.10 0.05 0.02 0.02 0.02 0.04 0.03 0.04 0.05 0.06 0.07 0.09 0.11 0.16 0.21 0.25 0.28 0.29 0.29 0.30 0.32 0.36 0.41 0.45 0.51 0.56 0.61
0.00 0.00 0.00 0.00 0.00 0.00 0.00 0.02 0.04 0.05 0.07 0.10 0.12 0.09 0.06 0.03 0.06 0.06 0.05 0.05 0.05 0.05 0.06 0.07 0.09 0.12 0.14 0.17 0.20 0.22 0.24 0.28 0.35 0.43 0.49 0.53 0.56 0.57
0.00 0.00 0.00 0.00 0.00 0.01 0.03 0.05 0.06 0.10 0.16 0.22 0.19 0.14 0.09 0.08 0.07 0.07 0.09 0.07 0.05 0.04 0.04 0.03 0.04 0.05 0.06 0.09 0.15 0.20 0.26 0.35 0.45 0.58 0.70 0.77 0.78 0.75
0.00 0.00 0.00 0.00 0.00 0.02 0.04 0.07 0.13 0.21 0.29 0.31 0.25 0.16 0.08 0.05 0.07 0.12 0.17 0.20 0.14 0.04 0.06 0.04 0.03 0.04 0.07 0.12 0.19 0.26 0.33 0.41 0.49 0.59 0.67 0.71 0.74 0.79
0.00 0.00 0.00 0.00 0.01 0.01 0.02 0.08 0.14 0.19 0.22 0.21 0.16 0.10 0.10 0.12 0.22 0.30 0.26 0.24 0.15 0.04 0.06 0.07 0.04 0.06 0.08 0.14 0.25 0.29 0.36 0.45 0.51 0.57 0.61 0.64 0.64 0.66
0.00 0.00 0.00 0.01 0.02 0.05 0.12 0.17 0.11 0.07 0.06 0.06 0.09 0.12 0.15 0.15 0.20 0.28 0.25 0.19 0.09 0.04 0.07 0.14 0.10 0.10 0.09 0.13 0.23 0.25 0.29 0.38 0.47 0.53 0.53 0.52 0.52 0.55
0.00 0.01 0.03 0.03 0.05 0.17 0.25 0.22 0.10 0.03 0.02 0.07 0.12 0.11 0.10 0.08 0.10 0.26 0.37 0.38 0.23 0.07 0.06 0.12 0.10 0.11 0.15 0.17 0.22 0.26 0.27 0.33 0.41 0.45 0.44 0.42 0.43 0.48
0.02 0.02 0.03 0.05 0.13 0.24 0.23 0.18 0.09 0.05 0.09 0.06 0.03 0.01 0.01 0.02 0.08 0.23 0.56 0.79 0.52 0.25 0.09 0.21 0.23 0.28 0.38 0.22 0.21 0.24 0.25 0.30 0.35 0.37 0.38 0.39 0.40 0.43
0.06 0.03 0.02 0.10 0.20 0.20 0.14 0.07 0.09 0.15 0.11 0.03 0.01 0.01 0.01 0.02 0.04 0.08 0.29 0.78 0.93 0.53 0.16 0.45 0.53 0.35 0.46 0.32 0.24 0.26 0.34 0.46 0.51 0.50 0.48 0.44 0.42 0.45
0.07 0.04 0.07 0.15 0.14 0.08 0.04 0.04 0.10 0.09 0.03 0.03 0.03 0.03 0.03 0.04 0.04 0.05 0.09 0.24 0.52 0.62 0.36 0.58 0.79 0.53 0.57 0.46 0.34 0.34 0.39 0.61 0.86 0.90 0.84 0.73 0.59 0.52
0.08 0.12 0.14 0.09 0.03 0.01 0.01 0.03 0.04 0.02 0.06 0.12 0.10 0.06 0.04 0.05 0.06 0.08 0.09 0.13 0.21 0.27 0.31 0.43 0.65 0.64 0.67 0.67 0.54 0.46 0.56 0.67 1.02 1.29 1.18 0.95 0.72 0.58
0.13 0.13 0.06 0.01 0.00 0.00 0.01 0.00 0.01 0.02 0.11 0.20 0.16 0.09 0.05 0.06 0.09 0.16 0.26 0.28 0.33 0.28 0.29 0.37 0.49 0.65 0.64 0.55 0.64 0.63 0.74 1.06 1.27 1.46 1.31 1.03 0.81 0.66
0.14 0.04 0.00 0.00 0.01 0.01 0.00 0.00 0.01 0.02 0.06 0.11 0.16 0.15 0.10 0.10 0.12 0.21 0.38 0.47 0.51 0.44 0.39 0.33 0.30 0.35 0.45 0.51 0.55 0.59 0.77 1.04 1.27 1.40 1.16 0.96 0.93 0.83
0.05 0.01 0.01 0.02 0.02 0.02 0.02 0.03 0.02 0.04 0.10 0.18 0.21 0.22 0.23 0.23 0.24 0.27 0.42 0.55 0.55 0.49 0.46 0.39 0.32 0.28 0.28 0.33 0.53 0.76 0.83 1.02 1.14 1.07 0.77 0.70 0.85 0.80
0.01 0.03 0.04 0.03 0.03 0.03 0.05 0.07 0.07 0.06 0.14 0.25 0.30 0.32 0.33 0.31 0.34 0.39 0.46 0.50 0.48 0.42 0.34 0.28 0.29 0.36 0.36 0.32 0.33 0.62 0.90 0.91 0.79 0.72 0.61 0.62 0.84 0.83
0.03 0.05 0.04 0.04 0.04 0.07 0.09 0.11 0.13 0.12 0.17 0.26 0.31 0.34 0.39 0.41 0.42 0.44 0.47 0.49 0.42 0.27 0.15 0.09 0.15 0.33 0.52 0.55 0.50 0.61 0.68 0.73 0.64 0.66 0.61 0.54 0.64 0.63
0.04 0.04 0.03 0.04 0.07 0.09 0.12 0.14 0.18 0.23 0.27 0.36 0.38 0.40 0.44 0.48 0.44 0.42 0.40 0.32 0.23 0.16 0.11 0.08 0.11 0.22 0.32 0.27 0.29 0.41 0.54 0.58 0.56 0.65 0.57 0.42 0.39 0.39
0.04 0.04 0.03 0.04 0.09 0.13 0.16 0.18 0.22 0.24 0.30 0.36 0.40 0.43 0.46 0.48 0.45 0.34 0.25 0.19 0.15 0.14 0.12 0.07 0.05 0.07 0.10 0.15 0.21 0.28 0.34 0.33 0.29 0.26 0.35 0.46 0.58 0.86
0.05 0.05 0.05 0.07 0.12 0.15 0.18 0.19 0.23 0.28 0.35 0.42 0.44 0.42 0.40 0.34 0.25 0.21 0.18 0.17 0.16 0.13 0.09 0.06 0.04 0.05 0.08 0.11 0.14 0.17 0.19 0.18 0.15 0.18 0.35 0.40 0.50 0.71

GEFSNE_prec_meanprecacc_048.txt.gz
Total_Precipitation_Accumulation
0.01 0.00 0.00 0.00 0.00 0.00 0.02 0.06 0.10 0.06 0.02 0.01 0.02 0.03 0.04 0.04 0.03 0.05 0.04 0.04 0.05 0.08 0.11 0.12 0.12 0.15 0.18 0.22 0.28 0.37 0.46 0.52 0.59 0.65 0.71 0.76 0.81 0.88
0.01 0.00 0.00 0.00 0.00 0.00 0.01 0.02 0.06 0.08 0.04 0.01 0.01 0.03 0.06 0.06 0.05 0.06 0.07 0.09 0.11 0.12 0.13 0.15 0.18 0.22 0.25 0.27 0.29 0.34 0.43 0.51 0.57 0.62 0.69 0.76 0.82 0.88
0.00 0.00 0.00 0.00 0.00 0.00 0.00 0.01 0.01 0.04 0.05 0.01 0.00 0.01 0.04 0.05 0.05 0.06 0.06 0.06 0.07 0.09 0.13 0.15 0.18 0.23 0.27 0.30 0.32 0.35 0.41 0.49 0.55 0.61 0.68 0.75 0.80 0.81
0.00 0.00 0.01 0.01 0.00 0.00 0.00 0.00 0.01 0.02 0.06 0.06 0.01 0.00 0.01 0.03 0.04 0.04 0.05 0.07 0.06 0.07 0.11 0.14 0.17 0.22 0.26 0.29 0.31 0.34 0.38 0.42 0.47 0.51 0.55 0.61 0.67 0.74
0.01 0.01 0.01 0.01 0.00 0.00 0.00 0.00 0.01 0.02 0.06 0.10 0.05 0.02 0.02 0.02 0.04 0.03 0.04 0.05 0.06 0.07 0.09 0.11 0.16 0.21 0.25 0.28 0.29 0.30 0.31 0.33 0.37 0.42 0.47 0.53 0.59 0.64
0.01 0.01 0.00 0.00 0.00 0.00 0.00 0.02 0.04 0.05 0.07 0.10 0.12 0.09 0.06 0.03 0.06 0.06 0.05 0.05 0.05 0.05 0.06 0.07 0.09 0.12 0.14 0.17 0.20 0.22 0.24 0.28 0.36 0.44 0.51 0.56 0.58 0.60
0.01 0.00 0.00 0.00 0.00 0.01 0.03 0.05 0.06 0.10 0.16 0.22 0.20 0.14 0.09 0.08 0.07 0.07 0.09 0.07 0.05 0.04 0.04 0.03 0.04 0.05 0.06 0.09 0.15 0.20 0.26 0.35 0.47 0.60 0.72 0.79 0.80 0.78
0.00 0.00 0.00 0.00 0.00 0.02 0.04 0.07 0.13 0.21 0.29 0.31 0.25 0.17 0.08 0.05 0.07 0.12 0.17 0.21 0.14 0.04 0.06 0.04 0.03 0.04 0.07 0.12 0.19 0.26 0.33 0.42 0.50 0.60 0.69 0.73 0.76 0.81
0.00 0.00 0.00 0.00 0.01 0.01 0.02 0.08 0.14 0.19 0.22 0.22 0.17 0.10 0.10 0.12 0.22 0.31 0.28 0.26 0.16 0.04 0.06 0.07 0.04 0.06 0.08 0.14 0.25 0.29 0.36 0.45 0.52 0.58 0.62 0.65 0.65 0.68
0.00 0.00 0.00 0.01 0.02 0.05 0.12 0.17 0.11 0.07 0.06 0.06 0.09 0.13 0.15 0.16 0.21 0.30 0.27 0.21 0.10 0.04 0.07 0.14 0.10 0.10 0.09 0.13 0.23 0.25 0.29 0.38 0.47 0.53 0.53 0.53 0.53 0.57
0.00 0.01 0.03 0.03 0.05 0.17 0.26 0.22 0.10 0.03 0.02 0.07 0.12 0.12 0.10 0.08 0.11 0.27 0.37 0.39 0.24 0.07 0.06 0.12 0.10 0.11 0.15 0.17 0.22 0.26 0.27 0.33 0.41 0.45 0.44 0.42 0.44 0.49
0.02 0.02 0.03 0.05 0.13 0.25 0.23 0.18 0.10 0.06 0.09 0.06 0.03 0.01 0.01 0.02 0.08 0.23 0.57 0.82 0.55 0.27 0.09 0.22 0.24 0.29 0.40 0.22 0.21 0.24 0.25 0.30 0.35 0.37 0.38 0.39 0.41 0.43
0.06 0.03 0.02 0.10 0.20 0.21 0.15 0.07 0.09 0.16 0.11 0.03 0.01 0.01 0.01 0.02 0.04 0.08 0.30 0.81 0.98 0.56 0.17 0.49 0.58 0.37 0.50 0.33 0.24 0.26 0.34 0.46 0.51 0.50 0.48 0.44 0.42 0.46
0.07 0.04 0.07 0.16 0.15 0.09 0.04 0.04 0.10 0.10 0.03 0.03 0.03 0.03 0.03 0.04 0.04 0.05 0.09 0.24 0.54 0.64 0.36 0.62 0.88 0.58 0.62 0.49 0.34 0.34 0.39 0.61 0.86 0.90 0.84 0.73 0.60 0.53
0.08 0.12 0.14 0.09 0.04 0.01 0.01 0.03 0.04 0.02 0.06 0.12 0.10 0.06 0.04 0.05 0.06 0.08 0.09 0.13 0.21 0.27 0.32 0.44 0.69 0.68 0.73 0.71 0.56 0.47 0.56 0.67 1.02 1.29 1.18 0.95 0.72 0.59
0.13 0.13 0.06 0.01 0.00 0.00 0.01 0.00 0.01 0.02 0.11 0.20 0.17 0.09 0.05 0.06 0.09 0.16 0.26 0.29 0.34 0.28 0.29 0.37 0.49 0.68 0.69 0.57 0.67 0.64 0.74 1.06 1.27 1.46 1.31 1.03 0.81 0.66
0.14 0.04 0.00 0.00 0.01 0.01 0.00 0.00 0.01 0.02 0.06 0.11 0.17 0.16 0.11 0.10 0.12 0.21 0.39 0.48 0.52 0.45 0.39 0.33 0.30 0.35 0.46 0.53 0.57 0.60 0.77 1.04 1.27 1.40 1.17 0.97 0.93 0.83
0.05 0.01 0.01 0.02 0.02 0.02 0.02 0.03 0.02 0.04 0.10 0.18 0.21 0.22 0.24 0.24 0.24 0.27 0.43 0.56 0.57 0.50 0.46 0.39 0.32 0.29 0.29 0.33 0.53 0.76 0.84 1.02 1.14 1.07 0.77 0.72 0.86 0.80
0.01 0.03 0.04 0.03 0.03 0.04 0.05 0.07 0.07 0.06 0.15 0.26 0.31 0.33 0.34 0.32 0.34 0.40 0.47 0.50 0.49 0.43 0.34 0.28 0.31 0.42 0.42 0.33 0.33 0.62 0.91 0.93 0.81 0.74 0.62 0.64 0.86 0.83
0.03 0.05 0.04 0.04 0.04 0.07 0.09 0.12 0.13 0.12 0.18 0.27 0.32 0.35 0.40 0.44 0.43 0.45 0.48 0.50 0.44 0.29 0.15 0.09 0.16 0.39 0.62 0.62 0.53 0.61 0.69 0.75 0.70 0.71 0.63 0.54 0.64 0.63
0.04 0.04 0.03 0.04 0.07 0.10 0.12 0.15 0.19 0.24 0.28 0.37 0.39 0.41 0.46 0.51 0.47 0.43 0.41 0.33 0.25 0.18 0.13 0.09 0.12 0.23 0.37 0.33 0.32 0.41 0.54 0.58 0.59 0.74 0.66 0.50 0.43 0.41
0.04 0.04 0.03 0.05 0.10 0.14 0.16 0.19 0.23 0.25 0.31 0.37 0.41 0.45 0.48 0.52 0.48 0.37 0.27 0.21 0.17 0.16 0.14 0.08 0.06 0.08 0.13 0.21 0.25 0.29 0.34 0.33 0.29 0.28 0.40 0.56 0.73 0.99
0.05 0.06 0.05 0.08 0.12 0.16 0.19 0.20 0.24 0.28 0.36 0.44 0.46 0.44 0.43 0.37 0.28 0.23 0.20 0.19 0.19 0.15 0.11 0.07 0.05 0.06 0.10 0.14 0.18 0.20 0.20 0.19 0.15 0.18 0.35 0.41 0.52 0.76

GEFSNE_prec_meanprecacc_054.txt.gz
Total_Precipitation_Accumulation
0.04 0.03 0.02 0.02 0.01 0.01 0.03 0.07 0.11 0.07 0.03 0.02 0.03 0.03 0.04 0.04 0.03 0.05 0.04 0.04 0.05 0.08 0.11 0.12 0.12 0.15 0.18 0.22 0.29 0.38 0.47 0.54 0.61 0.67 0.74 0.80 0.85 0.93
0.03 0.03 0.03 0.03 0.03 0.02 0.03 0.04 0.08 0.09 0.05 0.01 0.02 0.03 0.06 0.06 0.05 0.06 0.07 0.09 0.11 0.12 0.13 0.15 0.18 0.22 0.26 0.28 0.30 0.35 0.44 0.53 0.60 0.65 0.72 0.80 0.86 0.94
0.04 0.04 0.04 0.04 0.04 0.04 0.03 0.03 0.03 0.05 0.06 0.01 0.00 0.01 0.04 0.05 0.05 0.06 0.06 0.06 0.07 0.09 0.13 0.15 0.18 0.23 0.28 0.31 0.33 0.36 0.42 0.51 0.57 0.63 0.71 0.79 0.83 0.85
0.05 0.05 0.05 0.05 0.05 0.05 0.04 0.03 0.03 0.03 0.06 0.06 0.01 0.00 0.01 0.03 0.04 0.04 0.05 0.07 0.06 0.07 0.11 0.14 0.17 0.22 0.27 0.29 0.32 0.35 0.39 0.44 0.48 0.53 0.57 0.62 0.69 0.76
0.06 0.07 0.07 0.06 0.06 0.05 0.03 0.02 0.02 0.03 0.06 0.10 0.05 0.02 0.02 0.02 0.04 0.03 0.04 0.05 0.06 0.07 0.09 0.11 0.16 0.21 0.26 0.29 0.30 0.31 0.31 0.34 0.38 0.43 0.48 0.54 0.60 0.67
0.07 0.07 0.06 0.05 0.04 0.03 0.02 0.02 0.04 0.05 0.07 0.10 0.12 0.09 0.06 0.03 0.06 0.06 0.05 0.05 0.05 0.05 0.06 0.07 0.09 0.12 0.14 0.17 0.20 0.22 0.24 0.28 0.36 0.45 0.52 0.57 0.60 0.63
0.09 0.07 0.05 0.03 0.02 0.02 0.04 0.05 0.06 0.10 0.16 0.22 0.20 0.14 0.09 0.08 0.07 0.07 0.09 0.07 0.05 0.04 0.04 0.03 0.04 0.05 0.06 0.09 0.15 0.20 0.26 0.35 0.47 0.61 0.73 0.81 0.83 0.81
0.05 0.04 0.02 0.01 0.01 0.02 0.04 0.07 0.13 0.21 0.29 0.31 0.26 0.17 0.08 0.05 0.07 0.12 0.17 0.21 0.14 0.04 0.06 0.04 0.03 0.04 0.07 0.12 0.19 0.26 0.33 0.42 0.51 0.61 0.71 0.75 0.78 0.84
0.03 0.02 0.01 0.01 0.01 0.01 0.02 0.08 0.14 0.19 0.22 0.22 0.17 0.10 0.10 0.12 0.22 0.32 0.29 0.27 0.17 0.04 0.06 0.07 0.04 0.06 0.08 0.14 0.25 0.29 0.36 0.45 0.52 0.58 0.64 0.66 0.67 0.70
0.01 0.01 0.01 0.01 0.02 0.05 0.12 0.17 0.11 0.07 0.06 0.06 0.09 0.13 0.16 0.16 0.22 0.32 0.29 0.21 0.10 0.04 0.07 0.14 0.10 0.10 0.09 0.13 0.23 0.25 0.29 0.38 0.47 0.53 0.54 0.54 0.54 0.58
0.00 0.01 0.03 0.03 0.05 0.17 0.26 0.22 0.10 0.03 0.02 0.07 0.12 0.12 0.10 0.09 0.11 0.27 0.37 0.39 0.24 0.07 0.06 0.12 0.10 0.11 0.15 0.17 0.22 0.26 0.27 0.33 0.41 0.45 0.44 0.43 0.44 0.50
0.02 0.02 0.03 0.05 0.13 0.25 0.24 0.19 0.10 0.06 0.09 0.06 0.03 0.01 0.01 0.02 0.08 0.23 0.57 0.83 0.57 0.28 0.09 0.22 0.24 0.29 0.41 0.22 0.21 0.24 0.25 0.30 0.35 0.37 0.38 0.39 0.41 0.44
0.06 0.03 0.02 0.10 0.21 0.22 0.15 0.07 0.09 0.16 0.12 0.03 0.01 0.01 0.01 0.02 0.04 0.08 0.30 0.82 1.01 0.58 0.17 0.51 0.61 0.38 0.52 0.34 0.24 0.26 0.34 0.46 0.51 0.50 0.48 0.44 0.42 0.47
0.07 0.04 0.07 0.16 0.15 0.09 0.04 0.04 0.10 0.10 0.03 0.03 0.03 0.03 0.03 0.04 0.04 0.05 0.09 0.24 0.54 0.65 0.37 0.65 0.94 0.61 0.66 0.51 0.35 0.34 0.39 0.61 0.86 0.90 0.84 0.73 0.60 0.53
0.08 0.12 0.14 0.09 0.04 0.01 0.01 0.03 0.04 0.02 0.06 0.12 0.10 0.06 0.04 0.05 0.06 0.08 0.09 0.13 0.21 0.27 0.32 0.44 0.72 0.71 0.77 0.75 0.58 0.47 0.56 0.67 1.02 1.29 1.18 0.95 0.72 0.59
0.13 0.13 0.06 0.01 0.00 0.00 0.01 0.00 0.01 0.02 0.11 0.20 0.17 0.09 0.05 0.06 0.09 0.16 0.27 0.29 0.34 0.28 0.29 0.37 0.50 0.70 0.73 0.59 0.69 0.65 0.75 1.06 1.27 1.46 1.31 1.03 0.81 0.66
0.14 0.04 0.00 0.00 0.01 0.01 0.00 0.00 0.01 0.02 0.06 0.11 0.17 0.16 0.11 0.10 0.12 0.22 0.39 0.49 0.53 0.45 0.39 0.33 0.30 0.35 0.47 0.55 0.59 0.60 0.77 1.04 1.27 1.40 1.17 0.98 0.93 0.83
0.05 0.01 0.01 0.02 0.02 0.02 0.02 0.03 0.02 0.04 0.10 0.19 0.22 0.23 0.25 0.25 0.25 0.27 0.43 0.57 0.58 0.51 0.47 0.39 0.33 0.30 0.30 0.33 0.54 0.77 0.84 1.02 1.14 1.07 0.78 0.74 0.87 0.80
0.01 0.03 0.04 0.03 0.03 0.04 0.06 0.08 0.08 0.06 0.15 0.26 0.32 0.34 0.36 0.33 0.35 0.40 0.47 0.51 0.49 0.43 0.34 0.28 0.33 0.47 0.46 0.35 0.33 0.62 0.92 0.96 0.83 0.75 0.62 0.65 0.87 0.83
0.03 0.05 0.04 0.04 0.05 0.07 0.10 0.12 0.14 0.13 0.18 0.27 0.33 0.36 0.42 0.45 0.44 0.46 0.49 0.51 0.46 0.30 0.16 0.09 0.18 0.45 0.73 0.69 0.57 0.62 0.69 0.79 0.77 0.76 0.64 0.55 0.64 0.63
0.04 0.04 0.03 0.05 0.08 0.11 0.13 0.16 0.19 0.24 0.29 0.38 0.40 0.42 0.48 0.53 0.48 0.44 0.43 0.34 0.26 0.19 0.14 0.09 0.12 0.26 0.44 0.41 0.36 0.42 0.54 0.59 0.65 0.85 0.77 0.58 0.46 0.41
0.04 0.04 0.04 0.05 0.10 0.15 0.17 0.20 0.24 0.26 0.32 0.38 0.42 0.46 0.49 0.54 0.51 0.39 0.29 0.23 0.19 0.18 0.15 0.09 0.06 0.09 0.17 0.28 0.30 0.31 0.35 0.33 0.29 0.29 0.46 0.67 0.87 1.07
0.05 0.06 0.06 0.08 0.13 0.17 0.20 0.21 0.25 0.29 0.37 0.45 0.47 0.45 0.44 0.39 0.30 0.25 0.22 0.21 0.21 0.17 0.13 0.09 0.06 0.06 0.12 0.18 0.23 0.23 0.21 0.19 0.15 0.19 0.35 0.41 0.54 0.79

GEFSNE_prec_meanprecacc_060.txt.gz
Total_Precipitation_Accumulation
0.12 0.10 0.09 0.08 0.07 0.07 0.09 0.14 0.18 0.15 0.09 0.07 0.07 0.07 0.07 0.06 0.05 0.06 0.05 0.04 0.05 0.08 0.11 0.12 0.13 0.15 0.19 0.23 0.29 0.39 0.48 0.55 0.62 0.69 0.76 0.82 0.87 0.96
0.09 0.08 0.08 0.08 0.08 0.08 0.09 0.11 0.14 0.16 0.12 0.06 0.06 0.07 0.09 0.08 0.06 0.07 0.07 0.09 0.11 0.12 0.13 0.15 0.18 0.23 0.26 0.28 0.30 0.36 0.45 0.55 0.61 0.67 0.74 0.82 0.89 0.97
0.08 0.09 0.09 0.10 0.10 0.10 0.10 0.09 0.09 0.11 0.11 0.05 0.03 0.04 0.06 0.07 0.06 0.07 0.06 0.07 0.07 0.09 0.13 0.15 0.18 0.23 0.28 0.32 0.34 0.37 0.43 0.52 0.59 0.65 0.73 0.81 0.86 0.88
0.10 0.11 0.12 0.13 0.14 0.13 0.12 0.11 0.10 0.10 0.12 0.09 0.04 0.02 0.03 0.04 0.04 0.05 0.05 0.07 0.06 0.07 0.11 0.14 0.17 0.22 0.27 0.30 0.33 0.36 0.40 0.45 0.50 0.54 0.59 0.64 0.71 0.78
0.11 0.13 0.14 0.15 0.15 0.13 0.11 0.09 0.08 0.07 0.09 0.11 0.06 0.02 0.02 0.02 0.04 0.03 0.04 0.05 0.06 0.07 0.09 0.11 0.16 0.21 0.26 0.29 0.30 0.31 0.32 0.34 0.38 0.43 0.49 0.55 0.61 0.68
0.15 0.15 0.15 0.14 0.12 0.09 0.07 0.06 0.07 0.07 0.07 0.11 0.12 0.09 0.06 0.04 0.06 0.06 0.05 0.05 0.05 0.05 0.06 0.07 0.09 0.12 0.14 0.17 0.20 0.22 0.24 0.29 0.36 0.45 0.53 0.58 0.62 0.64
0.19 0.17 0.14 0.11 0.08 0.06 0.06 0.07 0.07 0.10 0.17 0.22 0.20 0.14 0.09 0.08 0.07 0.07 0.09 0.07 0.05 0.04 0.04 0.03 0.04 0.05 0.06 0.09 0.15 0.20 0.26 0.35 0.47 0.62 0.74 0.82 0.84 0.83
0.14 0.11 0.09 0.06 0.04 0.05 0.05 0.07 0.13 0.22 0.29 0.32 0.26 0.17 0.08 0.05 0.07 0.12 0.18 0.21 0.15 0.04 0.06 0.04 0.03 0.04 0.07 0.12 0.19 0.26 0.33 0.42 0.51 0.62 0.71 0.76 0.79 0.85
0.08 0.06 0.04 0.02 0.02 0.02 0.02 0.08 0.14 0.19 0.23 0.22 0.17 0.10 0.10 0.12 0.23 0.32 0.29 0.27 0.17 0.04 0.06 0.07 0.04 0.06 0.08 0.14 0.25 0.29 0.36 0.45 0.52 0.59 0.64 0.67 0.68 0.72
0.04 0.02 0.01 0.01 0.02 0.05 0.12 0.17 0.11 0.07 0.06 0.06 0.09 0.13 0.16 0.16 0.23 0.33 0.29 0.22 0.10 0.04 0.07 0.14 0.10 0.10 0.09 0.13 0.23 0.25 0.29 0.38 0.47 0.53 0.54 0.54 0.55 0.59
0.01 0.01 0.03 0.03 0.05 0.17 0.26 0.22 0.10 0.03 0.02 0.07 0.12 0.12 0.10 0.09 0.11 0.27 0.38 0.39 0.24 0.07 0.06 0.12 0.10 0.11 0.15 0.17 0.22 0.26 0.27 0.33 0.41 0.45 0.44 0.43 0.45 0.51
0.02 0.02 0.03 0.05 0.13 0.26 0.24 0.19 0.10 0.06 0.09 0.06 0.03 0.01 0.01 0.02 0.08 0.23 0.57 0.84 0.58 0.28 0.09 0.22 0.24 0.29 0.42 0.22 0.21 0.24 0.25 0.30 0.35 0.37 0.38 0.39 0.41 0.45
0.06 0.03 0.02 0.10 0.21 0.22 0.16 0.08 0.09 0.16 0.12 0.03 0.01 0.01 0.01 0.02 0.04 0.08 0.30 0.83 1.03 0.59 0.17 0.52 0.63 0.39 0.53 0.35 0.24 0.26 0.34 0.46 0.51 0.50 0.48 0.44 0.42 0.47
0.07 0.04 0.07 0.16 0.15 0.09 0.04 0.04 0.10 0.10 0.03 0.03 0.03 0.03 0.03 0.04 0.04 0.05 0.10 0.24 0.55 0.66 0.37 0.67 0.98 0.63 0.69 0.53 0.35 0.34 0.39 0.61 0.86 0.90 0.84 0.73 0.60 0.53
0.08 0.12 0.14 0.09 0.04 0.01 0.01 0.03 0.04 0.02 0.06 0.12 0.10 0.06 0.04 0.05 0.06 0.08 0.09 0.13 0.21 0.27 0.32 0.45 0.74 0.74 0.81 0.79 0.59 0.47 0.56 0.67 1.02 1.29 1.18 0.95 0.72 0.59
0.13 0.13 0.06 0.01 0.00 0.00 0.01 0.00 0.01 0.02 0.11 0.20 0.17 0.09 0.05 0.06 0.09 0.17 0.27 0.29 0.35 0.28 0.29 0.37 0.50 0.72 0.76 0.61 0.71 0.66 0.75 1.07 1.27 1.46 1.32 1.03 0.81 0.66
0.14 0.04 0.00 0.00 0.01 0.01 0.00 0.00 0.01 0.02 0.06 0.11 0.17 0.17 0.11 0.10 0.12 0.22 0.39 0.50 0.54 0.46 0.39 0.33 0.30 0.36 0.49 0.57 0.61 0.61 0.77 1.04 1.28 1.40 1.18 0.99 0.93 0.83
0.05 0.01 0.01 0.02 0.02 0.02 0.02 0.03 0.02 0.04 0.10 0.19 0.22 0.24 0.26 0.25 0.25 0.28 0.43 0.58 0.59 0.51 0.47 0.39 0.34 0.31 0.30 0.34 0.54 0.77 0.84 1.02 1.14 1.08 0.79 0.76 0.88 0.80
0.01 0.03 0.04 0.03 0.03 0.04 0.06 0.08 0.08 0.07 0.15 0.27 0.33 0.34 0.36 0.34 0.36 0.41 0.48 0.52 0.50 0.44 0.35 0.29 0.35 0.52 0.51 0.36 0.33 0.63 0.94 0.99 0.84 0.75 0.63 0.66 0.88 0.83
0.03 0.05 0.04 0.04 0.05 0.07 0.10 0.12 0.14 0.13 0.18 0.28 0.33 0.37 0.43 0.46 0.45 0.46 0.50 0.52 0.47 0.31 0.17 0.10 0.19 0.51 0.82 0.76 0.60 0.62 0.70 0.84 0.84 0.81 0.65 0.56 0.65 0.63
0.04 0.04 0.03 0.05 0.08 0.11 0.13 0.16 0.20 0.25 0.29 0.39 0.40 0.43 0.49 0.54 0.49 0.45 0.44 0.35 0.27 0.21 0.16 0.10 0.12 0.28 0.49 0.47 0.40 0.43 0.54 0.60 0.71 0.96 0.86 0.65 0.49 0.42
0.04 0.04 0.04 0.05 0.11 0.15 0.18 0.20 0.24 0.26 0.32 0.39 0.43 0.47 0.50 0.55 0.52 0.40 0.30 0.25 0.20 0.19 0.17 0.09 0.06 0.10 0.20 0.34 0.35 0.32 0.35 0.33 0.30 0.31 0.51 0.76 0.99 1.14
0.05 0.06 0.06 0.08 0.13 0.17 0.20 0.21 0.25 0.30 0.38 0.46 0.48 0.46 0.45 0.40 0.31 0.27 0.23 0.23 0.23 0.19 0.15 0.10 0.06 0.07 0.13 0.21 0.27 0.25 0.22 0.19 0.15 0.19 0.35 0.42 0.56 0.81

GEFSNE_prec_meanprecacc_066.txt.gz
Total_Precipitation_Accumulation
0.27 0.26 0.25 0.22 0.21 0.22 0.25 0.34 0.44 0.41 0.32 0.25 0.24 0.22 0.20 0.17 0.14 0.12 0.08 0.07 0.07 0.09 0.11 0.12 0.13 0.15 0.19 0.23 0.30 0.39 0.49 0.56 0.62 0.69 0.77 0.83 0.89 0.98
0.19 0.19 0.19 0.19 0.19 0.21 0.24 0.30 0.38 0.43 0.38 0.27 0.23 0.22 0.21 0.17 0.13 0.12 0.10 0.12 0.13 0.13 0.13 0.15 0.18 0.23 0.26 0.28 0.31 0.36 0.46 0.55 0.62 0.68 0.76 0.84 0.91 0.99
0.15 0.16 0.17 0.17 0.19 0.20 0.22 0.25 0.27 0.30 0.30 0.22 0.17 0.15 0.15 0.14 0.12 0.11 0.09 0.08 0.07 0.10 0.13 0.15 0.18 0.23 0.28 0.32 0.34 0.37 0.44 0.52 0.60 0.66 0.74 0.82 0.87 0.90
0.15 0.16 0.18 0.20 0.23 0.24 0.25 0.25 0.24 0.24 0.25 0.22 0.15 0.11 0.09 0.09 0.07 0.06 0.06 0.07 0.06 0.07 0.11 0.14 0.17 0.22 0.27 0.30 0.33 0.36 0.40 0.45 0.50 0.54 0.59 0.65 0.72 0.80
0.17 0.20 0.22 0.24 0.25 0.25 0.23 0.21 0.19 0.17 0.18 0.20 0.12 0.07 0.05 0.04 0.05 0.04 0.04 0.05 0.06 0.07 0.09 0.11 0.16 0.21 0.26 0.29 0.30 0.31 0.32 0.34 0.39 0.44 0.49 0.56 0.62 0.69
0.23 0.25 0.27 0.26 0.24 0.21 0.17 0.15 0.14 0.13 0.12 0.15 0.15 0.11 0.07 0.04 0.06 0.06 0.05 0.05 0.05 0.05 0.06 0.07 0.09 0.12 0.14 0.17 0.20 0.22 0.24 0.29 0.36 0.45 0.53 0.59 0.62 0.65
0.30 0.28 0.24 0.21 0.17 0.14 0.13 0.12 0.12 0.14 0.19 0.24 0.21 0.15 0.09 0.08 0.07 0.07 0.09 0.07 0.05 0.04 0.04 0.03 0.04 0.05 0.06 0.09 0.15 0.20 0.26 0.35 0.47 0.62 0.75 0.83 0.85 0.83
0.23 0.20 0.17 0.14 0.11 0.10 0.10 0.11 0.16 0.24 0.31 0.33 0.26 0.18 0.08 0.05 0.07 0.12 0.18 0.21 0.15 0.04 0.06 0.04 0.03 0.04 0.07 0.12 0.19 0.26 0.33 0.42 0.51 0.62 0.72 0.77 0.80 0.86
0.15 0.11 0.08 0.06 0.05 0.04 0.04 0.10 0.15 0.20 0.23 0.22 0.18 0.10 0.10 0.12 0.23 0.32 0.29 0.27 0.17 0.04 0.06 0.07 0.04 0.06 0.08 0.14 0.25 0.29 0.36 0.45 0.52 0.59 0.64 0.67 0.69 0.72
0.08 0.06 0.04 0.04 0.04 0.07 0.13 0.17 0.12 0.07 0.06 0.06 0.09 0.13 0.16 0.16 0.23 0.33 0.29 0.22 0.10 0.04 0.07 0.15 0.10 0.10 0.09 0.13 0.23 0.25 0.29 0.38 0.47 0.53 0.54 0.54 0.55 0.60
0.03 0.03 0.05 0.04 0.06 0.18 0.26 0.22 0.10 0.03 0.02 0.07 0.12 0.12 0.10 0.09 0.11 0.27 0.38 0.39 0.25 0.07 0.06 0.12 0.10 0.11 0.15 0.17 0.22 0.26 0.27 0.33 0.41 0.45 0.44 0.43 0.45 0.51
0.02 0.02 0.03 0.05 0.13 0.26 0.24 0.19 0.10 0.06 0.09 0.06 0.03 0.01 0.01 0.02 0.08 0.23 0.57 0.84 0.58 0.29 0.09 0.22 0.24 0.30 0.42 0.22 0.21 0.24 0.25 0.30 0.35 0.37 0.38 0.39 0.41 0.45
0.06 0.03 0.02 0.10 0.21 0.22 0.16 0.08 0.09 0.16 0.12 0.03 0.01 0.01 0.01 0.02 0.04 0.08 0.30 0.83 1.03 0.59 0.17 0.53 0.64 0.40 0.55 0.35 0.24 0.26 0.34 0.46 0.51 0.50 0.48 0.44 0.42 0.47
0.07 0.04 0.07 0.16 0.15 0.09 0.04 0.04 0.11 0.10 0.03 0.03 0.03 0.03 0.03 0.04 0.04 0.05 0.10 0.24 0.55 0.66 0.37 0.68 1.01 0.65 0.71 0.55 0.36 0.34 0.39 0.61 0.86 0.90 0.84 0.73 0.60 0.53
0.08 0.12 0.14 0.09 0.04 0.01 0.01 0.03 0.04 0.02 0.06 0.12 0.10 0.06 0.04 0.05 0.06 0.08 0.09 0.13 0.21 0.27 0.32 0.45 0.75 0.76 0.85 0.82 0.60 0.48 0.56 0.67 1.02 1.29 1.18 0.95 0.72 0.59
0.13 0.13 0.06 0.01 0.00 0.00 0.01 0.00 0.01 0.02 0.11 0.20 0.17 0.09 0.05 0.06 0.09 0.17 0.27 0.29 0.35 0.29 0.29 0.37 0.51 0.74 0.79 0.63 0.72 0.67 0.75 1.07 1.27 1.46 1.32 1.04 0.81 0.66
0.14 0.04 0.00 0.00 0.01 0.01 0.00 0.00 0.01 0.02 0.06 0.11 0.17 0.17 0.11 0.11 0.13 0.22 0.40 0.50 0.55 0.46 0.39 0.33 0.30 0.37 0.51 0.59 0.64 0.62 0.77 1.04 1.28 1.40 1.19 1.00 0.93 0.83
0.05 0.01 0.01 0.02 0.02 0.02 0.02 0.03 0.02 0.04 0.10 0.19 0.23 0.24 0.26 0.26 0.25 0.28 0.44 0.59 0.60 0.52 0.47 0.39 0.34 0.33 0.31 0.34 0.55 0.77 0.85 1.02 1.14 1.08 0.80 0.78 0.89 0.80
0.01 0.03 0.04 0.03 0.03 0.04 0.06 0.08 0.08 0.07 0.16 0.27 0.33 0.35 0.37 0.35 0.37 0.42 0.48 0.53 0.51 0.45 0.35 0.30 0.36 0.55 0.55 0.38 0.33 0.63 0.95 1.00 0.85 0.76 0.63 0.67 0.89 0.83
0.03 0.05 0.04 0.04 0.05 0.07 0.10 0.13 0.14 0.13 0.19 0.28 0.34 0.38 0.44 0.48 0.46 0.47 0.51 0.54 0.49 0.32 0.17 0.10 0.20 0.54 0.87 0.80 0.62 0.62 0.70 0.85 0.86 0.83 0.66 0.56 0.65 0.63
0.04 0.04 0.03 0.05 0.08 0.11 0.13 0.16 0.20 0.25 0.30 0.39 0.41 0.44 0.50 0.56 0.51 0.46 0.45 0.36 0.29 0.22 0.17 0.10 0.12 0.28 0.51 0.52 0.44 0.43 0.54 0.61 0.73 1.00 0.90 0.70 0.52 0.43
0.04 0.04 0.04 0.05 0.11 0.15 0.18 0.21 0.25 0.27 0.33 0.39 0.43 0.48 0.52 0.57 0.54 0.41 0.31 0.26 0.22 0.20 0.18 0.10 0.06 0.10 0.22 0.38 0.38 0.33 0.35 0.33 0.30 0.31 0.53 0.81 1.08 1.20
0.05 0.06 0.06 0.08 0.13 0.18 0.21 0.22 0.26 0.30 0.38 0.48 0.50 0.48 0.46 0.41 0.32 0.28 0.25 0.24 0.24 0.20 0.16 0.11 0.07 0.08 0.14 0.23 0.29 0.26 0.22 0.19 0.15 0.19 0.35 0.42 0.57 0.83

GEFSNE_prec_meanprecacc_072.txt.gz
Total_Precipitation_Accumulation
0.34 0.35 0.35 0.34 0.34 0.36 0.42 0.54 0.68 0.66 0.55 0.48 0.48 0.47 0.45 0.41 0.38 0.33 0.25 0.26 0.25 0.25 0.27 0.26 0.24 0.24 0.25 0.27 0.32 0.41 0.50 0.56 0.63 0.70 0.77 0.84 0.90 0.99
0.23 0.25 0.26 0.27 0.29 0.33 0.38 0.45 0.56 0.65 0.60 0.46 0.40 0.40 0.41 0.37 0.34 0.29 0.24 0.27 0.26 0.25 0.24 0.24 0.26 0.28 0.30 0.31 0.32 0.37 0.46 0.56 0.62 0.69 0.76 0.85 0.92 1.01
0.17 0.19 0.22 0.23 0.26 0.28 0.32 0.37 0.42 0.48 0.50 0.40 0.33 0.30 0.29 0.27 0.25 0.22 0.19 0.17 0.15 0.17 0.20 0.20 0.22 0.26 0.30 0.33 0.35 0.38 0.44 0.53 0.60 0.67 0.75 0.83 0.89 0.91
0.16 0.18 0.21 0.23 0.27 0.29 0.31 0.32 0.33 0.33 0.36 0.33 0.25 0.21 0.19 0.17 0.15 0.13 0.12 0.12 0.10 0.10 0.14 0.16 0.19 0.23 0.28 0.30 0.33 0.37 0.41 0.45 0.50 0.55 0.60 0.65 0.72 0.80
0.19 0.23 0.25 0.26 0.29 0.29 0.27 0.26 0.24 0.23 0.24 0.27 0.20 0.14 0.11 0.09 0.09 0.07 0.07 0.08 0.07 0.08 0.10 0.12 0.17 0.22 0.26 0.29 0.31 0.31 0.32 0.35 0.39 0.44 0.49 0.56 0.62 0.69
0.24 0.27 0.29 0.29 0.28 0.25 0.21 0.19 0.19 0.18 0.17 0.20 0.20 0.16 0.12 0.07 0.09 0.09 0.07 0.06 0.06 0.05 0.06 0.07 0.10 0.13 0.14 0.17 0.21 0.22 0.24 0.29 0.36 0.46 0.53 0.59 0.62 0.65
0.32 0.30 0.27 0.24 0.20 0.16 0.15 0.15 0.14 0.16 0.22 0.27 0.24 0.18 0.12 0.10 0.09 0.08 0.10 0.08 0.05 0.04 0.04 0.03 0.04 0.05 0.06 0.09 0.15 0.20 0.26 0.35 0.47 0.62 0.75 0.83 0.85 0.84
0.24 0.21 0.19 0.17 0.14 0.13 0.13 0.13 0.18 0.25 0.32 0.34 0.28 0.19 0.09 0.06 0.08 0.13 0.18 0.22 0.15 0.04 0.06 0.04 0.03 0.04 0.07 0.12 0.19 0.26 0.33 0.42 0.51 0.62 0.72 0.77 0.81 0.87
0.17 0.13 0.10 0.08 0.07 0.05 0.06 0.11 0.16 0.21 0.24 0.23 0.18 0.11 0.10 0.12 0.23 0.32 0.29 0.27 0.17 0.04 0.06 0.07 0.04 0.06 0.08 0.14 0.25 0.29 0.36 0.45 0.53 0.59 0.65 0.68 0.69 0.73
0.08 0.06 0.05 0.04 0.04 0.07 0.13 0.18 0.12 0.08 0.07 0.07 0.10 0.13 0.16 0.16 0.23 0.33 0.30 0.22 0.10 0.04 0.07 0.15 0.10 0.10 0.09 0.13 0.23 0.25 0.29 0.38 0.47 0.53 0.55 0.55 0.56 0.60
0.03 0.03 0.05 0.05 0.06 0.19 0.27 0.23 0.10 0.03 0.02 0.07 0.12 0.12 0.10 0.09 0.11 0.27 0.38 0.40 0.25 0.07 0.06 0.12 0.10 0.11 0.15 0.17 0.22 0.26 0.27 0.33 0.41 0.45 0.44 0.43 0.45 0.52
0.03 0.03 0.03 0.05 0.14 0.26 0.24 0.19 0.10 0.06 0.09 0.06 0.03 0.01 0.01 0.02 0.08 0.23 0.57 0.84 0.58 0.29 0.09 0.22 0.24 0.30 0.42 0.22 0.21 0.24 0.25 0.30 0.35 0.37 0.38 0.39 0.42 0.45
0.07 0.03 0.02 0.10 0.21 0.22 0.16 0.08 0.09 0.16 0.12 0.03 0.01 0.01 0.01 0.02 0.04 0.08 0.30 0.83 1.04 0.60 0.17 0.54 0.65 0.40 0.55 0.36 0.24 0.26 0.34 0.46 0.51 0.50 0.48 0.44 0.42 0.47
0.07 0.04 0.07 0.16 0.15 0.09 0.04 0.04 0.11 0.10 0.03 0.03 0.03 0.03 0.03 0.04 0.04 0.05 0.10 0.25 0.55 0.67 0.37 0.69 1.03 0.66 0.73 0.57 0.36 0.34 0.39 0.61 0.86 0.90 0.84 0.73 0.60 0.53
0.08 0.12 0.14 0.09 0.04 0.01 0.01 0.03 0.04 0.02 0.06 0.12 0.10 0.06 0.04 0.05 0.06 0.08 0.09 0.13 0.21 0.27 0.32 0.46 0.76 0.78 0.88 0.84 0.61 0.48 0.56 0.67 1.02 1.29 1.18 0.95 0.72 0.59
0.13 0.13 0.06 0.01 0.00 0.00 0.01 0.00 0.01 0.02 0.11 0.20 0.17 0.09 0.05 0.06 0.09 0.17 0.27 0.30 0.35 0.29 0.29 0.37 0.51 0.75 0.81 0.65 0.74 0.68 0.75 1.07 1.27 1.46 1.32 1.04 0.81 0.66
0.14 0.04 0.00 0.00 0.01 0.01 0.00 0.00 0.01 0.02 0.06 0.11 0.17 0.17 0.12 0.11 0.13 0.22 0.40 0.51 0.56 0.46 0.39 0.33 0.31 0.38 0.52 0.60 0.65 0.62 0.77 1.04 1.28 1.40 1.19 1.00 0.93 0.83
0.05 0.01 0.01 0.02 0.02 0.02 0.02 0.03 0.02 0.04 0.10 0.20 0.23 0.24 0.27 0.26 0.26 0.28 0.44 0.59 0.60 0.52 0.48 0.40 0.34 0.33 0.32 0.35 0.55 0.77 0.85 1.02 1.14 1.08 0.81 0.79 0.89 0.80
0.01 0.03 0.04 0.03 0.03 0.04 0.06 0.08 0.08 0.07 0.16 0.28 0.34 0.36 0.38 0.36 0.37 0.42 0.49 0.54 0.52 0.45 0.36 0.30 0.37 0.57 0.57 0.39 0.33 0.63 0.95 1.00 0.85 0.76 0.63 0.67 0.89 0.83
0.03 0.05 0.04 0.04 0.05 0.07 0.10 0.13 0.14 0.13 0.19 0.28 0.34 0.38 0.45 0.49 0.47 0.48 0.52 0.54 0.50 0.33 0.18 0.10 0.21 0.55 0.91 0.83 0.64 0.62 0.70 0.85 0.86 0.84 0.67 0.56 0.65 0.63
0.04 0.04 0.03 0.05 0.08 0.11 0.13 0.16 0.20 0.26 0.30 0.40 0.42 0.45 0.51 0.57 0.52 0.47 0.46 0.37 0.30 0.23 0.18 0.11 0.13 0.29 0.52 0.56 0.47 0.44 0.54 0.61 0.73 1.00 0.92 0.72 0.54 0.44
0.04 0.04 0.04 0.05 0.11 0.15 0.18 0.21 0.25 0.27 0.33 0.40 0.44 0.49 0.53 0.58 0.55 0.43 0.32 0.28 0.23 0.21 0.19 0.10 0.06 0.11 0.23 0.42 0.40 0.33 0.35 0.33 0.30 0.31 0.54 0.83 1.13 1.24
0.05 0.06 0.06 0.08 0.13 0.18 0.21 0.22 0.26 0.31 0.39 0.48 0.50 0.48 0.47 0.43 0.34 0.29 0.26 0.25 0.26 0.21 0.17 0.11 0.07 0.08 0.15 0.24 0.30 0.27 0.23 0.19 0.15 0.19 0.35 0.42 0.57 0.83

GEFSNE_prec_meanprecacc_078.txt.gz
Total_Precipitation_Accumulation
0.34 0.36 0.36 0.35 0.35 0.37 0.44 0.56 0.72 0.71 0.59 0.52 0.53 0.54 0.54 0.52 0.52 0.47 0.41 0.45 0.47 0.47 0.51 0.52 0.47 0.43 0.40 0.40 0.44 0.50 0.58 0.63 0.68 0.74 0.81 0.87 0.92 1.01
0.23 0.25 0.27 0.27 0.29 0.33 0.38 0.47 0.59 0.69 0.64 0.50 0.44 0.45 0.47 0.45 0.44 0.39 0.35 0.41 0.41 0.40 0.41 0.41 0.42 0.43 0.42 0.41 0.41 0.44 0.52 0.61 0.67 0.72 0.80 0.88 0.95 1.03
0.17 0.19 0.22 0.23 0.26 0.29 0.33 0.38 0.43 0.50 0.53 0.43 0.37 0.35 0.35 0.33 0.32 0.29 0.25 0.25 0.24 0.27 0.30 0.30 0.31 0.35 0.38 0.40 0.40 0.42 0.48 0.56 0.62 0.69 0.77 0.85 0.90 0.93
0.16 0.18 0.21 0.23 0.27 0.29 0.31 0.32 0.33 0.34 0.38 0.35 0.28 0.23 0.21 0.20 0.19 0.17 0.15 0.15 0.14 0.15 0.19 0.21 0.24 0.28 0.32 0.34 0.36 0.39 0.43 0.47 0.52 0.56 0.61 0.66 0.73 0.82
0.19 0.23 0.25 0.26 0.29 0.29 0.28 0.26 0.24 0.23 0.25 0.28 0.21 0.15 0.13 0.11 0.11 0.10 0.09 0.09 0.09 0.10 0.12 0.14 0.19 0.24 0.28 0.30 0.32 0.32 0.33 0.35 0.39 0.44 0.50 0.56 0.63 0.70
0.24 0.27 0.29 0.29 0.28 0.25 0.21 0.19 0.19 0.18 0.18 0.20 0.21 0.16 0.13 0.08 0.10 0.10 0.09 0.07 0.07 0.06 0.07 0.08 0.11 0.13 0.15 0.18 0.21 0.23 0.24 0.29 0.37 0.46 0.53 0.59 0.63 0.66
0.32 0.30 0.27 0.24 0.20 0.16 0.15 0.15 0.15 0.17 0.23 0.27 0.25 0.19 0.13 0.11 0.10 0.09 0.11 0.09 0.05 0.04 0.04 0.03 0.04 0.05 0.06 0.09 0.15 0.20 0.26 0.35 0.48 0.62 0.75 0.84 0.86 0.85
0.24 0.21 0.19 0.17 0.14 0.13 0.13 0.13 0.18 0.26 0.33 0.35 0.29 0.20 0.10 0.06 0.08 0.13 0.18 0.22 0.15 0.04 0.06 0.04 0.03 0.04 0.07 0.12 0.19 0.26 0.33 0.42 0.51 0.62 0.72 0.77 0.81 0.87
0.17 0.13 0.10 0.08 0.07 0.05 0.06 0.11 0.16 0.21 0.24 0.23 0.18 0.11 0.10 0.12 0.23 0.33 0.29 0.28 0.17 0.05 0.06 0.07 0.04 0.06 0.08 0.14 0.25 0.29 0.36 0.45 0.53 0.59 0.65 0.68 0.70 0.73
0.08 0.06 0.05 0.04 0.04 0.07 0.13 0.18 0.12 0.08 0.07 0.07 0.10 0.13 0.16 0.16 0.23 0.33 0.30 0.22 0.10 0.04 0.07 0.15 0.10 0.10 0.09 0.13 0.23 0.25 0.29 0.38 0.47 0.54 0.55 0.55 0.56 0.60
0.03 0.03 0.05 0.05 0.06 0.19 0.27 0.23 0.10 0.03 0.02 0.07 0.12 0.12 0.10 0.09 0.11 0.27 0.38 0.40 0.25 0.07 0.06 0.12 0.10 0.11 0.15 0.17 0.22 0.26 0.27 0.33 0.41 0.45 0.44 0.43 0.45 0.52
0.03 0.03 0.03 0.05 0.14 0.26 0.24 0.19 0.10 0.06 0.09 0.06 0.03 0.01 0.01 0.02 0.08 0.23 0.57 0.84 0.58 0.29 0.09 0.22 0.24 0.30 0.42 0.22 0.21 0.24 0.25 0.30 0.35 0.37 0.38 0.39 0.42 0.45
0.07 0.03 0.02 0.10 0.21 0.22 0.16 0.08 0.09 0.16 0.12 0.03 0.01 0.01 0.01 0.02 0.04 0.08 0.30 0.83 1.04 0.60 0.17 0.54 0.65 0.41 0.56 0.36 0.24 0.26 0.34 0.46 0.51 0.50 0.48 0.44 0.42 0.47
0.07 0.04 0.07 0.16 0.15 0.09 0.04 0.04 0.11 0.10 0.03 0.03 0.03 0.03 0.03 0.04 0.04 0.05 0.10 0.25 0.56 0.67 0.37 0.70 1.05 0.67 0.74 0.58 0.36 0.34 0.39 0.61 0.86 0.90 0.84 0.73 0.60 0.53
0.08 0.12 0.14 0.09 0.04 0.01 0.01 0.03 0.04 0.02 0.06 0.12 0.10 0.06 0.04 0.05 0.06 0.08 0.09 0.13 0.21 0.27 0.32 0.46 0.77 0.79 0.90 0.86 0.62 0.48 0.56 0.68 1.02 1.29 1.18 0.95 0.72 0.59
0.13 0.13 0.06 0.01 0.00 0.00 0.01 0.00 0.01 0.02 0.11 0.20 0.17 0.09 0.05 0.06 0.09 0.17 0.27 0.30 0.35 0.29 0.29 0.37 0.51 0.76 0.83 0.66 0.75 0.69 0.75 1.07 1.27 1.46 1.32 1.04 0.81 0.66
0.14 0.04 0.00 0.00 0.01 0.01 0.00 0.00 0.01 0.02 0.06 0.11 0.18 0.17 0.12 0.11 0.13 0.22 0.40 0.51 0.56 0.47 0.39 0.33 0.31 0.38 0.52 0.61 0.65 0.63 0.77 1.04 1.28 1.40 1.19 1.00 0.93 0.83
0.05 0.01 0.01 0.02 0.02 0.02 0.02 0.03 0.02 0.04 0.11 0.20 0.23 0.25 0.27 0.26 0.26 0.28 0.45 0.60 0.61 0.53 0.48 0.40 0.35 0.34 0.32 0.35 0.55 0.77 0.85 1.02 1.14 1.08 0.81 0.79 0.90 0.80
0.01 0.03 0.04 0.03 0.03 0.04 0.06 0.08 0.08 0.07 0.16 0.28 0.34 0.36 0.38 0.36 0.38 0.42 0.49 0.54 0.52 0.45 0.36 0.30 0.37 0.59 0.59 0.39 0.33 0.63 0.95 1.00 0.85 0.76 0.64 0.68 0.90 0.83
0.03 0.05 0.04 0.04 0.05 0.07 0.10 0.13 0.14 0.13 0.19 0.29 0.35 0.39 0.45 0.49 0.48 0.49 0.52 0.55 0.50 0.33 0.18 0.10 0.21 0.57 0.93 0.84 0.65 0.63 0.70 0.85 0.86 0.84 0.67 0.56 0.65 0.63
0.04 0.04 0.03 0.05 0.08 0.11 0.13 0.16 0.21 0.26 0.30 0.40 0.42 0.45 0.51 0.58 0.53 0.47 0.46 0.38 0.31 0.24 0.18 0.11 0.13 0.29 0.54 0.59 0.49 0.44 0.54 0.61 0.73 1.01 0.93 0.73 0.55 0.44
0.04 0.04 0.04 0.05 0.11 0.15 0.18 0.21 0.25 0.27 0.33 0.40 0.44 0.49 0.53 0.59 0.56 0.43 0.33 0.28 0.23 0.22 0.19 0.10 0.06 0.11 0.25 0.44 0.42 0.33 0.35 0.33 0.30 0.31 0.54 0.85 1.16 1.26
0.05 0.06 0.06 0.08 0.13 0.18 0.21 0.22 0.27 0.31 0.39 0.48 0.51 0.49 0.48 0.44 0.34 0.30 0.27 0.26 0.27 0.22 0.17 0.12 0.07 0.09 0.16 0.26 0.32 0.28 0.23 0.19 0.15 0.19 0.35 0.42 0.57 0.84

GEFSNE_prec_meanprecacc_084.txt.gz
Total_Precipitation_Accumulation
0.34 0.36 0.36 0.35 0.35 0.38 0.44 0.57 0.73 0.72 0.59 0.52 0.53 0.54 0.54 0.52 0.52 0.48 0.41 0.47 0.50 0.51 0.55 0.58 0.56 0.54 0.54 0.56 0.61 0.69 0.77 0.81 0.83 0.86 0.91 0.95 1.00 1.08
0.24 0.25 0.27 0.27 0.29 0.33 0.38 0.47 0.59 0.69 0.64 0.50 0.44 0.45 0.47 0.45 0.45 0.39 0.35 0.42 0.43 0.43 0.44 0.46 0.47 0.50 0.52 0.52 0.53 0.57 0.66 0.74 0.78 0.82 0.89 0.96 1.02 1.09
0.17 0.19 0.22 0.23 0.26 0.29 0.33 0.38 0.43 0.50 0.53 0.44 0.37 0.35 0.35 0.33 0.32 0.29 0.25 0.25 0.25 0.29 0.32 0.33 0.35 0.39 0.44 0.47 0.49 0.51 0.55 0.63 0.69 0.75 0.83 0.91 0.95 0.97
0.16 0.18 0.21 0.23 0.27 0.29 0.31 0.33 0.33 0.34 0.38 0.36 0.28 0.24 0.21 0.20 0.19 0.17 0.15 0.15 0.14 0.16 0.21 0.23 0.26 0.31 0.35 0.38 0.40 0.43 0.46 0.50 0.55 0.59 0.63 0.69 0.76 0.84
0.19 0.23 0.25 0.27 0.29 0.29 0.28 0.26 0.24 0.23 0.25 0.28 0.21 0.15 0.13 0.11 0.11 0.10 0.09 0.09 0.09 0.11 0.13 0.15 0.20 0.25 0.29 0.32 0.33 0.34 0.34 0.37 0.41 0.45 0.51 0.57 0.64 0.71
0.24 0.27 0.29 0.29 0.28 0.25 0.21 0.19 0.19 0.18 0.18 0.20 0.21 0.16 0.13 0.09 0.10 0.10 0.09 0.07 0.07 0.06 0.07 0.08 0.11 0.14 0.16 0.18 0.22 0.23 0.25 0.29 0.37 0.46 0.54 0.60 0.63 0.66
0.32 0.30 0.27 0.24 0.20 0.17 0.15 0.15 0.15 0.17 0.23 0.27 0.25 0.19 0.13 0.11 0.10 0.09 0.11 0.09 0.06 0.04 0.04 0.03 0.04 0.05 0.06 0.09 0.15 0.20 0.26 0.35 0.48 0.62 0.75 0.84 0.86 0.85
0.24 0.21 0.19 0.17 0.14 0.13 0.13 0.13 0.18 0.26 0.33 0.35 0.29 0.20 0.10 0.06 0.08 0.13 0.18 0.22 0.15 0.04 0.06 0.04 0.03 0.04 0.07 0.12 0.19 0.26 0.33 0.42 0.51 0.62 0.72 0.78 0.81 0.87
0.17 0.13 0.10 0.08 0.07 0.05 0.06 0.11 0.16 0.21 0.24 0.23 0.18 0.11 0.10 0.12 0.23 0.33 0.29 0.28 0.17 0.05 0.06 0.07 0.04 0.06 0.08 0.14 0.25 0.29 0.36 0.45 0.53 0.59 0.65 0.68 0.70 0.74
0.08 0.06 0.05 0.04 0.04 0.07 0.13 0.18 0.12 0.08 0.07 0.07 0.10 0.13 0.16 0.16 0.23 0.33 0.30 0.22 0.10 0.04 0.07 0.15 0.10 0.10 0.09 0.13 0.23 0.26 0.29 0.38 0.47 0.54 0.55 0.55 0.56 0.61
0.03 0.03 0.05 0.05 0.06 0.19 0.27 0.23 0.10 0.03 0.02 0.07 0.12 0.12 0.10 0.09 0.11 0.27 0.38 0.40 0.25 0.07 0.06 0.12 0.10 0.11 0.15 0.17 0.22 0.26 0.27 0.33 0.41 0.45 0.45 0.43 0.46 0.52
0.03 0.03 0.03 0.05 0.14 0.26 0.24 0.19 0.10 0.06 0.09 0.06 0.03 0.01 0.01 0.02 0.08 0.23 0.57 0.84 0.59 0.29 0.09 0.22 0.24 0.30 0.42 0.22 0.21 0.24 0.25 0.30 0.35 0.37 0.38 0.39 0.42 0.45
0.07 0.03 0.02 0.10 0.21 0.22 0.16 0.08 0.09 0.16 0.12 0.03 0.01 0.01 0.01 0.02 0.04 0.08 0.30 0.83 1.04 0.60 0.17 0.54 0.66 0.41 0.56 0.36 0.24 0.26 0.34 0.46 0.51 0.50 0.48 0.44 0.42 0.47
0.07 0.04 0.07 0.16 0.15 0.09 0.04 0.04 0.11 0.10 0.03 0.03 0.03 0.03 0.03 0.04 0.04 0.05 0.10 0.25 0.56 0.67 0.37 0.71 1.06 0.68 0.75 0.58 0.36 0.34 0.39 0.61 0.86 0.90 0.84 0.73 0.60 0.53
0.08 0.12 0.14 0.09 0.04 0.01 0.01 0.03 0.04 0.02 0.06 0.12 0.10 0.06 0.04 0.05 0.06 0.09 0.09 0.13 0.21 0.27 0.32 0.46 0.78 0.80 0.91 0.87 0.62 0.48 0.56 0.68 1.02 1.29 1.18 0.95 0.72 0.59
0.13 0.13 0.06 0.01 0.00 0.00 0.01 0.00 0.01 0.02 0.11 0.20 0.17 0.09 0.05 0.06 0.10 0.17 0.28 0.30 0.36 0.29 0.29 0.37 0.51 0.77 0.83 0.66 0.75 0.69 0.76 1.07 1.27 1.46 1.32 1.04 0.81 0.66
0.14 0.04 0.00 0.00 0.01 0.01 0.00 0.00 0.01 0.02 0.06 0.11 0.18 0.17 0.12 0.11 0.13 0.22 0.40 0.52 0.57 0.47 0.40 0.33 0.31 0.38 0.53 0.61 0.66 0.63 0.78 1.04 1.28 1.40 1.19 1.00 0.93 0.83
0.05 0.01 0.01 0.02 0.02 0.02 0.02 0.03 0.02 0.04 0.11 0.20 0.23 0.25 0.27 0.27 0.26 0.29 0.45 0.60 0.61 0.53 0.48 0.40 0.35 0.34 0.32 0.35 0.55 0.77 0.85 1.03 1.14 1.08 0.81 0.80 0.90 0.80
0.01 0.03 0.04 0.03 0.03 0.04 0.06 0.08 0.08 0.07 0.16 0.28 0.34 0.36 0.39 0.36 0.38 0.43 0.49 0.54 0.53 0.45 0.36 0.30 0.38 0.60 0.60 0.39 0.33 0.63 0.95 1.00 0.85 0.76 0.64 0.68 0.90 0.83
0.03 0.05 0.04 0.04 0.05 0.07 0.10 0.13 0.14 0.13 0.19 0.29 0.35 0.39 0.45 0.50 0.48 0.49 0.52 0.55 0.51 0.34 0.18 0.10 0.22 0.58 0.94 0.85 0.65 0.63 0.70 0.85 0.87 0.84 0.67 0.56 0.65 0.63
0.04 0.04 0.03 0.05 0.08 0.11 0.13 0.16 0.21 0.26 0.30 0.40 0.42 0.45 0.51 0.58 0.53 0.48 0.46 0.38 0.31 0.25 0.19 0.11 0.13 0.30 0.56 0.61 0.51 0.44 0.54 0.61 0.73 1.01 0.93 0.74 0.56 0.44
0.04 0.04 0.04 0.05 0.11 0.15 0.18 0.21 0.25 0.27 0.33 0.40 0.44 0.49 0.53 0.59 0.56 0.44 0.33 0.29 0.24 0.22 0.19 0.11 0.07 0.12 0.26 0.46 0.43 0.33 0.35 0.33 0.30 0.31 0.54 0.86 1.18 1.28
0.05 0.06 0.06 0.08 0.13 0.18 0.21 0.22 0.27 0.31 0.39 0.48 0.51 0.49 0.48 0.44 0.35 0.30 0.27 0.27 0.27 0.22 0.18 0.12 0.07 0.09 0.16 0.26 0.33 0.28 0.23 0.19 0.15 0.19 0.35 0.42 0.58 0.84

GEFSNE_prec_meanprecacc_090.txt.gz
Total_Precipitation_Accumulation
0.34 0.36 0.36 0.35 0.36 0.38 0.44 0.58 0.74 0.73 0.60 0.52 0.53 0.54 0.54 0.52 0.52 0.48 0.42 0.48 0.50 0.52 0.56 0.59 0.57 0.55 0.56 0.59 0.66 0.76 0.84 0.89 0.93 0.96 1.00 1.03 1.08 1.18
0.24 0.25 0.27 0.28 0.30 0.34 0.39 0.47 0.60 0.70 0.65 0.50 0.44 0.45 0.47 0.45 0.45 0.39 0.35 0.42 0.43 0.43 0.44 0.46 0.48 0.51 0.54 0.55 0.58 0.63 0.71 0.80 0.86 0.91 0.97 1.04 1.10 1.17
0.17 0.20 0.22 0.24 0.26 0.29 0.33 0.38 0.44 0.51 0.53 0.44 0.37 0.35 0.35 0.33 0.32 0.29 0.25 0.25 0.25 0.29 0.32 0.34 0.35 0.40 0.44 0.49 0.51 0.54 0.60 0.67 0.74 0.81 0.89 0.97 1.01 1.02
0.16 0.19 0.21 0.23 0.27 0.29 0.31 0.33 0.33 0.35 0.38 0.36 0.28 0.24 0.21 0.20 0.19 0.17 0.15 0.15 0.14 0.17 0.21 0.23 0.26 0.31 0.35 0.38 0.40 0.45 0.49 0.53 0.58 0.62 0.67 0.72 0.79 0.87
0.19 0.23 0.25 0.27 0.29 0.29 0.28 0.26 0.25 0.23 0.25 0.28 0.21 0.15 0.13 0.11 0.11 0.10 0.09 0.09 0.09 0.11 0.13 0.15 0.20 0.25 0.29 0.32 0.34 0.34 0.35 0.38 0.42 0.47 0.52 0.59 0.65 0.73
0.24 0.27 0.29 0.29 0.28 0.25 0.22 0.19 0.19 0.18 0.18 0.20 0.21 0.17 0.13 0.09 0.10 0.10 0.09 0.07 0.07 0.06 0.07 0.08 0.11 0.14 0.16 0.18 0.22 0.23 0.25 0.29 0.37 0.47 0.54 0.60 0.64 0.67
0.32 0.30 0.27 0.25 0.20 0.17 0.16 0.15 0.15 0.17 0.23 0.27 0.25 0.19 0.13 0.11 0.10 0.09 0.11 0.09 0.06 0.04 0.04 0.03 0.04 0.05 0.06 0.09 0.15 0.20 0.26 0.35 0.48 0.62 0.76 0.84 0.87 0.86
0.24 0.21 0.19 0.17 0.14 0.13 0.13 0.13 0.18 0.26 0.33 0.35 0.29 0.20 0.10 0.06 0.08 0.13 0.18 0.22 0.15 0.04 0.06 0.04 0.03 0.04 0.07 0.12 0.19 0.26 0.33 0.42 0.51 0.62 0.73 0.78 0.81 0.88
0.17 0.13 0.10 0.08 0.07 0.05 0.06 0.11 0.16 0.21 0.24 0.23 0.18 0.11 0.10 0.12 0.23 0.33 0.29 0.28 0.17 0.05 0.06 0.07 0.04 0.06 0.08 0.14 0.25 0.29 0.36 0.45 0.53 0.59 0.65 0.68 0.70 0.74
0.08 0.06 0.05 0.04 0.04 0.07 0.13 0.18 0.12 0.08 0.07 0.07 0.10 0.13 0.16 0.16 0.23 0.33 0.30 0.22 0.10 0.04 0.07 0.15 0.10 0.10 0.09 0.13 0.23 0.26 0.29 0.38 0.47 0.54 0.55 0.55 0.56 0.61
0.03 0.03 0.05 0.05 0.06 0.19 0.27 0.23 0.10 0.03 0.02 0.07 0.12 0.12 0.10 0.09 0.11 0.27 0.38 0.40 0.25 0.07 0.06 0.12 0.10 0.11 0.15 0.17 0.22 0.26 0.27 0.33 0.41 0.45 0.45 0.43 0.46 0.52
0.03 0.03 0.03 0.05 0.14 0.26 0.24 0.19 0.10 0.06 0.09 0.06 0.03 0.01 0.01 0.02 0.08 0.23 0.57 0.84 0.59 0.29 0.09 0.22 0.24 0.30 0.42 0.22 0.21 0.24 0.25 0.30 0.35 0.37 0.38 0.39 0.42 0.45
0.07 0.03 0.02 0.10 0.21 0.22 0.16 0.08 0.09 0.16 0.12 0.03 0.01 0.01 0.01 0.02 0.04 0.08 0.30 0.84 1.04 0.60 0.17 0.54 0.66 0.41 0.56 0.36 0.24 0.26 0.34 0.46 0.51 0.50 0.48 0.44 0.42 0.47
0.07 0.04 0.07 0.16 0.15 0.09 0.04 0.04 0.11 0.10 0.03 0.03 0.03 0.03 0.03 0.04 0.04 0.05 0.10 0.25 0.56 0.67 0.37 0.71 1.06 0.68 0.76 0.59 0.36 0.34 0.39 0.61 0.86 0.90 0.84 0.73 0.60 0.53
0.08 0.12 0.14 0.09 0.04 0.01 0.01 0.03 0.04 0.02 0.06 0.12 0.10 0.06 0.04 0.05 0.06 0.09 0.09 0.13 0.21 0.27 0.32 0.46 0.78 0.80 0.91 0.88 0.63 0.48 0.56 0.68 1.02 1.29 1.18 0.95 0.72 0.59
0.13 0.13 0.06 0.01 0.00 0.00 0.01 0.00 0.01 0.02 0.11 0.20 0.17 0.09 0.05 0.06 0.10 0.17 0.28 0.30 0.36 0.29 0.29 0.37 0.51 0.77 0.84 0.67 0.76 0.70 0.76 1.08 1.27 1.47 1.32 1.04 0.81 0.66
0.14 0.04 0.00 0.00 0.01 0.01 0.00 0.00 0.01 0.02 0.06 0.11 0.18 0.17 0.12 0.11 0.13 0.22 0.41 0.52 0.57 0.47 0.40 0.33 0.31 0.38 0.53 0.62 0.66 0.63 0.78 1.05 1.28 1.40 1.19 1.00 0.93 0.83
0.05 0.01 0.01 0.02 0.02 0.02 0.02 0.03 0.02 0.04 0.11 0.20 0.23 0.25 0.27 0.27 0.27 0.29 0.45 0.61 0.62 0.53 0.48 0.40 0.35 0.34 0.33 0.35 0.55 0.77 0.85 1.03 1.14 1.08 0.81 0.80 0.90 0.80
0.01 0.03 0.04 0.03 0.03 0.04 0.06 0.08 0.08 0.07 0.16 0.28 0.34 0.36 0.39 0.37 0.38 0.43 0.50 0.55 0.53 0.46 0.36 0.31 0.38 0.61 0.61 0.40 0.33 0.63 0.95 1.00 0.85 0.76 0.64 0.68 0.90 0.83
0.03 0.05 0.04 0.04 0.05 0.07 0.10 0.13 0.14 0.13 0.19 0.29 0.35 0.39 0.45 0.50 0.49 0.49 0.53 0.56 0.51 0.34 0.18 0.11 0.22 0.58 0.95 0.86 0.66 0.63 0.70 0.85 0.87 0.84 0.67 0.56 0.65 0.63
0.04 0.04 0.03 0.05 0.08 0.11 0.13 0.16 0.21 0.26 0.30 0.40 0.42 0.45 0.51 0.59 0.53 0.48 0.46 0.38 0.31 0.25 0.19 0.11 0.13 0.30 0.56 0.63 0.52 0.44 0.54 0.61 0.73 1.01 0.94 0.75 0.56 0.44
0.04 0.04 0.04 0.05 0.11 0.15 0.18 0.21 0.25 0.27 0.33 0.40 0.44 0.49 0.53 0.59 0.57 0.44 0.34 0.29 0.24 0.22 0.20 0.11 0.07 0.12 0.27 0.48 0.44 0.34 0.35 0.33 0.30 0.31 0.54 0.87 1.20 1.29
0.06 0.06 0.06 0.09 0.14 0.18 0.21 0.23 0.27 0.31 0.39 0.49 0.51 0.49 0.48 0.44 0.35 0.31 0.27 0.27 0.27 0.23 0.18 0.13 0.08 0.09 0.17 0.27 0.34 0.29 0.23 0.19 0.16 0.19 0.35 0.42 0.58 0.84

GEFSNE_prec_meanprecacc_096.txt.gz
Total_Precipitation_Accumulation
0.35 0.36 0.37 0.35 0.36 0.38 0.45 0.58 0.75 0.74 0.60 0.52 0.53 0.54 0.54 0.52 0.53 0.48 0.42 0.48 0.51 0.52 0.57 0.59 0.57 0.56 0.56 0.60 0.68 0.78 0.87 0.92 0.95 0.99 1.03 1.07 1.14 1.24
0.24 0.26 0.27 0.28 0.30 0.34 0.39 0.47 0.60 0.71 0.65 0.50 0.44 0.45 0.47 0.45 0.45 0.39 0.35 0.42 0.43 0.43 0.45 0.46 0.48 0.51 0.54 0.56 0.59 0.65 0.75 0.84 0.89 0.94 1.01 1.08 1.14 1.22
0.17 0.20 0.22 0.24 0.26 0.29 0.33 0.38 0.44 0.51 0.54 0.44 0.37 0.35 0.35 0.34 0.32 0.29 0.26 0.25 0.25 0.30 0.33 0.34 0.36 0.40 0.44 0.49 0.52 0.56 0.62 0.69 0.77 0.85 0.94 1.02 1.06 1.06
0.16 0.19 0.21 0.23 0.27 0.29 0.31 0.33 0.34 0.35 0.38 0.36 0.28 0.24 0.22 0.21 0.19 0.18 0.16 0.16 0.14 0.17 0.21 0.24 0.26 0.31 0.36 0.38 0.41 0.45 0.50 0.55 0.60 0.64 0.70 0.77 0.84 0.91
0.19 0.23 0.25 0.27 0.29 0.29 0.28 0.26 0.25 0.24 0.25 0.28 0.21 0.16 0.13 0.12 0.12 0.10 0.09 0.10 0.09 0.11 0.13 0.15 0.20 0.25 0.29 0.32 0.34 0.34 0.36 0.38 0.43 0.48 0.54 0.61 0.69 0.75
0.24 0.27 0.29 0.29 0.28 0.25 0.22 0.20 0.19 0.18 0.18 0.21 0.22 0.17 0.13 0.09 0.10 0.10 0.09 0.07 0.07 0.06 0.07 0.08 0.11 0.14 0.16 0.19 0.22 0.23 0.25 0.30 0.38 0.47 0.55 0.61 0.65 0.68
0.32 0.30 0.27 0.25 0.20 0.17 0.16 0.15 0.15 0.17 0.23 0.28 0.25 0.19 0.13 0.11 0.10 0.10 0.11 0.09 0.06 0.04 0.04 0.03 0.04 0.05 0.06 0.09 0.15 0.20 0.26 0.36 0.48 0.62 0.76 0.85 0.87 0.86
0.24 0.21 0.19 0.17 0.14 0.13 0.13 0.14 0.18 0.26 0.33 0.35 0.29 0.20 0.10 0.07 0.08 0.13 0.18 0.22 0.15 0.04 0.06 0.04 0.03 0.04 0.07 0.12 0.19 0.26 0.33 0.42 0.51 0.62 0.73 0.78 0.82 0.88
0.17 0.13 0.10 0.08 0.07 0.05 0.06 0.11 0.16 0.21 0.24 0.23 0.19 0.11 0.10 0.12 0.23 0.33 0.29 0.28 0.17 0.05 0.06 0.07 0.04 0.06 0.08 0.14 0.25 0.29 0.36 0.45 0.53 0.59 0.65 0.68 0.70 0.74
0.08 0.06 0.05 0.04 0.04 0.07 0.13 0.18 0.12 0.08 0.07 0.07 0.10 0.13 0.16 0.16 0.23 0.33 0.30 0.22 0.10 0.04 0.07 0.15 0.10 0.10 0.09 0.13 0.23 0.26 0.29 0.38 0.47 0.54 0.55 0.55 0.56 0.61
0.03 0.03 0.05 0.05 0.06 0.19 0.27 0.23 0.10 0.03 0.02 0.07 0.12 0.12 0.10 0.09 0.11 0.27 0.38 0.40 0.25 0.07 0.06 0.12 0.10 0.11 0.15 0.17 0.22 0.26 0.27 0.33 0.41 0.45 0.45 0.43 0.46 0.52
0.03 0.03 0.03 0.05 0.14 0.26 0.24 0.19 0.10 0.06 0.09 0.06 0.03 0.01 0.01 0.02 0.08 0.23 0.57 0.84 0.59 0.29 0.09 0.22 0.24 0.30 0.42 0.22 0.21 0.24 0.25 0.30 0.35 0.37 0.38 0.39 0.42 0.45
0.07 0.03 0.02 0.10 0.21 0.22 0.16 0.08 0.09 0.16 0.12 0.03 0.01 0.01 0.01 0.02 0.04 0.08 0.30 0.84 1.04 0.60 0.17 0.54 0.66 0.41 0.56 0.36 0.24 0.26 0.34 0.46 0.51 0.50 0.48 0.44 0.42 0.47
0.07 0.04 0.07 0.16 0.15 0.09 0.04 0.04 0.11 0.10 0.03 0.03 0.03 0.03 0.03 0.04 0.04 0.05 0.10 0.25 0.56 0.67 0.37 0.71 1.07 0.68 0.76 0.59 0.36 0.34 0.39 0.61 0.86 0.90 0.84 0.73 0.60 0.53
0.08 0.12 0.14 0.09 0.04 0.01 0.01 0.03 0.04 0.02 0.06 0.12 0.10 0.06 0.04 0.05 0.06 0.09 0.09 0.13 0.21 0.27 0.32 0.46 0.78 0.80 0.92 0.89 0.63 0.48 0.56 0.68 1.02 1.29 1.18 0.95 0.72 0.59
0.13 0.13 0.06 0.01 0.00 0.00 0.01 0.00 0.01 0.02 0.11 0.20 0.17 0.09 0.05 0.06 0.10 0.17 0.28 0.30 0.36 0.29 0.29 0.37 0.51 0.77 0.84 0.67 0.76 0.70 0.76 1.08 1.27 1.47 1.32 1.04 0.81 0.66
0.14 0.05 0.00 0.00 0.01 0.01 0.00 0.00 0.01 0.02 0.06 0.11 0.18 0.17 0.12 0.11 0.13 0.22 0.41 0.52 0.57 0.47 0.40 0.33 0.31 0.38 0.53 0.62 0.67 0.63 0.78 1.05 1.28 1.40 1.19 1.00 0.93 0.83
0.06 0.01 0.01 0.02 0.02 0.02 0.02 0.03 0.02 0.04 0.11 0.20 0.23 0.25 0.27 0.27 0.27 0.29 0.45 0.61 0.62 0.53 0.48 0.40 0.35 0.35 0.33 0.35 0.55 0.78 0.85 1.03 1.14 1.08 0.81 0.80 0.90 0.80
0.02 0.03 0.04 0.04 0.04 0.04 0.06 0.08 0.08 0.07 0.16 0.28 0.34 0.36 0.39 0.37 0.38 0.43 0.50 0.55 0.53 0.46 0.36 0.31 0.39 0.62 0.62 0.40 0.33 0.63 0.95 1.00 0.85 0.76 0.64 0.68 0.90 0.83
0.03 0.05 0.05 0.04 0.05 0.08 0.10 0.13 0.14 0.13 0.19 0.29 0.35 0.39 0.45 0.50 0.49 0.49 0.53 0.56 0.51 0.34 0.19 0.11 0.22 0.59 0.96 0.87 0.66 0.63 0.70 0.85 0.87 0.84 0.67 0.56 0.65 0.63
0.05 0.04 0.04 0.05 0.08 0.12 0.14 0.17 0.21 0.26 0.31 0.40 0.42 0.45 0.51 0.59 0.53 0.48 0.47 0.39 0.32 0.25 0.19 0.11 0.13 0.30 0.57 0.64 0.53 0.44 0.54 0.61 0.73 1.01 0.94 0.76 0.57 0.44
0.05 0.05 0.05 0.06 0.12 0.17 0.19 0.22 0.26 0.28 0.34 0.41 0.45 0.49 0.53 0.60 0.57 0.44 0.34 0.29 0.24 0.23 0.20 0.11 0.07 0.12 0.28 0.49 0.44 0.34 0.35 0.33 0.30 0.31 0.54 0.87 1.21 1.30
0.07 0.08 0.08 0.11 0.16 0.20 0.23 0.25 0.29 0.32 0.40 0.49 0.52 0.50 0.49 0.45 0.35 0.31 0.28 0.27 0.28 0.23 0.18 0.13 0.08 0.10 0.18 0.28 0.34 0.29 0.23 0.19 0.16 0.19 0.35 0.42 0.58 0.84

GEFSNE_prec_meanprecacc_102.txt.gz
Total_Precipitation_Accumulation
0.39 0.39 0.38 0.36 0.37 0.39 0.46 0.59 0.76 0.75 0.60 0.52 0.53 0.54 0.54 0.53 0.53 0.48 0.42 0.49 0.51 0.53 0.57 0.60 0.58 0.56 0.57 0.61 0.70 0.80 0.90 0.94 0.96 1.01 1.05 1.10 1.18 1.29
0.26 0.27 0.29 0.29 0.31 0.34 0.40 0.48 0.61 0.72 0.66 0.50 0.44 0.45 0.47 0.45 0.46 0.39 0.36 0.43 0.44 0.44 0.45 0.47 0.48 0.51 0.54 0.56 0.60 0.66 0.77 0.85 0.91 0.96 1.03 1.10 1.17 1.25
0.18 0.20 0.23 0.24 0.27 0.29 0.33 0.38 0.44 0.52 0.54 0.44 0.37 0.35 0.35 0.34 0.33 0.30 0.26 0.26 0.26 0.31 0.33 0.34 0.36 0.41 0.45 0.50 0.53 0.57 0.63 0.70 0.78 0.86 0.95 1.04 1.08 1.09
0.17 0.19 0.21 0.24 0.27 0.29 0.31 0.33 0.34 0.35 0.38 0.36 0.28 0.24 0.22 0.21 0.20 0.18 0.16 0.16 0.15 0.18 0.22 0.24 0.27 0.32 0.36 0.39 0.41 0.46 0.51 0.56 0.61 0.66 0.72 0.80 0.86 0.93
0.20 0.23 0.25 0.27 0.29 0.29 0.28 0.26 0.25 0.24 0.25 0.28 0.22 0.16 0.13 0.12 0.12 0.11 0.10 0.10 0.10 0.12 0.13 0.16 0.21 0.25 0.29 0.33 0.34 0.35 0.36 0.39 0.44 0.49 0.55 0.63 0.71 0.77
0.24 0.27 0.29 0.29 0.28 0.25 0.22 0.20 0.19 0.18 0.18 0.21 0.22 0.17 0.13 0.09 0.11 0.11 0.10 0.08 0.08 0.07 0.07 0.09 0.11 0.14 0.16 0.19 0.22 0.24 0.25 0.30 0.38 0.48 0.56 0.62 0.66 0.69
0.32 0.30 0.27 0.25 0.20 0.17 0.16 0.15 0.15 0.17 0.23 0.28 0.25 0.19 0.14 0.12 0.11 0.10 0.12 0.09 0.06 0.05 0.05 0.04 0.04 0.05 0.06 0.10 0.15 0.20 0.26 0.36 0.48 0.63 0.76 0.85 0.88 0.87
0.24 0.21 0.19 0.17 0.14 0.13 0.13 0.14 0.19 0.26 0.34 0.35 0.29 0.20 0.10 0.07 0.09 0.14 0.19 0.23 0.16 0.05 0.06 0.04 0.03 0.04 0.07 0.12 0.19 0.26 0.33 0.42 0.51 0.62 0.73 0.78 0.82 0.88
0.17 0.13 0.10 0.08 0.07 0.05 0.06 0.11 0.17 0.22 0.24 0.23 0.19 0.11 0.11 0.13 0.23 0.33 0.30 0.28 0.18 0.05 0.07 0.07 0.04 0.06 0.08 0.14 0.25 0.29 0.36 0.45 0.53 0.59 0.65 0.68 0.70 0.74
0.08 0.06 0.05 0.04 0.04 0.07 0.13 0.18 0.12 0.08 0.07 0.07 0.10 0.13 0.16 0.17 0.23 0.34 0.30 0.22 0.10 0.04 0.07 0.15 0.10 0.10 0.09 0.13 0.23 0.26 0.29 0.38 0.47 0.54 0.55 0.55 0.56 0.61
0.03 0.03 0.05 0.05 0.07 0.19 0.27 0.23 0.10 0.03 0.02 0.07 0.12 0.12 0.11 0.09 0.11 0.27 0.38 0.40 0.25 0.07 0.06 0.12 0.10 0.11 0.15 0.17 0.22 0.26 0.27 0.33 0.41 0.45 0.45 0.43 0.46 0.52
0.03 0.03 0.04 0.05 0.14 0.26 0.24 0.19 0.10 0.06 0.09 0.06 0.03 0.01 0.01 0.02 0.08 0.23 0.57 0.84 0.59 0.29 0.09 0.22 0.24 0.30 0.42 0.22 0.21 0.24 0.25 0.30 0.35 0.37 0.38 0.39 0.42 0.45
0.07 0.03 0.02 0.10 0.21 0.22 0.16 0.08 0.09 0.16 0.12 0.03 0.01 0.01 0.01 0.02 0.04 0.08 0.30 0.84 1.04 0.60 0.17 0.54 0.66 0.41 0.56 0.36 0.24 0.26 0.34 0.46 0.51 0.50 0.48 0.44 0.42 0.47
0.07 0.04 0.07 0.16 0.15 0.09 0.04 0.04 0.11 0.10 0.03 0.03 0.03 0.03 0.03 0.04 0.04 0.05 0.10 0.25 0.56 0.67 0.37 0.71 1.07 0.69 0.76 0.59 0.36 0.34 0.39 0.61 0.86 0.90 0.84 0.73 0.60 0.53
0.09 0.13 0.15 0.10 0.04 0.01 0.01 0.03 0.04 0.02 0.06 0.12 0.10 0.06 0.04 0.05 0.06 0.09 0.09 0.13 0.21 0.27 0.32 0.46 0.79 0.80 0.92 0.89 0.63 0.48 0.56 0.68 1.02 1.29 1.18 0.95 0.72 0.59
0.13 0.13 0.06 0.01 0.00 0.00 0.01 0.00 0.01 0.02 0.11 0.20 0.17 0.09 0.05 0.06 0.10 0.17 0.28 0.30 0.36 0.29 0.29 0.37 0.51 0.78 0.84 0.67 0.76 0.70 0.76 1.08 1.27 1.47 1.32 1.04 0.81 0.66
0.15 0.05 0.01 0.00 0.01 0.01 0.01 0.01 0.01 0.02 0.06 0.11 0.18 0.17 0.12 0.11 0.13 0.22 0.41 0.52 0.57 0.47 0.40 0.33 0.31 0.38 0.53 0.62 0.67 0.63 0.78 1.05 1.28 1.41 1.19 1.00 0.93 0.83
0.07 0.01 0.02 0.02 0.03 0.03 0.03 0.03 0.02 0.04 0.11 0.20 0.23 0.25 0.27 0.27 0.27 0.29 0.45 0.61 0.62 0.53 0.48 0.40 0.35 0.35 0.33 0.35 0.55 0.78 0.85 1.03 1.14 1.08 0.81 0.80 0.90 0.80
0.03 0.03 0.04 0.04 0.04 0.05 0.07 0.09 0.08 0.07 0.16 0.28 0.34 0.36 0.39 0.37 0.38 0.43 0.50 0.55 0.53 0.46 0.36 0.31 0.39 0.62 0.62 0.40 0.33 0.63 0.95 1.00 0.85 0.76 0.64 0.68 0.90 0.83
0.04 0.06 0.05 0.05 0.06 0.09 0.11 0.14 0.15 0.14 0.20 0.29 0.35 0.39 0.46 0.50 0.49 0.49 0.53 0.56 0.51 0.34 0.19 0.11 0.22 0.59 0.96 0.87 0.66 0.63 0.71 0.85 0.87 0.85 0.67 0.57 0.65 0.63
0.05 0.05 0.04 0.06 0.09 0.13 0.15 0.18 0.22 0.27 0.31 0.41 0.43 0.46 0.52 0.59 0.54 0.48 0.47 0.39 0.32 0.26 0.19 0.11 0.13 0.30 0.57 0.65 0.54 0.44 0.54 0.61 0.73 1.01 0.94 0.76 0.57 0.44
0.06 0.06 0.06 0.07 0.13 0.18 0.21 0.23 0.27 0.29 0.35 0.42 0.46 0.51 0.55 0.61 0.57 0.44 0.34 0.30 0.24 0.23 0.20 0.11 0.07 0.13 0.29 0.50 0.45 0.34 0.35 0.33 0.30 0.31 0.55 0.88 1.22 1.30
0.08 0.10 0.09 0.12 0.17 0.21 0.25 0.27 0.31 0.34 0.41 0.51 0.54 0.52 0.51 0.47 0.36 0.32 0.28 0.28 0.29 0.24 0.19 0.14 0.09 0.11 0.19 0.29 0.35 0.30 0.23 0.19 0.16 0.19 0.35 0.42 0.58 0.85

GEFSNE_prec_meanprecacc_108.txt.gz
Total_Precipitation_Accumulation
0.46 0.46 0.44 0.41 0.40 0.41 0.47 0.61 0.78 0.76 0.62 0.53 0.54 0.54 0.55 0.53 0.54 0.49 0.42 0.49 0.52 0.53 0.57 0.60 0.58 0.57 0.58 0.62 0.71 0.82 0.93 0.98 1.01 1.07 1.11 1.16 1.25 1.37
0.33 0.34 0.34 0.34 0.35 0.38 0.43 0.50 0.63 0.73 0.67 0.51 0.44 0.45 0.47 0.45 0.46 0.40 0.36 0.44 0.45 0.44 0.45 0.47 0.49 0.52 0.55 0.57 0.61 0.67 0.78 0.88 0.94 1.00 1.07 1.14 1.21 1.29
0.25 0.25 0.27 0.28 0.31 0.33 0.36 0.41 0.47 0.54 0.55 0.45 0.38 0.35 0.35 0.34 0.33 0.30 0.27 0.26 0.26 0.32 0.34 0.35 0.37 0.41 0.46 0.50 0.53 0.58 0.64 0.72 0.81 0.90 0.99 1.06 1.10 1.11
0.23 0.24 0.26 0.27 0.30 0.33 0.34 0.35 0.36 0.37 0.40 0.37 0.29 0.25 0.22 0.21 0.20 0.19 0.17 0.17 0.15 0.19 0.23 0.25 0.28 0.33 0.38 0.40 0.43 0.47 0.52 0.58 0.64 0.69 0.75 0.82 0.88 0.95
0.23 0.26 0.28 0.29 0.31 0.31 0.30 0.28 0.27 0.25 0.26 0.29 0.22 0.16 0.14 0.12 0.13 0.11 0.10 0.11 0.10 0.13 0.14 0.16 0.21 0.26 0.31 0.35 0.37 0.37 0.37 0.41 0.46 0.52 0.57 0.64 0.73 0.79
0.27 0.29 0.31 0.31 0.30 0.27 0.23 0.21 0.20 0.19 0.19 0.22 0.22 0.18 0.14 0.09 0.11 0.11 0.10 0.09 0.08 0.07 0.08 0.09 0.12 0.15 0.17 0.20 0.24 0.26 0.27 0.32 0.40 0.50 0.58 0.64 0.68 0.71
0.34 0.32 0.29 0.26 0.22 0.18 0.17 0.16 0.15 0.17 0.23 0.28 0.26 0.20 0.14 0.12 0.11 0.11 0.12 0.10 0.07 0.05 0.05 0.04 0.04 0.05 0.07 0.10 0.16 0.21 0.28 0.38 0.50 0.65 0.78 0.87 0.89 0.89
0.27 0.23 0.21 0.19 0.16 0.15 0.14 0.14 0.19 0.26 0.34 0.36 0.29 0.20 0.10 0.07 0.09 0.15 0.20 0.23 0.16 0.05 0.07 0.04 0.03 0.05 0.07 0.12 0.19 0.26 0.33 0.43 0.53 0.64 0.74 0.80 0.84 0.90
0.19 0.15 0.11 0.09 0.08 0.06 0.06 0.12 0.17 0.22 0.25 0.24 0.19 0.11 0.11 0.13 0.24 0.34 0.30 0.29 0.18 0.05 0.07 0.07 0.04 0.06 0.08 0.14 0.25 0.29 0.36 0.45 0.53 0.60 0.66 0.70 0.72 0.76
0.09 0.07 0.05 0.04 0.04 0.07 0.14 0.18 0.12 0.08 0.07 0.07 0.10 0.14 0.16 0.17 0.24 0.34 0.30 0.23 0.11 0.05 0.08 0.15 0.10 0.10 0.09 0.13 0.23 0.26 0.29 0.38 0.47 0.54 0.55 0.55 0.57 0.62
0.04 0.04 0.06 0.05 0.07 0.19 0.27 0.23 0.10 0.03 0.03 0.07 0.13 0.13 0.11 0.10 0.12 0.27 0.38 0.40 0.25 0.07 0.06 0.12 0.10 0.12 0.15 0.17 0.22 0.26 0.27 0.33 0.41 0.45 0.45 0.43 0.46 0.52
0.03 0.03 0.04 0.06 0.14 0.27 0.25 0.19 0.10 0.06 0.09 0.06 0.03 0.02 0.01 0.03 0.08 0.24 0.58 0.85 0.59 0.29 0.09 0.22 0.24 0.30 0.42 0.22 0.21 0.24 0.25 0.30 0.35 0.37 0.38 0.39 0.42 0.45
0.07 0.03 0.02 0.11 0.21 0.23 0.16 0.08 0.09 0.16 0.12 0.04 0.01 0.01 0.01 0.02 0.04 0.09 0.30 0.84 1.05 0.61 0.17 0.55 0.66 0.41 0.56 0.36 0.24 0.26 0.34 0.46 0.51 0.50 0.48 0.44 0.42 0.47
0.07 0.05 0.07 0.17 0.16 0.09 0.04 0.05 0.11 0.10 0.03 0.03 0.04 0.03 0.03 0.04 0.04 0.06 0.10 0.25 0.56 0.68 0.38 0.71 1.07 0.69 0.76 0.59 0.36 0.34 0.39 0.61 0.86 0.90 0.84 0.73 0.60 0.53
0.09 0.13 0.15 0.10 0.04 0.01 0.01 0.04 0.04 0.02 0.07 0.13 0.11 0.06 0.04 0.05 0.06 0.09 0.09 0.14 0.22 0.27 0.32 0.46 0.79 0.81 0.92 0.89 0.63 0.48 0.56 0.68 1.02 1.29 1.18 0.95 0.72 0.59
0.14 0.14 0.07 0.02 0.01 0.01 0.01 0.01 0.01 0.03 0.11 0.21 0.17 0.09 0.05 0.06 0.10 0.17 0.28 0.30 0.36 0.29 0.29 0.37 0.51 0.78 0.85 0.67 0.77 0.70 0.76 1.08 1.27 1.47 1.32 1.04 0.81 0.66
0.16 0.06 0.01 0.01 0.01 0.01 0.01 0.01 0.01 0.02 0.06 0.11 0.18 0.17 0.12 0.11 0.13 0.22 0.41 0.52 0.57 0.47 0.40 0.33 0.31 0.38 0.53 0.62 0.67 0.64 0.78 1.05 1.28 1.41 1.19 1.00 0.93 0.83
0.08 0.02 0.03 0.03 0.03 0.03 0.03 0.03 0.03 0.05 0.11 0.20 0.23 0.25 0.27 0.27 0.27 0.29 0.45 0.61 0.62 0.53 0.48 0.40 0.35 0.35 0.33 0.35 0.55 0.78 0.85 1.03 1.14 1.08 0.81 0.80 0.90 0.80
0.04 0.04 0.05 0.05 0.05 0.05 0.07 0.09 0.09 0.07 0.16 0.28 0.34 0.36 0.39 0.37 0.39 0.43 0.50 0.55 0.53 0.46 0.36 0.31 0.39 0.62 0.62 0.40 0.33 0.63 0.95 1.00 0.85 0.76 0.64 0.68 0.90 0.83
0.06 0.07 0.06 0.06 0.07 0.10 0.12 0.14 0.15 0.14 0.20 0.29 0.35 0.39 0.46 0.50 0.49 0.49 0.53 0.56 0.51 0.34 0.19 0.11 0.22 0.59 0.96 0.87 0.66 0.63 0.71 0.85 0.87 0.85 0.67 0.57 0.65 0.63
0.07 0.06 0.05 0.07 0.11 0.14 0.16 0.19 0.22 0.27 0.32 0.42 0.43 0.46 0.52 0.60 0.54 0.49 0.47 0.39 0.32 0.26 0.20 0.11 0.13 0.30 0.57 0.65 0.54 0.44 0.54 0.61 0.73 1.01 0.94 0.76 0.57 0.44
0.07 0.08 0.07 0.09 0.15 0.19 0.22 0.25 0.29 0.30 0.36 0.43 0.47 0.51 0.56 0.62 0.58 0.45 0.35 0.30 0.25 0.23 0.20 0.11 0.07 0.13 0.30 0.51 0.45 0.34 0.35 0.33 0.30 0.31 0.55 0.88 1.22 1.30
0.10 0.11 0.11 0.14 0.19 0.23 0.27 0.28 0.32 0.35 0.43 0.53 0.55 0.53 0.52 0.48 0.38 0.33 0.29 0.29 0.29 0.25 0.20 0.15 0.10 0.12 0.20 0.30 0.35 0.30 0.23 0.20 0.16 0.19 0.35 0.42 0.58 0.85

GEFSNE_prec_meanprecacc_114.txt.gz
Total_Precipitation_Accumulation
0.57 0.56 0.53 0.49 0.47 0.49 0.54 0.67 0.83 0.80 0.64 0.54 0.54 0.55 0.55 0.53 0.54 0.49 0.42 0.50 0.52 0.54 0.58 0.61 0.60 0.60 0.60 0.64 0.72 0.83 0.95 1.01 1.06 1.13 1.21 1.25 1.31 1.44
0.45 0.45 0.44 0.43 0.42 0.45 0.49 0.55 0.66 0.76 0.69 0.52 0.45 0.46 0.48 0.46 0.47 0.40 0.37 0.45 0.46 0.46 0.46 0.48 0.50 0.54 0.57 0.58 0.62 0.68 0.81 0.91 0.98 1.06 1.15 1.22 1.28 1.36
0.36 0.36 0.38 0.37 0.37 0.38 0.41 0.45 0.50 0.57 0.59 0.47 0.40 0.37 0.37 0.36 0.35 0.32 0.29 0.28 0.29 0.34 0.35 0.36 0.39 0.43 0.48 0.51 0.54 0.59 0.67 0.76 0.86 0.95 1.06 1.13 1.17 1.17
0.33 0.33 0.36 0.37 0.38 0.38 0.38 0.39 0.40 0.41 0.43 0.40 0.32 0.27 0.24 0.23 0.22 0.21 0.19 0.19 0.18 0.22 0.24 0.26 0.29 0.34 0.38 0.41 0.44 0.48 0.54 0.60 0.67 0.74 0.81 0.87 0.93 0.99
0.33 0.35 0.36 0.37 0.38 0.36 0.34 0.31 0.30 0.28 0.29 0.32 0.25 0.18 0.15 0.14 0.14 0.12 0.12 0.12 0.12 0.14 0.16 0.17 0.22 0.27 0.31 0.36 0.38 0.37 0.38 0.43 0.49 0.56 0.62 0.69 0.77 0.83
0.37 0.37 0.37 0.36 0.34 0.30 0.27 0.24 0.23 0.22 0.22 0.24 0.24 0.19 0.15 0.10 0.12 0.13 0.12 0.10 0.09 0.08 0.10 0.10 0.13 0.15 0.17 0.21 0.26 0.28 0.29 0.34 0.42 0.53 0.62 0.68 0.71 0.76
0.45 0.42 0.36 0.32 0.26 0.22 0.20 0.19 0.18 0.19 0.25 0.30 0.27 0.21 0.15 0.13 0.12 0.12 0.14 0.12 0.09 0.07 0.06 0.05 0.05 0.06 0.07 0.11 0.17 0.24 0.32 0.41 0.53 0.68 0.81 0.90 0.92 0.93
0.37 0.33 0.29 0.26 0.21 0.19 0.17 0.17 0.21 0.28 0.36 0.37 0.31 0.22 0.12 0.09 0.11 0.16 0.21 0.25 0.19 0.07 0.08 0.06 0.04 0.05 0.07 0.12 0.20 0.28 0.37 0.47 0.57 0.68 0.78 0.83 0.87 0.94
0.27 0.22 0.18 0.14 0.12 0.09 0.09 0.14 0.18 0.23 0.26 0.25 0.20 0.13 0.12 0.14 0.25 0.36 0.32 0.30 0.20 0.07 0.09 0.09 0.05 0.07 0.09 0.15 0.26 0.30 0.37 0.47 0.56 0.65 0.71 0.75 0.76 0.80
0.15 0.11 0.09 0.07 0.07 0.09 0.15 0.19 0.13 0.08 0.07 0.07 0.10 0.14 0.17 0.18 0.25 0.35 0.32 0.24 0.12 0.06 0.09 0.16 0.11 0.11 0.10 0.14 0.24 0.26 0.30 0.39 0.49 0.56 0.61 0.63 0.63 0.68
0.08 0.07 0.09 0.08 0.09 0.21 0.28 0.23 0.11 0.03 0.03 0.07 0.13 0.13 0.12 0.11 0.13 0.29 0.39 0.41 0.26 0.08 0.07 0.13 0.10 0.12 0.15 0.17 0.22 0.26 0.28 0.34 0.41 0.46 0.48 0.49 0.52 0.57
0.06 0.06 0.07 0.08 0.16 0.28 0.25 0.20 0.11 0.06 0.09 0.07 0.03 0.02 0.02 0.03 0.09 0.25 0.59 0.85 0.60 0.30 0.10 0.23 0.25 0.30 0.43 0.22 0.21 0.24 0.25 0.31 0.35 0.38 0.39 0.41 0.44 0.47
0.10 0.06 0.04 0.12 0.23 0.23 0.16 0.08 0.09 0.16 0.12 0.04 0.01 0.01 0.01 0.02 0.04 0.09 0.31 0.85 1.05 0.61 0.18 0.55 0.67 0.41 0.57 0.36 0.24 0.26 0.34 0.46 0.51 0.50 0.48 0.44 0.43 0.48
0.11 0.07 0.09 0.19 0.17 0.10 0.05 0.05 0.11 0.10 0.03 0.03 0.04 0.03 0.03 0.04 0.04 0.06 0.10 0.26 0.57 0.68 0.38 0.72 1.07 0.69 0.77 0.60 0.37 0.35 0.39 0.61 0.86 0.91 0.84 0.73 0.60 0.53
0.13 0.17 0.18 0.12 0.06 0.02 0.02 0.04 0.04 0.02 0.07 0.13 0.11 0.06 0.04 0.05 0.06 0.09 0.10 0.14 0.22 0.28 0.33 0.47 0.80 0.81 0.93 0.90 0.64 0.49 0.56 0.68 1.02 1.29 1.19 0.95 0.72 0.59
0.19 0.18 0.11 0.04 0.02 0.01 0.02 0.01 0.01 0.03 0.12 0.21 0.17 0.09 0.05 0.07 0.10 0.17 0.28 0.30 0.36 0.29 0.30 0.37 0.52 0.78 0.85 0.68 0.77 0.71 0.76 1.08 1.27 1.47 1.32 1.04 0.81 0.66
0.22 0.11 0.05 0.03 0.03 0.02 0.02 0.01 0.01 0.02 0.06 0.12 0.18 0.17 0.12 0.11 0.13 0.23 0.41 0.52 0.57 0.47 0.40 0.34 0.31 0.39 0.54 0.63 0.68 0.64 0.78 1.05 1.28 1.41 1.19 1.01 0.93 0.83
0.15 0.08 0.07 0.06 0.06 0.05 0.05 0.04 0.03 0.05 0.11 0.20 0.24 0.25 0.27 0.27 0.27 0.29 0.46 0.61 0.62 0.53 0.49 0.40 0.36 0.35 0.33 0.35 0.56 0.78 0.85 1.03 1.14 1.08 0.81 0.80 0.90 0.80
0.10 0.09 0.10 0.09 0.08 0.07 0.09 0.10 0.09 0.08 0.17 0.29 0.35 0.37 0.39 0.37 0.39 0.43 0.50 0.56 0.54 0.46 0.37 0.31 0.39 0.62 0.63 0.40 0.33 0.63 0.95 1.00 0.85 0.76 0.64 0.68 0.90 0.83
0.10 0.11 0.10 0.09 0.10 0.12 0.14 0.15 0.16 0.15 0.20 0.30 0.36 0.40 0.46 0.51 0.49 0.50 0.54 0.57 0.52 0.35 0.19 0.12 0.23 0.60 0.97 0.87 0.66 0.63 0.71 0.85 0.87 0.85 0.67 0.57 0.65 0.63
0.11 0.10 0.08 0.10 0.13 0.16 0.18 0.20 0.24 0.28 0.32 0.42 0.44 0.46 0.53 0.60 0.55 0.49 0.48 0.40 0.33 0.27 0.20 0.12 0.13 0.31 0.58 0.66 0.54 0.44 0.54 0.61 0.73 1.01 0.94 0.76 0.57 0.44
0.12 0.12 0.10 0.12 0.17 0.22 0.24 0.27 0.30 0.32 0.37 0.44 0.48 0.52 0.56 0.63 0.59 0.45 0.35 0.31 0.26 0.24 0.21 0.12 0.08 0.14 0.31 0.51 0.45 0.34 0.35 0.33 0.30 0.31 0.55 0.88 1.22 1.30
0.14 0.15 0.14 0.17 0.22 0.26 0.29 0.31 0.35 0.37 0.44 0.54 0.57 0.55 0.54 0.49 0.39 0.34 0.30 0.30 0.30 0.25 0.21 0.16 0.11 0.14 0.21 0.30 0.36 0.30 0.23 0.20 0.16 0.19 0.36 0.42 0.58 0.85

GEFSNE_prec_meanprecacc_120.txt.gz
Total_Precipitation_Accumulation
0.63 0.64 0.63 0.59 0.57 0.59 0.66 0.80 0.96 0.92 0.74 0.62 0.60 0.59 0.58 0.56 0.57 0.51 0.43 0.51 0.54 0.54 0.59 0.62 0.61 0.61 0.63 0.68 0.75 0.87 0.98 1.02 1.08 1.16 1.25 1.32 1.39 1.50
0.54 0.54 0.53 0.53 0.54 0.57 0.61 0.67 0.78 0.88 0.80 0.61 0.52 0.51 0.52 0.49 0.50 0.43 0.38 0.47 0.47 0.47 0.47 0.49 0.51 0.56 0.59 0.62 0.66 0.72 0.84 0.93 1.00 1.09 1.19 1.28 1.36 1.43
0.47 0.47 0.48 0.48 0.49 0.50 0.53 0.57 0.62 0.68 0.70 0.58 0.48 0.44 0.43 0.41 0.39 0.35 0.31 0.30 0.30 0.36 0.37 0.37 0.40 0.45 0.51 0.55 0.58 0.62 0.70 0.79 0.88 0.99 1.11 1.20 1.25 1.25
0.44 0.44 0.46 0.48 0.51 0.52 0.53 0.52 0.52 0.53 0.55 0.52 0.42 0.36 0.31 0.28 0.25 0.23 0.21 0.20 0.19 0.24 0.27 0.28 0.31 0.37 0.42 0.45 0.48 0.53 0.58 0.64 0.72 0.81 0.88 0.95 1.01 1.09
0.44 0.47 0.48 0.50 0.53 0.53 0.51 0.48 0.45 0.42 0.41 0.42 0.34 0.26 0.22 0.19 0.18 0.15 0.13 0.13 0.13 0.16 0.17 0.19 0.24 0.29 0.35 0.41 0.42 0.42 0.42 0.45 0.52 0.62 0.71 0.78 0.85 0.93
0.49 0.50 0.51 0.51 0.50 0.48 0.44 0.42 0.40 0.39 0.38 0.38 0.34 0.27 0.21 0.16 0.16 0.15 0.14 0.11 0.11 0.09 0.11 0.12 0.15 0.18 0.20 0.26 0.30 0.31 0.32 0.36 0.45 0.57 0.70 0.76 0.78 0.83
0.59 0.57 0.52 0.48 0.41 0.37 0.35 0.34 0.33 0.34 0.39 0.41 0.36 0.28 0.21 0.17 0.15 0.14 0.15 0.14 0.11 0.09 0.08 0.07 0.07 0.08 0.10 0.14 0.20 0.28 0.35 0.44 0.56 0.71 0.87 0.98 1.00 1.00
0.50 0.48 0.44 0.41 0.37 0.36 0.35 0.32 0.33 0.39 0.45 0.44 0.37 0.26 0.15 0.11 0.13 0.18 0.23 0.27 0.21 0.09 0.10 0.08 0.06 0.07 0.09 0.14 0.23 0.32 0.41 0.51 0.61 0.73 0.83 0.89 0.94 1.00
0.39 0.35 0.30 0.26 0.24 0.22 0.24 0.29 0.30 0.32 0.32 0.29 0.24 0.16 0.15 0.17 0.27 0.38 0.34 0.32 0.22 0.09 0.10 0.11 0.08 0.09 0.11 0.17 0.28 0.33 0.41 0.50 0.60 0.69 0.76 0.80 0.82 0.86
0.28 0.25 0.21 0.19 0.18 0.19 0.24 0.28 0.21 0.14 0.11 0.10 0.12 0.16 0.19 0.20 0.27 0.37 0.34 0.27 0.15 0.09 0.12 0.18 0.13 0.13 0.12 0.16 0.26 0.28 0.32 0.41 0.51 0.60 0.66 0.68 0.69 0.72
0.21 0.21 0.21 0.18 0.19 0.30 0.35 0.30 0.16 0.07 0.05 0.09 0.14 0.14 0.12 0.12 0.14 0.30 0.41 0.43 0.28 0.10 0.09 0.15 0.12 0.14 0.18 0.19 0.24 0.28 0.29 0.35 0.43 0.50 0.53 0.56 0.58 0.62
0.21 0.20 0.20 0.18 0.25 0.35 0.31 0.25 0.15 0.09 0.11 0.08 0.04 0.02 0.02 0.04 0.10 0.26 0.60 0.87 0.62 0.31 0.11 0.24 0.27 0.32 0.45 0.24 0.23 0.25 0.26 0.32 0.36 0.40 0.44 0.48 0.51 0.52
0.22 0.19 0.18 0.25 0.33 0.31 0.22 0.12 0.13 0.19 0.14 0.05 0.02 0.01 0.01 0.02 0.05 0.10 0.32 0.86 1.07 0.62 0.18 0.56 0.68 0.43 0.57 0.37 0.25 0.27 0.35 0.47 0.52 0.52 0.51 0.49 0.48 0.52
0.19 0.16 0.20 0.31 0.28 0.19 0.11 0.09 0.15 0.13 0.05 0.04 0.04 0.03 0.03 0.04 0.05 0.06 0.11 0.26 0.58 0.69 0.39 0.73 1.08 0.70 0.77 0.60 0.37 0.35 0.40 0.61 0.87 0.91 0.85 0.75 0.62 0.56
0.22 0.27 0.29 0.23 0.15 0.11 0.08 0.09 0.08 0.05 0.08 0.14 0.11 0.07 0.04 0.05 0.07 0.09 0.10 0.14 0.22 0.28 0.34 0.48 0.80 0.83 0.94 0.90 0.64 0.49 0.57 0.68 1.02 1.30 1.19 0.96 0.73 0.60
0.30 0.29 0.21 0.14 0.10 0.09 0.08 0.07 0.05 0.05 0.13 0.22 0.18 0.10 0.06 0.07 0.10 0.18 0.28 0.31 0.36 0.29 0.30 0.38 0.52 0.79 0.86 0.69 0.78 0.71 0.77 1.09 1.28 1.47 1.32 1.04 0.82 0.67
0.34 0.21 0.13 0.10 0.09 0.08 0.07 0.06 0.05 0.06 0.09 0.13 0.19 0.18 0.13 0.12 0.14 0.23 0.41 0.53 0.58 0.47 0.40 0.34 0.31 0.39 0.54 0.63 0.68 0.65 0.79 1.06 1.29 1.41 1.20 1.01 0.94 0.83
0.23 0.15 0.13 0.12 0.11 0.10 0.09 0.08 0.07 0.08 0.14 0.22 0.25 0.27 0.29 0.28 0.28 0.30 0.46 0.62 0.63 0.54 0.49 0.41 0.36 0.36 0.34 0.35 0.56 0.78 0.86 1.03 1.15 1.09 0.82 0.81 0.90 0.81
0.16 0.15 0.15 0.14 0.13 0.12 0.13 0.14 0.13 0.11 0.19 0.31 0.36 0.38 0.41 0.38 0.40 0.45 0.51 0.56 0.54 0.47 0.37 0.32 0.40 0.63 0.63 0.41 0.33 0.63 0.95 1.01 0.85 0.76 0.64 0.68 0.90 0.83
0.15 0.16 0.16 0.15 0.15 0.17 0.18 0.19 0.20 0.18 0.23 0.32 0.37 0.41 0.48 0.52 0.51 0.51 0.55 0.57 0.52 0.36 0.20 0.12 0.23 0.60 0.97 0.87 0.66 0.63 0.71 0.85 0.87 0.85 0.67 0.57 0.65 0.63
0.17 0.16 0.14 0.15 0.18 0.20 0.22 0.23 0.26 0.31 0.34 0.44 0.46 0.48 0.54 0.62 0.56 0.50 0.49 0.41 0.34 0.27 0.21 0.12 0.14 0.31 0.58 0.66 0.54 0.45 0.54 0.61 0.73 1.02 0.94 0.76 0.57 0.45
0.18 0.18 0.16 0.16 0.21 0.25 0.27 0.30 0.33 0.34 0.40 0.46 0.50 0.54 0.58 0.64 0.60 0.47 0.36 0.32 0.26 0.24 0.21 0.12 0.09 0.15 0.31 0.52 0.45 0.34 0.35 0.34 0.30 0.31 0.55 0.88 1.22 1.30
0.20 0.20 0.19 0.21 0.25 0.29 0.32 0.34 0.37 0.40 0.46 0.56 0.59 0.57 0.56 0.51 0.40 0.36 0.32 0.31 0.31 0.26 0.22 0.17 0.12 0.14 0.21 0.31 0.36 0.30 0.24 0.20 0.16 0.19 0.36 0.42 0.58 0.85

GEFSNE_prec_meanprecacc_126.txt.gz
Total_Precipitation_Accumulation
0.71 0.71 0.70 0.66 0.64 0.67 0.74 0.88 1.05 1.02 0.83 0.69 0.68 0.67 0.69 0.67 0.67 0.58 0.49 0.60 0.64 0.64 0.67 0.70 0.67 0.65 0.66 0.70 0.78 0.90 1.00 1.05 1.10 1.19 1.29 1.35 1.43 1.57
0.64 0.64 0.63 0.63 0.64 0.66 0.71 0.77 0.88 0.98 0.91 0.69 0.60 0.59 0.62 0.63 0.67 0.56 0.50 0.60 0.58 0.55 0.55 0.56 0.56 0.59 0.62 0.65 0.68 0.75 0.87 0.96 1.02 1.12 1.23 1.32 1.40 1.49
0.62 0.62 0.62 0.62 0.63 0.65 0.68 0.71 0.73 0.80 0.81 0.68 0.58 0.56 0.56 0.55 0.56 0.53 0.47 0.44 0.41 0.44 0.44 0.43 0.44 0.49 0.53 0.57 0.61 0.65 0.73 0.82 0.93 1.04 1.16 1.25 1.30 1.30
0.60 0.61 0.63 0.64 0.67 0.70 0.71 0.70 0.68 0.67 0.68 0.64 0.55 0.48 0.45 0.43 0.41 0.39 0.36 0.33 0.29 0.33 0.34 0.33 0.35 0.39 0.44 0.47 0.50 0.56 0.63 0.69 0.79 0.88 0.94 1.00 1.06 1.14
0.56 0.59 0.62 0.66 0.70 0.70 0.69 0.66 0.63 0.59 0.58 0.58 0.49 0.40 0.36 0.33 0.33 0.30 0.27 0.24 0.22 0.24 0.24 0.24 0.28 0.32 0.37 0.42 0.44 0.46 0.48 0.52 0.58 0.68 0.77 0.83 0.90 0.98
0.57 0.59 0.61 0.61 0.61 0.60 0.58 0.56 0.56 0.55 0.55 0.55 0.52 0.44 0.37 0.31 0.30 0.29 0.25 0.21 0.19 0.16 0.16 0.16 0.19 0.20 0.22 0.27 0.32 0.35 0.39 0.43 0.50 0.61 0.76 0.82 0.83 0.88
0.65 0.63 0.59 0.56 0.52 0.49 0.47 0.46 0.44 0.48 0.55 0.58 0.54 0.47 0.39 0.35 0.31 0.28 0.28 0.25 0.20 0.16 0.13 0.11 0.11 0.10 0.12 0.17 0.22 0.31 0.40 0.50 0.61 0.75 0.92 1.03 1.05 1.05
0.57 0.54 0.52 0.50 0.47 0.48 0.47 0.44 0.46 0.53 0.61 0.61 0.51 0.40 0.28 0.24 0.25 0.30 0.34 0.38 0.30 0.16 0.15 0.13 0.10 0.10 0.12 0.17 0.26 0.34 0.44 0.55 0.65 0.77 0.88 0.95 1.00 1.06
0.47 0.42 0.38 0.35 0.35 0.33 0.37 0.42 0.43 0.46 0.47 0.45 0.39 0.28 0.26 0.27 0.38 0.47 0.42 0.39 0.28 0.14 0.14 0.15 0.12 0.13 0.14 0.20 0.31 0.37 0.44 0.53 0.63 0.73 0.82 0.88 0.92 0.94
0.35 0.32 0.28 0.26 0.27 0.30 0.36 0.41 0.34 0.28 0.26 0.23 0.25 0.28 0.30 0.29 0.36 0.46 0.42 0.33 0.20 0.13 0.15 0.21 0.15 0.16 0.15 0.19 0.28 0.31 0.36 0.45 0.55 0.65 0.74 0.77 0.79 0.82
0.27 0.27 0.28 0.25 0.27 0.39 0.45 0.41 0.29 0.20 0.20 0.24 0.28 0.27 0.24 0.21 0.22 0.37 0.48 0.49 0.33 0.13 0.11 0.17 0.14 0.16 0.20 0.22 0.26 0.31 0.32 0.38 0.47 0.55 0.61 0.65 0.66 0.69
0.28 0.29 0.30 0.28 0.35 0.45 0.40 0.36 0.27 0.21 0.23 0.19 0.16 0.13 0.11 0.12 0.17 0.31 0.65 0.91 0.64 0.34 0.13 0.26 0.28 0.33 0.46 0.26 0.24 0.26 0.28 0.34 0.40 0.45 0.50 0.55 0.58 0.57
0.31 0.28 0.28 0.38 0.45 0.42 0.33 0.24 0.26 0.32 0.26 0.17 0.13 0.11 0.09 0.09 0.10 0.14 0.35 0.89 1.09 0.64 0.20 0.57 0.69 0.43 0.58 0.38 0.26 0.28 0.36 0.48 0.54 0.55 0.56 0.55 0.54 0.58
0.27 0.24 0.30 0.42 0.41 0.31 0.24 0.24 0.31 0.28 0.18 0.17 0.16 0.13 0.11 0.10 0.09 0.10 0.14 0.29 0.60 0.71 0.40 0.74 1.09 0.71 0.78 0.61 0.38 0.37 0.42 0.63 0.89 0.94 0.89 0.80 0.67 0.62
0.34 0.39 0.42 0.37 0.29 0.25 0.23 0.24 0.23 0.19 0.21 0.26 0.23 0.17 0.13 0.12 0.12 0.13 0.13 0.17 0.24 0.30 0.35 0.48 0.81 0.83 0.95 0.91 0.65 0.50 0.58 0.70 1.05 1.32 1.22 0.99 0.77 0.64
0.42 0.42 0.35 0.28 0.23 0.22 0.23 0.21 0.19 0.20 0.27 0.34 0.29 0.20 0.15 0.15 0.16 0.22 0.31 0.33 0.39 0.31 0.32 0.39 0.53 0.80 0.87 0.69 0.79 0.72 0.77 1.10 1.29 1.49 1.35 1.07 0.84 0.69
0.44 0.31 0.23 0.21 0.21 0.19 0.18 0.17 0.18 0.19 0.22 0.25 0.29 0.28 0.21 0.19 0.19 0.27 0.44 0.55 0.60 0.49 0.42 0.35 0.32 0.40 0.55 0.64 0.69 0.66 0.80 1.06 1.30 1.42 1.21 1.03 0.96 0.86
0.32 0.24 0.23 0.22 0.21 0.20 0.18 0.18 0.17 0.19 0.24 0.32 0.33 0.34 0.35 0.34 0.32 0.33 0.49 0.64 0.64 0.55 0.50 0.42 0.37 0.37 0.35 0.36 0.57 0.79 0.87 1.04 1.16 1.10 0.83 0.82 0.92 0.82
0.23 0.23 0.24 0.24 0.23 0.22 0.23 0.23 0.22 0.19 0.27 0.39 0.44 0.44 0.46 0.42 0.43 0.47 0.54 0.59 0.56 0.48 0.39 0.33 0.41 0.64 0.64 0.41 0.34 0.63 0.96 1.01 0.86 0.77 0.65 0.69 0.91 0.84
0.21 0.23 0.23 0.23 0.24 0.27 0.28 0.29 0.29 0.26 0.30 0.39 0.43 0.46 0.52 0.56 0.54 0.53 0.57 0.59 0.55 0.37 0.22 0.13 0.25 0.61 0.98 0.88 0.67 0.63 0.71 0.86 0.88 0.85 0.68 0.57 0.66 0.64
0.22 0.22 0.21 0.23 0.26 0.30 0.31 0.33 0.34 0.38 0.41 0.50 0.50 0.52 0.58 0.65 0.59 0.52 0.51 0.42 0.36 0.29 0.22 0.13 0.14 0.32 0.60 0.67 0.55 0.45 0.55 0.61 0.74 1.02 0.95 0.77 0.58 0.45
0.25 0.24 0.22 0.23 0.29 0.33 0.35 0.37 0.40 0.40 0.45 0.51 0.54 0.57 0.61 0.67 0.63 0.49 0.38 0.34 0.28 0.26 0.22 0.13 0.10 0.16 0.33 0.52 0.46 0.34 0.35 0.34 0.30 0.32 0.55 0.88 1.22 1.31
0.28 0.27 0.25 0.27 0.31 0.35 0.38 0.39 0.42 0.44 0.50 0.60 0.62 0.59 0.59 0.53 0.42 0.38 0.34 0.33 0.33 0.28 0.23 0.18 0.14 0.16 0.22 0.31 0.37 0.31 0.24 0.20 0.16 0.20 0.36 0.42 0.58 0.85

GEFSNE_prec_meanprecacc_132.txt.gz
Total_Precipitation_Accumulation
0.78 0.78 0.77 0.72 0.69 0.72 0.80 0.95 1.14 1.10 0.88 0.72 0.70 0.70 0.72 0.70 0.72 0.64 0.55 0.66 0.71 0.72 0.76 0.81 0.79 0.76 0.76 0.81 0.90 1.03 1.11 1.13 1.15 1.22 1.32 1.38 1.46 1.61
0.69 0.69 0.69 0.68 0.70 0.73 0.78 0.85 0.98 1.10 1.00 0.75 0.65 0.63 0.66 0.68 0.73 0.63 0.57 0.66 0.65 0.64 0.64 0.67 0.70 0.73 0.75 0.77 0.79 0.85 0.96 1.03 1.08 1.15 1.26 1.35 1.43 1.53
0.70 0.68 0.67 0.67 0.69 0.71 0.75 0.79 0.83 0.91 0.93 0.77 0.65 0.62 0.63 0.63 0.64 0.61 0.56 0.51 0.49 0.55 0.55 0.54 0.57 0.63 0.69 0.70 0.70 0.71 0.79 0.87 0.97 1.08 1.20 1.29 1.33 1.34
0.71 0.72 0.72 0.73 0.76 0.78 0.80 0.79 0.78 0.78 0.80 0.76 0.64 0.57 0.54 0.51 0.50 0.50 0.48 0.44 0.39 0.45 0.48 0.47 0.49 0.53 0.59 0.59 0.59 0.62 0.68 0.74 0.83 0.92 0.98 1.03 1.09 1.17
0.64 0.70 0.73 0.76 0.81 0.81 0.80 0.78 0.74 0.71 0.71 0.72 0.63 0.53 0.48 0.45 0.46 0.44 0.43 0.41 0.37 0.40 0.41 0.41 0.43 0.45 0.48 0.52 0.53 0.53 0.54 0.56 0.63 0.73 0.81 0.86 0.93 1.02
0.66 0.68 0.71 0.72 0.72 0.70 0.68 0.67 0.68 0.68 0.67 0.69 0.67 0.59 0.52 0.47 0.48 0.48 0.47 0.40 0.37 0.32 0.33 0.32 0.33 0.33 0.33 0.36 0.39 0.41 0.43 0.47 0.57 0.67 0.79 0.84 0.86 0.92
0.74 0.73 0.69 0.66 0.61 0.59 0.57 0.56 0.55 0.60 0.67 0.71 0.67 0.60 0.53 0.50 0.48 0.46 0.48 0.45 0.39 0.32 0.28 0.25 0.22 0.20 0.21 0.25 0.29 0.36 0.45 0.55 0.68 0.81 0.96 1.05 1.07 1.08
0.66 0.63 0.61 0.59 0.57 0.58 0.58 0.55 0.57 0.65 0.73 0.73 0.63 0.51 0.40 0.37 0.41 0.48 0.53 0.56 0.47 0.30 0.27 0.25 0.21 0.19 0.20 0.25 0.33 0.40 0.49 0.61 0.73 0.83 0.94 0.99 1.04 1.10
0.56 0.51 0.47 0.43 0.44 0.41 0.47 0.52 0.53 0.56 0.59 0.57 0.50 0.39 0.37 0.39 0.52 0.65 0.60 0.55 0.41 0.26 0.26 0.28 0.24 0.23 0.22 0.27 0.39 0.43 0.50 0.59 0.70 0.81 0.89 0.95 0.97 1.01
0.42 0.39 0.35 0.34 0.34 0.38 0.45 0.51 0.43 0.38 0.36 0.34 0.35 0.39 0.41 0.42 0.49 0.60 0.58 0.50 0.37 0.29 0.28 0.34 0.27 0.26 0.23 0.26 0.35 0.37 0.41 0.50 0.61 0.73 0.82 0.86 0.87 0.92
0.35 0.35 0.35 0.32 0.35 0.49 0.54 0.51 0.39 0.30 0.30 0.34 0.38 0.38 0.36 0.35 0.37 0.53 0.65 0.66 0.49 0.28 0.24 0.28 0.24 0.24 0.26 0.28 0.33 0.37 0.38 0.43 0.52 0.62 0.70 0.74 0.77 0.81
0.34 0.35 0.37 0.35 0.41 0.53 0.48 0.46 0.38 0.31 0.32 0.29 0.26 0.25 0.22 0.23 0.30 0.44 0.77 1.03 0.76 0.45 0.22 0.33 0.35 0.39 0.52 0.31 0.30 0.32 0.33 0.39 0.46 0.51 0.58 0.64 0.67 0.67
0.35 0.33 0.33 0.46 0.53 0.51 0.42 0.33 0.35 0.42 0.36 0.26 0.23 0.21 0.19 0.19 0.20 0.24 0.45 0.98 1.18 0.73 0.27 0.63 0.75 0.48 0.62 0.43 0.31 0.34 0.41 0.52 0.59 0.61 0.63 0.64 0.63 0.66
0.30 0.28 0.34 0.49 0.48 0.41 0.34 0.35 0.43 0.40 0.30 0.28 0.26 0.24 0.21 0.19 0.18 0.19 0.24 0.38 0.68 0.79 0.48 0.80 1.15 0.75 0.82 0.64 0.42 0.41 0.46 0.67 0.92 1.00 0.95 0.88 0.76 0.70
0.37 0.43 0.47 0.43 0.36 0.33 0.33 0.36 0.34 0.30 0.33 0.38 0.34 0.27 0.22 0.22 0.22 0.24 0.24 0.26 0.33 0.38 0.43 0.56 0.87 0.88 0.98 0.94 0.67 0.53 0.62 0.74 1.08 1.37 1.28 1.07 0.84 0.70
0.46 0.47 0.41 0.34 0.30 0.29 0.32 0.33 0.31 0.30 0.36 0.43 0.39 0.30 0.26 0.27 0.29 0.35 0.44 0.44 0.49 0.40 0.40 0.46 0.59 0.85 0.92 0.73 0.81 0.74 0.80 1.12 1.33 1.54 1.40 1.13 0.90 0.74
0.49 0.36 0.27 0.25 0.26 0.25 0.25 0.26 0.29 0.31 0.33 0.34 0.39 0.38 0.33 0.32 0.32 0.40 0.57 0.66 0.69 0.57 0.49 0.42 0.38 0.45 0.60 0.68 0.72 0.68 0.82 1.08 1.32 1.46 1.26 1.08 1.01 0.90
0.38 0.29 0.28 0.27 0.26 0.24 0.24 0.25 0.26 0.29 0.34 0.41 0.43 0.43 0.45 0.44 0.44 0.45 0.60 0.74 0.73 0.62 0.56 0.47 0.42 0.41 0.38 0.39 0.60 0.82 0.89 1.06 1.18 1.13 0.86 0.85 0.95 0.86
0.28 0.28 0.29 0.29 0.29 0.28 0.29 0.31 0.31 0.29 0.37 0.49 0.54 0.54 0.55 0.52 0.53 0.57 0.64 0.68 0.65 0.55 0.44 0.37 0.44 0.66 0.66 0.43 0.36 0.65 0.98 1.04 0.88 0.80 0.68 0.72 0.94 0.87
0.25 0.27 0.28 0.27 0.29 0.33 0.35 0.38 0.39 0.38 0.42 0.50 0.55 0.57 0.63 0.66 0.63 0.62 0.65 0.68 0.62 0.44 0.27 0.18 0.28 0.63 1.00 0.90 0.69 0.65 0.73 0.88 0.90 0.87 0.70 0.59 0.68 0.66
0.25 0.26 0.26 0.28 0.31 0.35 0.37 0.40 0.43 0.48 0.53 0.63 0.63 0.64 0.69 0.76 0.69 0.61 0.59 0.50 0.42 0.34 0.26 0.16 0.17 0.34 0.62 0.69 0.57 0.46 0.56 0.63 0.76 1.04 0.97 0.79 0.60 0.47
0.28 0.27 0.27 0.28 0.33 0.38 0.40 0.43 0.47 0.48 0.54 0.61 0.65 0.69 0.73 0.78 0.73 0.58 0.46 0.41 0.34 0.31 0.26 0.17 0.12 0.18 0.34 0.54 0.47 0.35 0.36 0.35 0.32 0.33 0.57 0.90 1.24 1.32
0.31 0.31 0.29 0.32 0.36 0.41 0.44 0.45 0.49 0.51 0.58 0.68 0.71 0.68 0.68 0.63 0.51 0.46 0.41 0.39 0.39 0.33 0.27 0.22 0.16 0.18 0.24 0.32 0.38 0.32 0.25 0.21 0.17 0.21 0.37 0.43 0.59 0.85

GEFSNE_prec_meanprecacc_138.txt.gz
Total_Precipitation_Accumulation
0.84 0.84 0.82 0.77 0.75 0.78 0.86 1.02 1.21 1.16 0.92 0.74 0.72 0.72 0.74 0.73 0.75 0.67 0.58 0.72 0.79 0.80 0.84 0.88 0.84 0.82 0.83 0.91 1.06 1.24 1.33 1.30 1.27 1.35 1.43 1.46 1.52 1.67
0.77 0.78 0.77 0.75 0.77 0.80 0.85 0.93 1.05 1.16 1.06 0.78 0.67 0.65 0.69 0.71 0.78 0.68 0.61 0.72 0.72 0.72 0.73 0.74 0.76 0.79 0.83 0.86 0.93 1.05 1.17 1.23 1.23 1.28 1.38 1.44 1.51 1.61
0.75 0.74 0.73 0.73 0.75 0.77 0.82 0.86 0.91 0.98 0.99 0.80 0.67 0.65 0.67 0.67 0.69 0.67 0.62 0.58 0.56 0.63 0.63 0.62 0.64 0.70 0.79 0.83 0.85 0.89 0.98 1.05 1.12 1.21 1.32 1.38 1.42 1.44
0.75 0.77 0.78 0.79 0.82 0.84 0.87 0.87 0.85 0.86 0.88 0.82 0.69 0.61 0.57 0.55 0.54 0.55 0.55 0.52 0.47 0.55 0.58 0.57 0.59 0.63 0.70 0.73 0.74 0.78 0.84 0.88 0.96 1.03 1.08 1.11 1.17 1.26
0.70 0.76 0.79 0.84 0.89 0.88 0.88 0.86 0.83 0.80 0.80 0.80 0.70 0.59 0.52 0.49 0.50 0.52 0.53 0.51 0.46 0.49 0.50 0.49 0.52 0.55 0.59 0.65 0.67 0.68 0.69 0.71 0.75 0.83 0.90 0.92 0.99 1.08
0.72 0.75 0.77 0.79 0.80 0.80 0.77 0.75 0.76 0.76 0.76 0.78 0.75 0.65 0.57 0.51 0.53 0.59 0.57 0.49 0.46 0.41 0.43 0.42 0.42 0.43 0.45 0.50 0.54 0.56 0.58 0.63 0.71 0.79 0.89 0.90 0.91 0.97
0.80 0.79 0.75 0.73 0.69 0.68 0.68 0.67 0.66 0.71 0.78 0.82 0.77 0.68 0.59 0.55 0.55 0.54 0.58 0.55 0.49 0.42 0.37 0.35 0.34 0.33 0.34 0.39 0.44 0.52 0.59 0.70 0.84 0.94 1.06 1.12 1.13 1.14
0.71 0.68 0.67 0.66 0.65 0.67 0.67 0.66 0.70 0.78 0.87 0.86 0.75 0.60 0.47 0.43 0.48 0.57 0.65 0.68 0.58 0.40 0.38 0.38 0.34 0.34 0.34 0.39 0.49 0.55 0.64 0.75 0.88 0.96 1.03 1.06 1.10 1.17
0.62 0.58 0.55 0.52 0.52 0.50 0.56 0.62 0.64 0.68 0.72 0.70 0.64 0.50 0.45 0.46 0.60 0.74 0.72 0.67 0.53 0.36 0.37 0.42 0.37 0.39 0.39 0.45 0.55 0.58 0.66 0.73 0.85 0.94 0.99 1.02 1.04 1.08
0.47 0.44 0.41 0.41 0.42 0.45 0.52 0.59 0.53 0.48 0.47 0.45 0.46 0.49 0.51 0.50 0.58 0.69 0.68 0.64 0.52 0.43 0.42 0.49 0.42 0.41 0.40 0.44 0.53 0.53 0.58 0.66 0.77 0.87 0.92 0.95 0.97 1.00
0.39 0.40 0.41 0.38 0.43 0.56 0.61 0.58 0.46 0.38 0.39 0.44 0.49 0.48 0.47 0.46 0.47 0.64 0.78 0.81 0.65 0.45 0.38 0.41 0.38 0.38 0.41 0.43 0.49 0.53 0.54 0.59 0.68 0.77 0.82 0.86 0.90 0.92
0.36 0.39 0.42 0.40 0.47 0.59 0.55 0.52 0.44 0.38 0.38 0.36 0.34 0.33 0.32 0.34 0.42 0.54 0.87 1.14 0.87 0.57 0.34 0.46 0.48 0.53 0.67 0.45 0.43 0.45 0.47 0.54 0.61 0.64 0.69 0.76 0.80 0.79
0.37 0.35 0.37 0.50 0.58 0.57 0.49 0.39 0.41 0.47 0.40 0.32 0.29 0.28 0.27 0.28 0.30 0.34 0.55 1.08 1.28 0.82 0.36 0.75 0.88 0.61 0.75 0.55 0.43 0.46 0.54 0.67 0.73 0.73 0.74 0.75 0.76 0.80
0.33 0.30 0.36 0.52 0.52 0.45 0.39 0.41 0.49 0.46 0.36 0.35 0.34 0.32 0.29 0.27 0.27 0.28 0.33 0.48 0.78 0.88 0.56 0.91 1.29 0.90 0.95 0.76 0.54 0.53 0.58 0.78 1.05 1.11 1.06 0.99 0.88 0.83
0.40 0.45 0.50 0.46 0.40 0.37 0.37 0.41 0.41 0.37 0.42 0.48 0.44 0.35 0.30 0.29 0.30 0.34 0.35 0.38 0.45 0.49 0.54 0.67 0.99 1.00 1.11 1.06 0.79 0.63 0.73 0.84 1.17 1.46 1.38 1.17 0.94 0.82
0.51 0.51 0.45 0.38 0.34 0.34 0.37 0.37 0.36 0.37 0.46 0.53 0.48 0.38 0.33 0.34 0.37 0.45 0.55 0.55 0.60 0.53 0.52 0.58 0.71 0.97 1.04 0.84 0.92 0.85 0.89 1.21 1.41 1.62 1.49 1.22 1.00 0.84
0.55 0.42 0.34 0.32 0.32 0.30 0.29 0.31 0.33 0.36 0.41 0.44 0.47 0.46 0.40 0.39 0.40 0.49 0.66 0.76 0.80 0.68 0.60 0.53 0.50 0.57 0.72 0.80 0.84 0.79 0.91 1.16 1.39 1.53 1.33 1.15 1.09 0.99
0.44 0.35 0.34 0.32 0.31 0.29 0.28 0.29 0.30 0.34 0.40 0.48 0.50 0.51 0.52 0.51 0.50 0.52 0.69 0.83 0.83 0.72 0.65 0.57 0.52 0.52 0.51 0.53 0.73 0.94 0.99 1.14 1.24 1.18 0.92 0.91 1.02 0.94
0.33 0.33 0.34 0.35 0.34 0.32 0.34 0.35 0.35 0.34 0.43 0.55 0.60 0.61 0.62 0.58 0.59 0.64 0.71 0.77 0.73 0.64 0.53 0.46 0.53 0.76 0.75 0.53 0.46 0.75 1.07 1.10 0.95 0.85 0.73 0.77 1.00 0.94
0.27 0.31 0.32 0.33 0.35 0.38 0.41 0.44 0.45 0.44 0.48 0.56 0.60 0.64 0.70 0.73 0.71 0.70 0.73 0.76 0.70 0.52 0.36 0.27 0.36 0.72 1.07 0.96 0.75 0.72 0.81 0.95 0.95 0.93 0.75 0.65 0.74 0.73
0.28 0.29 0.29 0.32 0.36 0.41 0.43 0.46 0.49 0.54 0.58 0.68 0.69 0.70 0.76 0.83 0.77 0.70 0.68 0.59 0.52 0.43 0.35 0.25 0.25 0.42 0.69 0.76 0.64 0.54 0.64 0.71 0.81 1.09 1.02 0.84 0.65 0.52
0.29 0.30 0.30 0.31 0.37 0.42 0.45 0.48 0.52 0.53 0.59 0.67 0.70 0.74 0.79 0.85 0.81 0.67 0.56 0.51 0.45 0.41 0.36 0.26 0.21 0.27 0.44 0.63 0.54 0.42 0.43 0.42 0.39 0.39 0.62 0.94 1.27 1.36
0.32 0.32 0.32 0.35 0.40 0.44 0.47 0.49 0.53 0.56 0.63 0.73 0.76 0.74 0.73 0.68 0.57 0.54 0.50 0.50 0.51 0.45 0.39 0.33 0.27 0.28 0.33 0.41 0.44 0.37 0.30 0.27 0.23 0.25 0.41 0.46 0.61 0.87

GEFSNE_prec_meanprecacc_144.txt.gz
Total_Precipitation_Accumulation
0.87 0.86 0.84 0.79 0.77 0.80 0.89 1.05 1.25 1.20 0.94 0.76 0.73 0.73 0.75 0.74 0.76 0.69 0.60 0.74 0.81 0.83 0.88 0.92 0.89 0.86 0.87 0.96 1.12 1.29 1.41 1.43 1.43 1.52 1.61 1.64 1.71 1.84
0.80 0.80 0.78 0.77 0.78 0.82 0.88 0.96 1.08 1.21 1.09 0.80 0.68 0.66 0.70 0.73 0.79 0.69 0.62 0.73 0.74 0.74 0.76 0.77 0.79 0.83 0.87 0.91 0.99 1.11 1.27 1.40 1.42 1.45 1.53 1.59 1.66 1.76
0.77 0.75 0.75 0.74 0.77 0.79 0.84 0.89 0.94 1.03 1.04 0.84 0.70 0.68 0.70 0.70 0.72 0.70 0.65 0.61 0.58 0.66 0.66 0.66 0.68 0.74 0.83 0.87 0.90 0.96 1.10 1.23 1.35 1.40 1.49 1.56 1.59 1.60
0.77 0.79 0.80 0.81 0.84 0.87 0.89 0.89 0.89 0.90 0.93 0.87 0.73 0.65 0.61 0.59 0.59 0.60 0.60 0.58 0.52 0.60 0.62 0.61 0.63 0.67 0.75 0.78 0.79 0.84 0.93 1.00 1.11 1.20 1.25 1.31 1.38 1.47
0.72 0.77 0.81 0.87 0.92 0.92 0.91 0.89 0.86 0.83 0.84 0.85 0.75 0.63 0.57 0.54 0.56 0.58 0.59 0.57 0.52 0.55 0.56 0.55 0.57 0.60 0.64 0.71 0.73 0.74 0.76 0.80 0.85 0.95 1.03 1.10 1.17 1.25
0.74 0.76 0.79 0.81 0.82 0.82 0.80 0.79 0.80 0.80 0.81 0.83 0.80 0.70 0.61 0.56 0.60 0.66 0.65 0.57 0.53 0.47 0.49 0.48 0.48 0.48 0.50 0.55 0.59 0.61 0.63 0.70 0.79 0.89 1.01 1.04 1.05 1.13
0.81 0.80 0.77 0.75 0.70 0.70 0.70 0.70 0.69 0.75 0.82 0.87 0.82 0.73 0.63 0.60 0.60 0.59 0.64 0.61 0.55 0.48 0.44 0.42 0.42 0.39 0.39 0.44 0.50 0.57 0.65 0.77 0.91 1.03 1.16 1.25 1.28 1.29
0.72 0.70 0.68 0.68 0.67 0.69 0.70 0.69 0.73 0.83 0.92 0.91 0.80 0.65 0.51 0.47 0.52 0.62 0.72 0.76 0.67 0.47 0.45 0.47 0.45 0.45 0.42 0.45 0.55 0.62 0.71 0.82 0.96 1.05 1.13 1.20 1.25 1.32
0.65 0.60 0.57 0.53 0.54 0.52 0.58 0.65 0.67 0.72 0.76 0.75 0.69 0.56 0.50 0.51 0.66 0.82 0.81 0.76 0.60 0.43 0.46 0.52 0.48 0.50 0.50 0.55 0.65 0.66 0.73 0.81 0.93 1.03 1.11 1.17 1.19 1.25
0.50 0.46 0.43 0.43 0.44 0.48 0.54 0.62 0.56 0.52 0.52 0.50 0.51 0.55 0.56 0.56 0.65 0.78 0.77 0.73 0.61 0.52 0.51 0.59 0.52 0.51 0.51 0.56 0.66 0.65 0.69 0.77 0.87 0.98 1.06 1.10 1.13 1.19
0.40 0.41 0.44 0.40 0.46 0.60 0.63 0.61 0.50 0.41 0.43 0.50 0.55 0.54 0.55 0.53 0.55 0.74 0.90 0.94 0.78 0.56 0.49 0.51 0.47 0.48 0.52 0.56 0.63 0.68 0.68 0.73 0.81 0.90 0.95 1.02 1.09 1.14
0.38 0.40 0.44 0.43 0.51 0.63 0.58 0.55 0.47 0.41 0.42 0.40 0.39 0.39 0.38 0.41 0.50 0.62 0.97 1.25 0.98 0.68 0.45 0.55 0.57 0.63 0.80 0.59 0.58 0.61 0.63 0.71 0.78 0.80 0.84 0.93 0.99 0.98
0.39 0.37 0.39 0.53 0.61 0.60 0.53 0.43 0.45 0.51 0.44 0.35 0.33 0.33 0.33 0.34 0.37 0.41 0.63 1.16 1.36 0.91 0.45 0.85 0.98 0.71 0.87 0.68 0.58 0.63 0.70 0.82 0.89 0.88 0.87 0.90 0.93 0.95
0.35 0.32 0.38 0.54 0.54 0.48 0.42 0.45 0.53 0.50 0.39 0.38 0.37 0.37 0.35 0.33 0.33 0.35 0.40 0.56 0.85 0.94 0.64 1.00 1.40 1.00 1.06 0.88 0.68 0.70 0.74 0.94 1.19 1.25 1.18 1.12 1.02 0.98
0.41 0.47 0.51 0.47 0.41 0.38 0.39 0.43 0.43 0.40 0.45 0.52 0.48 0.39 0.34 0.33 0.35 0.39 0.41 0.45 0.52 0.57 0.62 0.76 1.09 1.11 1.23 1.19 0.92 0.78 0.89 1.01 1.32 1.60 1.51 1.29 1.07 0.95
0.51 0.52 0.45 0.38 0.34 0.35 0.38 0.38 0.37 0.39 0.48 0.56 0.51 0.41 0.36 0.39 0.43 0.51 0.61 0.62 0.68 0.61 0.60 0.66 0.80 1.08 1.16 0.96 1.05 0.98 1.03 1.36 1.56 1.75 1.62 1.36 1.13 0.95
0.57 0.43 0.34 0.32 0.32 0.31 0.30 0.31 0.34 0.38 0.43 0.45 0.50 0.49 0.44 0.44 0.45 0.54 0.72 0.83 0.86 0.74 0.66 0.61 0.59 0.67 0.82 0.91 0.96 0.92 1.05 1.30 1.52 1.67 1.47 1.28 1.21 1.08
0.47 0.38 0.36 0.34 0.32 0.30 0.29 0.30 0.31 0.35 0.42 0.50 0.53 0.54 0.55 0.54 0.54 0.57 0.74 0.89 0.89 0.78 0.71 0.62 0.59 0.60 0.60 0.64 0.85 1.05 1.10 1.27 1.38 1.32 1.05 1.03 1.13 1.04
0.36 0.37 0.38 0.38 0.37 0.34 0.35 0.37 0.36 0.35 0.45 0.57 0.63 0.64 0.65 0.62 0.63 0.68 0.76 0.82 0.79 0.70 0.59 0.52 0.60 0.82 0.82 0.61 0.55 0.85 1.17 1.23 1.08 1.00 0.87 0.89 1.10 1.04
0.29 0.33 0.36 0.38 0.40 0.43 0.45 0.47 0.47 0.46 0.51 0.59 0.64 0.68 0.74 0.77 0.75 0.74 0.78 0.81 0.76 0.58 0.42 0.33 0.43 0.78 1.13 1.01 0.81 0.79 0.89 1.03 1.06 1.05 0.87 0.76 0.85 0.84
0.29 0.30 0.31 0.35 0.40 0.46 0.49 0.51 0.55 0.59 0.64 0.73 0.73 0.75 0.80 0.88 0.81 0.74 0.72 0.65 0.57 0.49 0.42 0.32 0.32 0.49 0.77 0.83 0.70 0.61 0.72 0.79 0.90 1.18 1.11 0.94 0.75 0.63
0.31 0.31 0.31 0.33 0.40 0.45 0.48 0.52 0.57 0.59 0.66 0.73 0.76 0.79 0.84 0.90 0.86 0.72 0.61 0.57 0.50 0.46 0.42 0.32 0.28 0.34 0.51 0.70 0.62 0.49 0.51 0.51 0.49 0.50 0.72 1.03 1.36 1.44
0.34 0.34 0.33 0.36 0.41 0.46 0.50 0.51 0.56 0.59 0.67 0.78 0.82 0.79 0.79 0.74 0.63 0.59 0.56 0.56 0.56 0.51 0.45 0.40 0.35 0.36 0.41 0.48 0.52 0.44 0.38 0.35 0.32 0.35 0.51 0.56 0.69 0.94

GEFSNE_prec_meanprecacc_150.txt.gz
Total_Precipitation_Accumulation
0.93 0.92 0.89 0.83 0.80 0.82 0.91 1.07 1.27 1.22 0.96 0.77 0.74 0.73 0.75 0.75 0.77 0.70 0.61 0.76 0.83 0.84 0.89 0.93 0.90 0.88 0.89 0.98 1.16 1.35 1.49 1.51 1.50 1.58 1.66 1.68 1.77 1.94
0.86 0.86 0.83 0.80 0.81 0.84 0.90 0.97 1.10 1.22 1.11 0.81 0.69 0.66 0.70 0.74 0.80 0.70 0.63 0.75 0.76 0.77 0.77 0.79 0.81 0.85 0.89 0.94 1.03 1.16 1.35 1.48 1.49 1.51 1.59 1.65 1.73 1.85
0.80 0.79 0.77 0.77 0.79 0.81 0.86 0.91 0.96 1.04 1.06 0.85 0.71 0.68 0.71 0.71 0.73 0.70 0.66 0.62 0.60 0.68 0.68 0.67 0.69 0.76 0.86 0.91 0.94 1.01 1.17 1.30 1.41 1.46 1.54 1.62 1.68 1.71
0.80 0.82 0.83 0.83 0.87 0.89 0.91 0.91 0.90 0.91 0.95 0.88 0.73 0.65 0.61 0.59 0.59 0.61 0.61 0.60 0.55 0.63 0.66 0.64 0.66 0.70 0.78 0.83 0.84 0.90 0.98 1.06 1.17 1.26 1.31 1.39 1.46 1.56
0.76 0.81 0.85 0.89 0.94 0.93 0.92 0.91 0.88 0.85 0.85 0.87 0.76 0.63 0.58 0.55 0.57 0.59 0.60 0.59 0.55 0.59 0.62 0.62 0.65 0.67 0.70 0.77 0.81 0.81 0.82 0.87 0.92 1.01 1.10 1.17 1.24 1.33
0.79 0.81 0.83 0.84 0.84 0.84 0.81 0.80 0.81 0.82 0.83 0.85 0.82 0.72 0.63 0.58 0.61 0.68 0.66 0.58 0.55 0.50 0.53 0.53 0.54 0.56 0.58 0.63 0.68 0.70 0.72 0.78 0.87 0.96 1.08 1.11 1.12 1.22
0.85 0.84 0.80 0.78 0.72 0.71 0.72 0.72 0.71 0.77 0.85 0.89 0.84 0.75 0.65 0.62 0.61 0.60 0.65 0.62 0.57 0.51 0.48 0.47 0.46 0.45 0.45 0.50 0.57 0.66 0.74 0.86 1.00 1.10 1.22 1.31 1.36 1.40
0.75 0.72 0.71 0.70 0.68 0.71 0.72 0.71 0.76 0.85 0.95 0.93 0.82 0.67 0.53 0.48 0.53 0.64 0.74 0.78 0.70 0.50 0.48 0.50 0.50 0.51 0.48 0.51 0.62 0.70 0.80 0.92 1.06 1.14 1.21 1.27 1.33 1.43
0.67 0.62 0.59 0.55 0.55 0.53 0.60 0.67 0.69 0.74 0.79 0.78 0.72 0.58 0.52 0.52 0.67 0.84 0.83 0.79 0.63 0.46 0.49 0.56 0.53 0.57 0.56 0.60 0.71 0.73 0.83 0.92 1.05 1.14 1.22 1.26 1.28 1.37
0.51 0.48 0.45 0.44 0.45 0.49 0.55 0.63 0.57 0.53 0.53 0.51 0.53 0.56 0.58 0.57 0.66 0.80 0.81 0.77 0.65 0.56 0.55 0.64 0.57 0.58 0.57 0.62 0.72 0.72 0.77 0.87 1.00 1.12 1.20 1.21 1.25 1.32
0.41 0.42 0.44 0.41 0.46 0.60 0.64 0.61 0.50 0.42 0.44 0.50 0.55 0.55 0.56 0.55 0.57 0.77 0.93 0.99 0.84 0.63 0.55 0.57 0.53 0.54 0.59 0.64 0.71 0.76 0.75 0.82 0.94 1.06 1.10 1.14 1.20 1.26
0.38 0.41 0.45 0.44 0.52 0.64 0.59 0.55 0.48 0.41 0.42 0.41 0.39 0.40 0.39 0.43 0.52 0.65 1.00 1.29 1.03 0.74 0.50 0.62 0.64 0.69 0.88 0.67 0.66 0.70 0.72 0.81 0.90 0.94 0.97 1.05 1.09 1.07
0.39 0.37 0.39 0.54 0.62 0.61 0.53 0.44 0.46 0.51 0.44 0.36 0.34 0.34 0.34 0.35 0.39 0.43 0.65 1.21 1.41 0.96 0.50 0.90 1.05 0.78 0.94 0.75 0.65 0.71 0.80 0.93 1.00 1.00 0.99 1.00 1.01 1.03
0.35 0.33 0.39 0.55 0.55 0.49 0.43 0.46 0.54 0.51 0.40 0.39 0.38 0.38 0.36 0.34 0.34 0.36 0.42 0.59 0.88 0.98 0.68 1.06 1.47 1.08 1.14 0.95 0.76 0.79 0.85 1.06 1.30 1.35 1.28 1.22 1.11 1.06
0.42 0.47 0.52 0.49 0.42 0.40 0.40 0.44 0.44 0.42 0.46 0.53 0.49 0.41 0.36 0.35 0.37 0.41 0.43 0.48 0.55 0.60 0.66 0.81 1.16 1.20 1.32 1.29 1.02 0.87 0.99 1.12 1.43 1.71 1.62 1.39 1.17 1.05
0.52 0.53 0.46 0.39 0.35 0.36 0.39 0.40 0.38 0.40 0.50 0.57 0.53 0.42 0.38 0.41 0.45 0.54 0.64 0.66 0.73 0.66 0.65 0.71 0.87 1.18 1.28 1.07 1.14 1.07 1.12 1.46 1.67 1.86 1.73 1.47 1.24 1.06
0.57 0.43 0.35 0.33 0.34 0.32 0.31 0.33 0.35 0.39 0.44 0.46 0.51 0.50 0.45 0.45 0.47 0.57 0.76 0.87 0.91 0.79 0.71 0.66 0.67 0.77 0.94 1.03 1.08 1.02 1.14 1.39 1.62 1.77 1.57 1.40 1.34 1.21
0.48 0.38 0.37 0.34 0.33 0.31 0.30 0.31 0.32 0.35 0.42 0.51 0.53 0.54 0.56 0.55 0.55 0.58 0.77 0.93 0.94 0.83 0.76 0.67 0.66 0.69 0.70 0.76 0.98 1.16 1.21 1.37 1.49 1.43 1.15 1.13 1.25 1.16
0.37 0.38 0.39 0.39 0.38 0.36 0.37 0.38 0.38 0.36 0.45 0.58 0.63 0.65 0.66 0.62 0.64 0.70 0.78 0.84 0.82 0.73 0.62 0.56 0.65 0.90 0.91 0.68 0.62 0.94 1.27 1.33 1.19 1.11 0.97 0.98 1.20 1.15
0.30 0.34 0.37 0.38 0.41 0.44 0.46 0.49 0.49 0.47 0.52 0.60 0.65 0.68 0.74 0.78 0.76 0.76 0.79 0.83 0.78 0.60 0.45 0.36 0.47 0.84 1.20 1.07 0.85 0.84 0.96 1.13 1.15 1.15 0.97 0.86 0.95 0.96
0.29 0.31 0.32 0.36 0.41 0.47 0.50 0.53 0.56 0.61 0.65 0.74 0.75 0.76 0.82 0.89 0.83 0.75 0.74 0.67 0.60 0.51 0.44 0.34 0.35 0.53 0.81 0.89 0.76 0.66 0.78 0.87 0.99 1.26 1.20 1.04 0.87 0.75
0.31 0.32 0.32 0.34 0.41 0.46 0.49 0.54 0.59 0.61 0.68 0.75 0.78 0.82 0.86 0.92 0.88 0.74 0.63 0.59 0.52 0.49 0.44 0.35 0.30 0.38 0.56 0.76 0.67 0.54 0.57 0.59 0.57 0.59 0.81 1.12 1.45 1.53
0.34 0.34 0.34 0.37 0.42 0.48 0.51 0.53 0.57 0.61 0.69 0.80 0.84 0.82 0.82 0.77 0.66 0.62 0.58 0.58 0.58 0.53 0.48 0.43 0.38 0.39 0.45 0.53 0.57 0.49 0.44 0.42 0.39 0.43 0.60 0.65 0.78 1.03

GEFSNE_prec_meanprecacc_156.txt.gz
Total_Precipitation_Accumulation
0.97 0.96 0.93 0.87 0.85 0.88 0.96 1.12 1.32 1.26 0.99 0.79 0.75 0.75 0.77 0.76 0.78 0.71 0.62 0.76 0.84 0.85 0.90 0.94 0.91 0.89 0.91 1.00 1.19 1.38 1.52 1.54 1.54 1.62 1.71 1.73 1.83 2.00
0.90 0.90 0.87 0.84 0.85 0.88 0.95 1.03 1.15 1.26 1.14 0.83 0.70 0.68 0.72 0.75 0.81 0.71 0.64 0.75 0.76 0.78 0.78 0.80 0.82 0.86 0.90 0.95 1.05 1.19 1.39 1.51 1.53 1.55 1.63 1.69 1.78 1.90
0.84 0.82 0.81 0.80 0.83 0.84 0.90 0.95 1.00 1.08 1.09 0.86 0.72 0.69 0.71 0.71 0.73 0.71 0.66 0.63 0.60 0.68 0.69 0.69 0.71 0.78 0.87 0.93 0.97 1.06 1.21 1.33 1.45 1.49 1.57 1.66 1.73 1.76
0.83 0.85 0.85 0.86 0.89 0.92 0.95 0.95 0.94 0.94 0.97 0.90 0.74 0.66 0.62 0.60 0.59 0.61 0.62 0.60 0.56 0.64 0.66 0.65 0.67 0.71 0.80 0.85 0.87 0.94 1.02 1.10 1.20 1.29 1.34 1.42 1.51 1.61
0.77 0.83 0.87 0.92 0.97 0.96 0.96 0.94 0.90 0.87 0.87 0.88 0.77 0.64 0.58 0.55 0.58 0.60 0.61 0.60 0.55 0.60 0.63 0.63 0.65 0.68 0.72 0.79 0.83 0.84 0.86 0.90 0.96 1.05 1.14 1.21 1.30 1.39
0.80 0.82 0.85 0.87 0.87 0.87 0.84 0.82 0.83 0.84 0.85 0.87 0.84 0.73 0.63 0.58 0.62 0.69 0.67 0.59 0.56 0.50 0.54 0.54 0.55 0.57 0.59 0.64 0.70 0.74 0.76 0.83 0.92 1.01 1.12 1.16 1.18 1.29
0.87 0.86 0.83 0.80 0.75 0.73 0.74 0.73 0.73 0.79 0.87 0.91 0.86 0.76 0.66 0.63 0.63 0.62 0.67 0.63 0.58 0.51 0.48 0.47 0.47 0.45 0.46 0.51 0.59 0.70 0.80 0.92 1.07 1.16 1.28 1.38 1.44 1.48
0.77 0.74 0.72 0.72 0.70 0.72 0.73 0.72 0.77 0.86 0.96 0.95 0.84 0.69 0.55 0.51 0.56 0.66 0.75 0.80 0.71 0.51 0.49 0.51 0.51 0.52 0.49 0.52 0.64 0.74 0.85 0.98 1.14 1.22 1.29 1.35 1.42 1.52
0.69 0.64 0.60 0.56 0.57 0.54 0.61 0.68 0.70 0.75 0.80 0.80 0.74 0.61 0.55 0.54 0.69 0.85 0.85 0.80 0.64 0.47 0.50 0.57 0.54 0.58 0.57 0.61 0.72 0.76 0.87 0.99 1.13 1.21 1.29 1.34 1.38 1.46
0.53 0.50 0.46 0.45 0.46 0.50 0.56 0.64 0.57 0.54 0.54 0.52 0.54 0.58 0.59 0.58 0.68 0.82 0.82 0.79 0.66 0.57 0.56 0.65 0.58 0.59 0.58 0.63 0.74 0.74 0.80 0.93 1.07 1.19 1.27 1.30 1.34 1.42
0.42 0.43 0.45 0.42 0.48 0.61 0.64 0.62 0.50 0.42 0.44 0.51 0.56 0.55 0.57 0.56 0.59 0.79 0.95 1.01 0.85 0.64 0.56 0.59 0.54 0.55 0.61 0.66 0.73 0.80 0.81 0.89 1.02 1.13 1.17 1.24 1.32 1.39
0.39 0.42 0.46 0.45 0.53 0.64 0.59 0.56 0.48 0.41 0.42 0.41 0.40 0.40 0.39 0.43 0.53 0.67 1.03 1.32 1.05 0.75 0.51 0.63 0.65 0.71 0.90 0.69 0.69 0.75 0.79 0.89 0.99 1.04 1.07 1.14 1.20 1.20
0.40 0.38 0.41 0.55 0.62 0.61 0.54 0.44 0.47 0.52 0.44 0.36 0.34 0.34 0.34 0.36 0.39 0.44 0.67 1.24 1.44 0.98 0.51 0.92 1.08 0.81 0.97 0.77 0.68 0.75 0.86 1.01 1.09 1.10 1.10 1.10 1.11 1.14
0.36 0.33 0.40 0.57 0.57 0.50 0.44 0.46 0.55 0.51 0.41 0.40 0.39 0.38 0.36 0.34 0.35 0.37 0.43 0.60 0.91 1.01 0.70 1.08 1.51 1.11 1.17 0.98 0.80 0.83 0.90 1.11 1.37 1.43 1.37 1.32 1.21 1.16
0.43 0.49 0.53 0.50 0.43 0.40 0.41 0.44 0.45 0.42 0.47 0.54 0.49 0.41 0.36 0.35 0.38 0.42 0.44 0.49 0.56 0.61 0.67 0.83 1.19 1.24 1.37 1.33 1.06 0.92 1.04 1.19 1.50 1.78 1.69 1.46 1.24 1.13
0.52 0.54 0.47 0.40 0.36 0.36 0.39 0.40 0.39 0.40 0.50 0.58 0.53 0.43 0.38 0.41 0.46 0.54 0.65 0.67 0.74 0.67 0.66 0.73 0.90 1.22 1.32 1.12 1.19 1.14 1.18 1.53 1.74 1.93 1.81 1.54 1.30 1.12
0.57 0.43 0.35 0.33 0.34 0.33 0.32 0.33 0.36 0.40 0.45 0.47 0.51 0.51 0.45 0.45 0.47 0.58 0.77 0.88 0.92 0.80 0.72 0.67 0.69 0.81 0.99 1.08 1.14 1.09 1.21 1.45 1.68 1.84 1.65 1.48 1.41 1.28
0.48 0.39 0.37 0.34 0.33 0.32 0.30 0.32 0.32 0.36 0.43 0.52 0.54 0.55 0.57 0.56 0.56 0.59 0.78 0.94 0.95 0.84 0.78 0.70 0.68 0.73 0.75 0.80 1.03 1.23 1.29 1.46 1.56 1.51 1.23 1.22 1.33 1.24
0.38 0.38 0.39 0.39 0.38 0.36 0.37 0.38 0.38 0.36 0.46 0.59 0.65 0.66 0.67 0.63 0.65 0.70 0.78 0.85 0.83 0.75 0.64 0.58 0.68 0.94 0.95 0.73 0.67 0.99 1.34 1.41 1.27 1.18 1.04 1.06 1.28 1.23
0.30 0.35 0.37 0.39 0.41 0.44 0.47 0.49 0.49 0.48 0.52 0.61 0.66 0.69 0.76 0.79 0.77 0.76 0.80 0.84 0.79 0.62 0.46 0.38 0.50 0.88 1.25 1.11 0.89 0.89 1.02 1.20 1.23 1.23 1.05 0.94 1.03 1.04
0.30 0.31 0.33 0.36 0.42 0.47 0.51 0.53 0.57 0.62 0.66 0.75 0.76 0.77 0.83 0.90 0.84 0.77 0.75 0.68 0.61 0.53 0.45 0.35 0.36 0.56 0.85 0.92 0.79 0.70 0.83 0.93 1.06 1.35 1.30 1.14 0.97 0.85
0.31 0.32 0.32 0.35 0.42 0.47 0.50 0.54 0.59 0.61 0.68 0.76 0.79 0.82 0.87 0.94 0.90 0.75 0.64 0.60 0.54 0.50 0.46 0.36 0.32 0.40 0.58 0.79 0.71 0.57 0.61 0.64 0.64 0.67 0.89 1.21 1.54 1.63
0.35 0.35 0.34 0.37 0.43 0.48 0.52 0.53 0.58 0.61 0.69 0.81 0.85 0.83 0.83 0.78 0.67 0.64 0.60 0.60 0.60 0.54 0.49 0.44 0.39 0.41 0.48 0.56 0.60 0.52 0.47 0.47 0.45 0.50 0.68 0.72 0.85 1.11

GEFSNE_prec_meanprecacc_162.txt.gz
Total_Precipitation_Accumulation
0.99 0.98 0.95 0.89 0.86 0.89 0.97 1.14 1.34 1.28 1.01 0.81 0.77 0.77 0.79 0.79 0.81 0.74 0.64 0.79 0.86 0.86 0.91 0.95 0.92 0.91 0.92 1.02 1.21 1.40 1.54 1.56 1.56 1.65 1.73 1.76 1.86 2.04
0.92 0.92 0.90 0.87 0.87 0.90 0.96 1.04 1.17 1.29 1.17 0.86 0.73 0.70 0.73 0.76 0.83 0.73 0.65 0.77 0.78 0.79 0.79 0.81 0.83 0.88 0.92 0.98 1.08 1.21 1.41 1.53 1.55 1.57 1.66 1.73 1.82 1.94
0.87 0.86 0.85 0.84 0.86 0.87 0.91 0.96 1.01 1.10 1.11 0.88 0.74 0.71 0.73 0.73 0.75 0.72 0.67 0.64 0.61 0.69 0.70 0.69 0.72 0.79 0.89 0.95 0.99 1.07 1.23 1.35 1.47 1.52 1.60 1.70 1.77 1.79
0.86 0.88 0.88 0.89 0.94 0.96 0.98 0.98 0.96 0.96 0.99 0.92 0.77 0.68 0.64 0.61 0.60 0.62 0.62 0.61 0.56 0.65 0.67 0.66 0.68 0.72 0.81 0.86 0.89 0.95 1.04 1.11 1.22 1.31 1.37 1.45 1.54 1.64
0.79 0.85 0.89 0.94 0.99 1.00 0.99 0.97 0.93 0.89 0.89 0.91 0.79 0.66 0.60 0.57 0.59 0.60 0.61 0.60 0.56 0.60 0.64 0.64 0.66 0.69 0.73 0.80 0.85 0.86 0.87 0.92 0.98 1.08 1.17 1.24 1.33 1.43
0.82 0.84 0.87 0.88 0.88 0.88 0.86 0.84 0.85 0.86 0.86 0.88 0.85 0.74 0.64 0.59 0.63 0.69 0.68 0.60 0.56 0.51 0.55 0.55 0.56 0.57 0.60 0.65 0.72 0.75 0.77 0.84 0.93 1.02 1.15 1.19 1.22 1.32
0.88 0.87 0.84 0.81 0.76 0.75 0.75 0.74 0.74 0.80 0.87 0.92 0.87 0.77 0.67 0.64 0.64 0.63 0.68 0.64 0.59 0.52 0.50 0.48 0.48 0.46 0.46 0.52 0.60 0.71 0.81 0.94 1.08 1.17 1.29 1.40 1.47 1.51
0.78 0.75 0.73 0.73 0.71 0.73 0.74 0.73 0.77 0.87 0.97 0.96 0.85 0.70 0.55 0.51 0.56 0.66 0.77 0.81 0.72 0.52 0.50 0.52 0.52 0.53 0.49 0.52 0.65 0.75 0.86 0.99 1.15 1.23 1.31 1.37 1.45 1.56
0.70 0.65 0.61 0.57 0.58 0.55 0.62 0.69 0.71 0.76 0.81 0.80 0.74 0.61 0.55 0.55 0.70 0.86 0.85 0.81 0.65 0.48 0.51 0.58 0.55 0.58 0.58 0.62 0.73 0.77 0.89 1.00 1.14 1.23 1.31 1.36 1.41 1.49
0.55 0.52 0.48 0.47 0.47 0.50 0.57 0.64 0.58 0.54 0.55 0.53 0.54 0.58 0.59 0.58 0.68 0.82 0.83 0.79 0.67 0.57 0.57 0.66 0.59 0.60 0.59 0.64 0.75 0.75 0.81 0.94 1.08 1.21 1.30 1.33 1.37 1.46
0.44 0.45 0.47 0.44 0.49 0.63 0.65 0.63 0.51 0.43 0.45 0.51 0.56 0.56 0.57 0.56 0.59 0.79 0.95 1.01 0.86 0.64 0.56 0.59 0.54 0.56 0.61 0.66 0.74 0.81 0.82 0.90 1.04 1.15 1.20 1.28 1.36 1.43
0.41 0.44 0.48 0.47 0.55 0.66 0.60 0.57 0.49 0.42 0.43 0.42 0.40 0.40 0.40 0.43 0.53 0.67 1.03 1.33 1.06 0.76 0.51 0.64 0.66 0.72 0.91 0.70 0.69 0.75 0.79 0.90 1.01 1.06 1.09 1.18 1.25 1.25
0.41 0.40 0.42 0.57 0.64 0.63 0.55 0.46 0.48 0.53 0.46 0.37 0.35 0.34 0.34 0.36 0.39 0.44 0.68 1.24 1.45 0.99 0.52 0.94 1.09 0.82 0.98 0.78 0.68 0.76 0.87 1.03 1.11 1.12 1.12 1.13 1.16 1.22
0.39 0.35 0.41 0.58 0.58 0.51 0.45 0.48 0.56 0.52 0.41 0.40 0.39 0.39 0.36 0.35 0.35 0.37 0.43 0.61 0.92 1.02 0.72 1.11 1.54 1.14 1.20 1.00 0.80 0.84 0.91 1.13 1.38 1.45 1.39 1.34 1.25 1.24
0.46 0.52 0.56 0.51 0.44 0.41 0.42 0.46 0.46 0.43 0.48 0.55 0.50 0.41 0.37 0.36 0.38 0.42 0.44 0.49 0.57 0.62 0.68 0.84 1.22 1.27 1.40 1.36 1.08 0.94 1.05 1.20 1.51 1.79 1.71 1.49 1.28 1.20
0.55 0.56 0.50 0.42 0.37 0.37 0.40 0.41 0.39 0.41 0.51 0.59 0.54 0.44 0.38 0.41 0.46 0.55 0.65 0.67 0.74 0.67 0.66 0.73 0.91 1.23 1.34 1.13 1.21 1.15 1.19 1.54 1.75 1.95 1.83 1.57 1.34 1.17
0.59 0.45 0.37 0.35 0.35 0.33 0.33 0.34 0.37 0.41 0.46 0.48 0.53 0.51 0.46 0.46 0.48 0.58 0.78 0.89 0.93 0.80 0.72 0.67 0.69 0.81 1.00 1.10 1.15 1.10 1.22 1.47 1.70 1.86 1.67 1.51 1.45 1.32
0.50 0.40 0.38 0.35 0.34 0.32 0.31 0.33 0.34 0.38 0.45 0.54 0.56 0.56 0.57 0.56 0.57 0.60 0.78 0.95 0.96 0.85 0.78 0.70 0.69 0.74 0.76 0.82 1.05 1.25 1.30 1.47 1.58 1.53 1.25 1.25 1.37 1.27
0.39 0.40 0.40 0.40 0.38 0.37 0.38 0.39 0.39 0.37 0.47 0.60 0.66 0.67 0.68 0.64 0.66 0.71 0.79 0.86 0.84 0.75 0.65 0.59 0.69 0.96 0.98 0.74 0.68 1.01 1.36 1.43 1.30 1.21 1.06 1.08 1.31 1.26
0.31 0.36 0.38 0.40 0.42 0.45 0.48 0.50 0.50 0.49 0.53 0.62 0.67 0.70 0.76 0.81 0.78 0.78 0.81 0.85 0.80 0.62 0.47 0.39 0.50 0.89 1.27 1.14 0.92 0.90 1.04 1.22 1.26 1.26 1.08 0.97 1.06 1.07
0.30 0.32 0.34 0.37 0.43 0.48 0.52 0.55 0.58 0.63 0.67 0.76 0.76 0.78 0.83 0.92 0.86 0.78 0.76 0.69 0.62 0.54 0.46 0.36 0.37 0.57 0.86 0.94 0.81 0.71 0.84 0.95 1.09 1.39 1.34 1.18 1.01 0.89
0.32 0.33 0.33 0.36 0.42 0.47 0.51 0.55 0.61 0.63 0.69 0.77 0.80 0.83 0.87 0.94 0.91 0.76 0.65 0.62 0.55 0.51 0.47 0.37 0.32 0.40 0.59 0.81 0.73 0.59 0.62 0.66 0.66 0.70 0.94 1.27 1.61 1.70
0.36 0.36 0.35 0.38 0.44 0.49 0.53 0.54 0.60 0.63 0.71 0.82 0.86 0.84 0.83 0.79 0.68 0.65 0.61 0.61 0.62 0.56 0.51 0.46 0.40 0.42 0.49 0.57 0.61 0.54 0.49 0.49 0.48 0.53 0.72 0.79 0.92 1.17